[[[{"header":{"parameterUnit":"kt","parameterCategory":2,"dx":1,"dy":1,"la1":29.587661999999998,"la2":31.0,"lo1":-88.76705300000003,"lo2":-86.6583820000003,"nx":115,"ny":88,"refTime":"2022-09-22T18:00:00:Z","depth":0,"parameterNumber":1,"parameterNumberName":"U-component_of_WINDS"},"data":[1.3798,1.3798,1.3798,1.4016,1.424,1.4385,1.4702,1.5189,1.5462,1.5915,1.6337,1.6694,1.681,1.6935,1.6935,1.6828,1.6613,1.629,1.617,1.6277,1.6062,1.617,1.617,1.5955,1.5847,1.5309,1.4662,1.4349,1.4565,1.4231,1.4015,1.4015,1.4015,1.4015,1.4015,1.4047,1.4023,1.4256,1.4386,1.4731,1.4964,1.5154,1.527,1.5421,1.5421,1.557,1.5772,1.5883,1.6116,1.6475,1.7073,1.743,1.7722,1.8121,1.8638,1.9026,1.9426,1.9814,1.9414,1.811,1.6018,1.3279,1.0566,0.7837,0.5883,0.4318,0.3795,0.314,0.2225,0.157,0.0,0.0,0.0,0.0,0.0,0.0,0.0,0.0,-0.3251,-0.4314,-0.5986,-0.8615,-1.0769,-1.2028,-1.3128,-1.3938,-1.5304,-1.5506,-1.5627,-1.6153,-1.6686,-1.6697,-1.6697,-1.6697,-1.6707,-1.7088,-1.7967,-1.8778,-1.9783,-2.1015,-2.2027,-2.2447,-2.2586,-2.26,-2.2797,-2.3035,-2.3325,-2.3575,-2.3905,-2.4208,-2.4261,-2.4301,-2.4301,-2.4301,-2.4301,1.3798,1.3798,1.3798,1.3824,1.3916,1.4477,1.4886,1.5242,1.577,1.6297,1.6681,1.6598,1.6216,1.5955,1.5751,1.5751,1.5751,1.5536,1.5536,1.5536,1.532,1.5428,1.5536,1.532,1.5213,1.4781,1.4339,1.4231,1.4242,1.4123,1.4015,1.4015,1.4015,1.4015,1.4015,1.4036,1.4023,1.4256,1.4386,1.4731,1.4943,1.5175,1.5228,1.5389,1.5442,1.5548,1.564,1.5883,1.6116,1.6464,1.6677,1.6902,1.7204,1.7592,1.7992,1.825,1.8638,1.9026,1.8768,1.6805,1.4454,1.2119,0.9916,0.745,0.5233,0.3925,0.3402,0.2617,0.1701,0.0,0.0,0.0,0.0,0.0,0.0,0.0,0.0,0.0,-0.3404,-0.4314,-0.7062,-1.0524,-1.2319,-1.3747,-1.461,-1.5286,-1.5883,-1.6105,-1.6316,-1.6464,-1.6633,-1.6697,-1.6697,-1.6826,-1.6837,-1.7421,-1.8474,-1.931,-2.0218,-2.1431,-2.2281,-2.2368,-2.2494,-2.2547,-2.2692,-2.2916,-2.3193,-2.3496,-2.3865,-2.4208,-2.4261,-2.4301,-2.4301,-2.4301,-2.4301,1.3798,1.3798,1.3798,1.3976,1.4161,1.4412,1.4781,1.5242,1.592,1.6098,1.6079,1.6035,1.5847,1.5644,1.5536,1.5644,1.5536,1.4997,1.4997,1.4997,1.5008,1.4889,1.4889,1.4997,1.4792,1.4673,1.4242,1.4015,1.4015,1.4015,1.4015,1.4015,1.4015,1.4015,1.4015,1.4036,1.4023,1.4145,1.4499,1.4573,1.4541,1.4869,1.5059,1.5059,1.5112,1.5238,1.5471,1.5767,1.5989,1.619,1.6517,1.6655,1.6826,1.7085,1.7334,1.7722,1.7722,1.7851,1.6287,1.4195,1.147,0.8868,0.6532,0.5883,0.3664,0.314,0.2617,0.2094,0.1047,0.0,0.0,0.0,0.0,0.0,0.0,0.0,-0.2417,-0.435,-0.6097,-0.7216,-0.9808,-1.2914,-1.3628,-1.4945,-1.5096,-1.5545,-1.5841,-1.6084,-1.6242,-1.639,-1.6581,-1.6697,-1.6697,-1.6826,-1.714,-1.7927,-1.8955,-1.9902,-2.0829,-2.1583,-2.2294,-2.2329,-2.2389,-2.2441,-2.256,-2.2784,-2.3061,-2.3378,-2.3734,-2.4129,-2.4235,-2.4301,-2.4301,-2.4301,-2.4287,1.3798,1.3798,1.3864,1.4161,1.4425,1.4504,1.4833,1.5145,1.5666,1.5641,1.5249,1.53,1.5239,1.5082,1.5105,1.4986,1.4997,1.4673,1.4565,1.4565,1.4565,1.4565,1.4565,1.4565,1.4565,1.4457,1.4242,1.4015,1.4015,1.4015,1.4015,1.4015,1.4015,1.4015,1.4015,1.4015,1.4079,1.4129,1.434,1.4414,1.4281,1.4636,1.4837,1.4816,1.4837,1.4985,1.5175,1.5524,1.582,1.6031,1.6422,1.6644,1.6697,1.6697,1.6945,1.7204,1.6557,1.5769,1.4074,1.147,0.8999,0.6397,0.4704,0.3531,0.2617,0.2225,0.1701,0.1178,0.0785,0.0393,0.0,0.0,0.0,0.0,0.0,0.0,-0.3713,-0.6504,-0.9409,-1.1476,-1.3528,-1.4579,-1.4945,-1.5302,-1.5421,-1.5471,-1.5756,-1.5989,-1.6126,-1.6316,-1.6496,-1.6676,-1.6686,-1.7118,-1.7726,-1.8465,-1.9445,-2.0397,-2.1267,-2.1873,-2.2447,-2.2507,-2.2415,-2.2415,-2.2389,-2.2613,-2.2863,-2.3219,-2.3615,-2.3997,-2.4182,-2.4274,-2.4301,-2.4103,-2.4142,1.3798,1.3838,1.4174,1.4451,1.4754,1.4979,1.4985,1.4851,1.5225,1.5138,1.4805,1.4541,1.4355,1.4273,1.4339,1.4339,1.4339,1.4231,1.4242,1.4123,1.4123,1.4123,1.4123,1.4015,1.4242,1.4123,1.4015,1.4015,1.4015,1.4015,1.4015,1.4015,1.4015,1.4015,1.4015,1.4015,1.4047,1.4034,1.4161,1.4277,1.4208,1.4355,1.4636,1.4594,1.4657,1.4689,1.4837,1.5207,1.5815,1.5915,1.6232,1.6644,1.6686,1.6697,1.6567,1.6168,1.4602,1.3426,1.147,0.8608,0.6528,0.4962,0.379,0.2616,0.1832,0.144,0.1178,0.0785,0.0,0.0,0.0,0.0,0.0,0.0,0.0,0.0,-0.4618,-0.6925,-0.9867,-1.2653,-1.447,-1.4935,-1.5421,-1.5421,-1.5421,-1.5355,-1.5566,-1.5809,-1.5999,-1.6211,-1.6433,-1.6665,-1.7064,-1.7615,-1.8128,-1.8992,-1.9956,-2.0952,-2.1719,-2.2355,-2.2434,-2.2534,-2.2455,-2.2244,-2.2059,-2.2323,-2.2639,-2.3088,-2.347,-2.38,-2.401,-2.4195,-2.4116,-2.3852,-2.3865,1.4335,1.4438,1.4557,1.4662,1.4807,1.5071,1.4981,1.4779,1.4756,1.4515,1.4063,1.4023,1.3833,1.3834,1.3951,1.4015,1.4015,1.4015,1.4015,1.4015,1.4015,1.4015,1.4015,1.4015,1.4015,1.4015,1.4015,1.4015,1.4015,1.4015,1.4015,1.4015,1.4015,1.4015,1.4015,1.4015,1.4015,1.4057,1.41,1.4034,1.4129,1.4256,1.4256,1.4266,1.452,1.4488,1.4509,1.508,1.5602,1.5857,1.6158,1.6528,1.6676,1.6557,1.6427,1.4204,1.2517,1.1087,0.8483,0.5618,0.4051,0.2614,0.1831,0.1178,0.0916,0.0,0.0,0.0,0.0,0.0,0.0,0.0,0.0,0.0,0.0,0.0,-0.5654,-0.7593,-1.0222,-1.3253,-1.4549,-1.5116,-1.5421,-1.5421,-1.5431,-1.5355,-1.5492,-1.5703,-1.5904,-1.6105,-1.6316,-1.6581,-1.729,-1.7992,-1.8708,-1.9568,-2.0465,-2.1294,-2.2106,-2.2368,-2.2407,-2.2494,-2.2296,-2.2059,-2.1795,-2.198,-2.2244,-2.2758,-2.3193,-2.3417,-2.3628,-2.376,-2.3734,-2.3615,-2.3734,1.3658,1.4689,1.4203,1.4333,1.4741,1.386,1.379,1.3991,1.3763,1.3912,1.3992,1.3744,1.3755,1.379,1.3844,1.3951,1.3994,1.4015,1.3907,1.4015,1.4015,1.4015,1.4015,1.4015,1.4015,1.4015,1.4015,1.4015,1.4015,1.4015,1.4015,1.4015,1.4015,1.4015,1.4015,1.4015,1.4015,1.4026,1.4036,1.4047,1.41,1.4076,1.4044,1.4044,1.4235,1.4319,1.4414,1.49,1.527,1.5729,1.6073,1.6327,1.6538,1.6431,1.5431,1.2841,1.0293,0.8613,0.4965,0.3398,0.2222,0.0915,0.0654,0.0393,0.0,0.0,0.0,0.0,0.0,0.0,0.0,0.0,0.0,0.0,0.0,-0.5326,-0.86,-1.0371,-1.1705,-1.4108,-1.486,-1.5442,-1.5421,-1.5421,-1.5431,-1.5344,-1.545,-1.5629,-1.5809,-1.5968,-1.6179,-1.6603,-1.7235,-1.8239,-1.9076,-2.0,-2.0865,-2.1634,-2.2093,-2.2573,-2.2534,-2.2402,-2.2165,-2.1914,-2.1624,-2.169,-2.1901,-2.227,-2.2718,-2.2969,-2.3233,-2.3325,-2.3444,-2.3562,-2.3694,1.1081,1.4257,1.2899,1.3189,1.4261,1.1298,1.0822,1.2415,1.1939,1.2846,1.4742,1.3393,1.3034,1.3694,1.3474,1.3164,1.3188,1.3573,1.3583,1.3691,1.3907,1.4015,1.4015,1.4015,1.4015,1.4015,1.4015,1.4015,1.4015,1.4015,1.4015,1.4015,1.4015,1.4015,1.3799,1.3691,1.3583,1.3907,1.4015,1.4015,1.4015,1.3949,1.4047,1.4057,1.4121,1.4129,1.4414,1.4731,1.5069,1.5534,1.5978,1.6116,1.6095,1.6137,1.4542,1.1814,0.7143,0.5604,0.3398,0.1439,0.0,0.0,0.0,0.0,0.0,0.0,0.0,0.0,0.0,0.0,0.0,0.0,0.0,-0.2614,-0.392,-0.7005,-1.0648,-1.2639,-1.3821,-1.4503,-1.5252,-1.5453,-1.5421,-1.5421,-1.5421,-1.5453,-1.5376,-1.5555,-1.5714,-1.5873,-1.6126,-1.6666,-1.7598,-1.8615,-1.9504,-2.058,-2.1304,-2.1703,-2.2165,-2.2494,-2.2441,-2.2336,-2.2072,-2.1795,-2.1479,-2.1241,-2.1532,-2.1835,-2.2257,-2.256,-2.2837,-2.2982,-2.3206,-2.3378,-2.372,0.9867,1.1125,1.052,1.074,1.1038,0.9932,0.9674,1.016,0.9877,0.9999,1.0576,1.0002,0.9832,0.9763,0.9422,0.9374,0.9623,1.0804,1.1736,1.1961,1.3151,1.3475,1.3691,1.4015,1.3691,1.4015,1.4015,1.4015,1.4015,1.4015,1.4015,1.4015,1.4015,1.4015,1.3475,1.2827,1.2394,1.3583,1.3367,1.3475,1.3583,1.3799,1.3907,1.3799,1.4057,1.4087,1.4414,1.4731,1.5048,1.5629,1.601,1.62,1.5795,1.4987,1.3203,1.1268,0.7422,0.3652,0.0,0.0,0.0,0.0,0.0,0.0,0.0,0.0,0.0,0.0,0.0,0.0,0.0,0.0,0.0,0.0,-0.5615,-0.8478,-1.1731,-1.4032,-1.5193,-1.5195,-1.5619,-1.5418,-1.5421,-1.5421,-1.5421,-1.5421,-1.5421,-1.5591,-1.5761,-1.5985,-1.623,-1.6982,-1.7938,-1.8849,-1.9716,-2.0844,-2.1451,-2.1677,-2.1993,-2.2336,-2.2296,-2.2138,-2.1927,-2.169,-2.1413,-2.1084,-2.1136,-2.1413,-2.1809,-2.2151,-2.2494,-2.2771,-2.2969,-2.3351,-2.38,0.8017,0.9276,0.8602,0.792,0.7237,0.7243,0.7237,0.7341,0.7634,0.8219,0.8534,0.7915,0.7583,0.7393,0.7459,0.7163,0.7437,0.9053,0.9353,0.9462,1.0545,1.152,1.1952,1.1952,1.261,1.2935,1.3799,1.4015,1.3799,1.4015,1.4015,1.4015,1.4015,1.4015,1.3367,1.1961,1.1087,1.2493,1.206,1.1736,1.1736,1.2277,1.2709,1.2719,1.3583,1.4139,1.4562,1.4594,1.4974,1.5555,1.5799,1.5358,1.4275,1.3691,1.1371,0.8402,0.6947,0.2844,0.0,0.0,0.0,0.0,0.0,0.0,0.0,0.0,0.0,0.0,0.0,0.0,0.0,0.0,0.0,0.0,-0.7701,-1.056,-1.2647,-1.4932,-1.5936,-1.5809,-1.5608,-1.5386,-1.5421,-1.5421,-1.5421,-1.5421,-1.5421,-1.5548,-1.5644,-1.5879,-1.6301,-1.7295,-1.8287,-1.907,-1.9964,-2.1003,-2.165,-2.1716,-2.194,-2.2191,-2.2046,-2.1861,-2.1677,-2.1532,-2.1294,-2.0953,-2.094,-2.1136,-2.1453,-2.1861,-2.2336,-2.2692,-2.3074,-2.3509,-2.3879,0.5582,0.8797,0.695,0.5097,0.3631,0.3241,0.3437,0.4023,0.5391,0.695,0.8115,0.7438,0.7125,0.6954,0.5753,0.5541,0.5837,0.6471,0.696,0.7177,0.7937,0.7503,0.8262,0.9353,1.0437,1.0979,1.1736,1.2601,1.3141,1.2601,1.3249,1.3357,1.2817,1.2817,1.3367,1.152,1.0654,1.0437,0.8696,0.8479,0.8696,0.9895,1.0329,1.077,1.1772,1.2658,1.2865,1.2958,1.3238,1.3779,1.4089,1.3429,1.1798,1.1171,0.8912,0.5245,0.4184,0.2428,0.0,0.0,0.0,0.0,0.0,0.0,0.0,0.0,0.0,0.0,0.0,0.0,0.0,0.0,0.0,-0.7436,-1.0046,-1.2485,-1.4116,-1.6032,-1.5925,-1.5746,-1.5503,-1.5421,-1.5421,-1.5421,-1.5421,-1.5421,-1.5421,-1.5453,-1.5516,-1.5883,-1.6598,-1.7479,-1.8483,-1.9279,-2.0161,-2.1122,-2.1677,-2.1756,-2.1874,-2.2019,-2.1954,-2.1598,-2.1413,-2.1334,-2.1018,-2.0991,-2.0925,-2.0872,-2.1242,-2.1637,-2.2138,-2.2639,-2.3233,-2.3668,-2.3945,0.3827,0.4803,0.4317,0.3631,0.3143,0.3045,0.3045,0.3241,0.3827,0.4313,0.4313,0.3729,0.3268,0.2824,0.0,0.0,0.0,0.3774,0.4342,0.5004,0.5874,0.696,0.7177,0.7611,0.8045,0.8154,0.8913,0.9346,0.9563,0.9129,0.9996,1.0537,0.9996,0.9455,0.9455,0.9895,1.1412,1.1952,1.087,0.957,0.8919,0.8702,0.8166,0.8498,0.9028,0.9771,1.0094,1.0319,1.04,1.064,1.0656,1.0079,0.8936,0.7524,0.57,0.3961,0.2444,0.0907,0.0,0.0,0.0,0.0,0.0,0.0,0.0,0.0,0.0,0.0,0.0,0.0,0.0,-0.2745,-0.5745,-0.8738,-1.1477,-1.3727,-1.5332,-1.6022,-1.5915,-1.5772,-1.5612,-1.5421,-1.5421,-1.5421,-1.5421,-1.5421,-1.5421,-1.5442,-1.5495,-1.5961,-1.6779,-1.7638,-1.8665,-1.9498,-2.0343,-2.094,-2.1518,-2.1584,-2.165,-2.1809,-2.1729,-2.1268,-2.1004,-2.0953,-2.1057,-2.0899,-2.0846,-2.0859,-2.111,-2.1439,-2.1848,-2.2296,-2.3031,-2.3457,-2.3813,0.3045,0.3045,0.3045,0.3045,0.3045,0.3045,0.3045,0.3045,0.3045,0.2848,0.2748,0.1866,0.1285,0.0802,0.0,0.0,0.0,0.0,0.1956,0.2721,0.0,0.4135,0.4787,0.4896,0.5656,0.5874,0.6743,0.696,0.6851,0.7503,0.7937,0.7177,0.6412,0.6091,0.7068,0.8479,0.8913,0.9455,0.9129,0.8371,0.8166,0.6883,0.7029,0.7039,0.7029,0.7185,0.7326,0.7352,0.7633,0.8007,0.8139,0.7462,0.6546,0.5227,0.3779,0.2299,0.1158,0.0,0.0,0.0,0.0,0.0,0.0,0.0,0.0,0.0,0.0,0.0,0.0,0.0,-0.1438,-0.4048,-0.6658,-0.9649,-1.2202,-1.4427,-1.5673,-1.5865,-1.5883,-1.5534,-1.5495,-1.5421,-1.5421,-1.5421,-1.5421,-1.5421,-1.5421,-1.5442,-1.5647,-1.6071,-1.6913,-1.7783,-1.8808,-1.9678,-2.0562,-2.0953,-2.1334,-2.1387,-2.14,-2.1518,-2.1558,-2.1097,-2.0859,-2.0796,-2.0822,-2.0872,-2.0833,-2.0833,-2.1004,-2.1321,-2.1677,-2.2195,-2.2586,-2.3167,-2.3483,0.3045,0.3045,0.3045,0.3045,0.3045,0.3045,0.3045,0.3045,0.3045,0.3045,0.2848,0.2063,0.1278,0.0796,0.0,0.0,0.0,0.0,0.0,0.0,0.0,0.0,0.1416,0.2396,0.3265,0.3591,0.4461,0.5548,0.62,0.5222,0.4678,0.3591,0.3482,0.4787,0.5982,0.6526,0.6303,0.6308,0.6308,0.5765,0.5242,0.5073,0.5892,0.6035,0.6233,0.6563,0.6769,0.6213,0.605,0.6122,0.6006,0.544,0.4028,0.3198,0.2248,0.0,0.0,0.0,0.0,0.0,0.0,0.0,0.0,0.0,0.0,0.0,0.0,0.0,0.0,0.0,-0.3657,-0.6524,-0.8738,-1.134,-1.3659,-1.5441,-1.5843,-1.6052,-1.5809,-1.5439,-1.5421,-1.5421,-1.5421,-1.5421,-1.5421,-1.5421,-1.5421,-1.5421,-1.5647,-1.6445,-1.7269,-1.8084,-1.8986,-1.992,-2.0691,-2.0991,-2.1189,-2.1136,-2.1215,-2.1255,-2.1215,-2.1149,-2.0846,-2.0899,-2.0912,-2.0872,-2.0833,-2.0872,-2.0978,-2.1242,-2.1558,-2.1954,-2.2441,-2.2942,-2.3259,0.3045,0.3045,0.3045,0.3045,0.3045,0.3045,0.3045,0.3045,0.3045,0.3045,0.2848,0.2063,0.1287,0.0704,0.0307,0.0209,0.0529,0.0216,0.0,0.0,0.0,0.0,0.0,0.0,0.0,0.098,0.0,0.0,0.0,0.0,0.0,0.098,0.0,0.2287,0.3808,0.4352,0.5004,0.5113,0.4787,0.4138,0.3498,0.277,0.2231,0.2029,0.1833,0.175,0.1876,0.0,0.0,0.0,0.0,0.0,0.0,0.0,0.0,0.0,0.0,0.0,0.0,0.0,0.0,0.0,0.0,0.0,0.0,0.0,0.0,0.0,0.0,0.0,-0.3918,-0.6784,-0.9779,-1.2647,-1.5112,-1.5617,-1.6001,-1.601,-1.5788,-1.5471,-1.5421,-1.5421,-1.5421,-1.5421,-1.5421,-1.5421,-1.5421,-1.5421,-1.5951,-1.691,-1.7695,-1.8566,-1.9513,-2.0367,-2.0793,-2.0899,-2.0927,-2.1005,-2.1017,-2.1031,-2.1032,-2.1057,-2.0872,-2.0833,-2.0846,-2.0846,-2.0846,-2.0899,-2.0978,-2.1334,-2.1663,-2.1967,-2.231,-2.2731,-2.3088,0.3045,0.3045,0.3045,0.3045,0.3045,0.3045,0.3045,0.3045,0.2848,0.275,0.2652,0.1865,0.1283,0.07,0.0205,0.0208,0.0317,0.0108,0.0,0.0,0.0,0.0,0.0,0.0,0.0,0.0,0.0,0.0,0.0,0.0,0.0,0.0,0.0,0.0,0.1743,0.1959,0.3373,0.4135,0.3485,0.2622,0.2868,0.2348,0.1586,0.1599,0.0585,0.0,0.0,0.0,0.0,0.0,0.0,0.0,0.0,0.0,0.0,0.0,0.0,0.0,0.0,0.0,0.0,0.0,0.0,0.0,0.0,0.0,0.0,0.0,0.0,-0.3137,-0.5872,-0.8478,-1.1217,-1.353,-1.5679,-1.6063,-1.6094,-1.5968,-1.5777,-1.5524,-1.5421,-1.5421,-1.5421,-1.5421,-1.5421,-1.5539,-1.5658,-1.5658,-1.6289,-1.6951,-1.782,-1.8874,-1.9751,-2.0635,-2.0741,-2.0846,-2.1004,-2.1004,-2.0886,-2.0925,-2.09,-2.09,-2.0899,-2.0833,-2.0833,-2.0846,-2.0859,-2.1004,-2.1255,-2.1532,-2.1795,-2.2112,-2.2428,-2.2784,-2.2863,0.3045,0.3045,0.3045,0.3045,0.3045,0.3045,0.3045,0.3045,0.2652,0.2456,0.2554,0.1866,0.1277,0.0891,0.0407,0.0103,0.0104,0.0,0.0,0.0,0.0,0.0,0.0,0.0,0.0,0.0,0.0,0.0,0.0,0.0,0.0,0.0,0.0,0.0,0.0,0.0,0.0,0.2287,0.1092,0.0991,0.2454,0.2725,0.2652,0.222,0.0,0.0,0.0,0.0,0.0,0.0,0.0,0.0,0.0,0.0,0.0,0.0,0.0,0.0,0.0,0.0,0.0,0.0,0.0,0.0,0.0,0.0,0.0,0.0,-0.2354,-0.4832,-0.7566,-1.0566,-1.3434,-1.5332,-1.6271,-1.6158,-1.6042,-1.5894,-1.5651,-1.5516,-1.5431,-1.5421,-1.5421,-1.5421,-1.5539,-1.5788,-1.5906,-1.6025,-1.6308,-1.671,-1.7414,-1.8626,-1.9623,-2.0363,-2.0661,-2.0806,-2.0899,-2.0886,-2.0846,-2.0859,-2.0912,-2.0912,-2.0833,-2.0846,-2.0833,-2.0846,-2.0965,-2.1202,-2.1532,-2.1756,-2.1901,-2.2191,-2.2521,-2.2573,-2.2639,0.3045,0.3045,0.3045,0.3045,0.3045,0.3045,0.3045,0.3045,0.2946,0.2848,0.2848,0.2063,0.1472,0.1279,0.0892,0.0602,0.0611,0.0105,0.0,0.0,0.0,0.0,0.0,0.0,0.0,0.0,0.0,0.0,0.0,0.0,0.0,0.0,0.0,0.0,0.0,0.0,0.0,0.0547,0.011,0.0111,0.0562,0.0689,0.0702,0.0469,0.0,0.0,0.0,0.0,0.0,0.0,0.0,0.0,0.0,0.0,0.0,0.0,0.0,0.0,0.0,0.0,0.0,0.0,0.0,0.0,0.0,0.0,0.0,0.0,-0.2614,-0.5484,-0.8478,-1.0957,-1.3694,-1.5858,-1.6475,-1.6264,-1.601,-1.5756,-1.5634,-1.5527,-1.5453,-1.5421,-1.5421,-1.5421,-1.5895,-1.6025,-1.6144,-1.6263,-1.6856,-1.7093,-1.7426,-1.8635,-1.9468,-2.0206,-2.0661,-2.0806,-2.0833,-2.0833,-2.0833,-2.0833,-2.0833,-2.0846,-2.0872,-2.0899,-2.0899,-2.1004,-2.1136,-2.1189,-2.1558,-2.1769,-2.198,-2.2217,-2.2468,-2.2573,-2.2586,0.3045,0.3045,0.3045,0.3045,0.3045,0.3045,0.3045,0.3045,0.2848,0.275,0.2554,0.2161,0.1668,0.1276,0.108,0.0794,0.0508,0.0,0.0,0.0,0.0,0.0,0.0,0.0,0.0,0.0,0.0,0.0,0.0,0.0,0.0,0.0,0.0,0.0,0.0,0.0,0.0,0.0,0.0,0.0,0.0,0.0,0.0,0.0,0.0,0.0,0.0,0.0,0.0,0.0,0.0,0.0,0.0,0.0,0.0,0.0,0.0,0.0,0.0,0.0,0.0,0.0,0.0,0.0,0.0,0.0,0.0,0.0,-0.3135,-0.7306,-0.9909,-1.2906,-1.4815,-1.6271,-1.6327,-1.6084,-1.5862,-1.5619,-1.545,-1.5323,-1.5421,-1.5421,-1.5421,-1.5658,-1.6144,-1.6381,-1.6489,-1.6974,-1.7567,-1.7686,-1.7698,-1.8631,-1.9276,-2.0101,-2.0701,-2.0793,-2.0833,-2.0833,-2.0833,-2.0833,-2.0846,-2.0859,-2.0886,-2.1004,-2.111,-2.1202,-2.1334,-2.1466,-2.1584,-2.1743,-2.2072,-2.2362,-2.2507,-2.2586,-2.2586,0.3045,0.3045,0.3045,0.3045,0.3045,0.3045,0.3045,0.3045,0.2652,0.2456,0.2456,0.2357,0.1767,0.1178,0.1374,0.0891,0.0,0.0,0.0,0.0,0.0,0.0,0.0,0.0,0.0,0.0,0.0,0.0,0.0,0.0,0.0,0.0,0.0,0.0,0.0,0.0,0.0,0.0,0.0,0.0,0.0,0.0,0.0,0.0,0.0,0.0,0.0,0.0,0.0,0.0,0.0,0.0,0.0,0.0,0.0,0.0,0.0,0.0,0.0,0.0,0.0,0.0,0.0,0.0,0.0,0.0,0.0,-0.1699,-0.4962,-0.8738,-1.1997,-1.4602,-1.6205,-1.6253,-1.6179,-1.5936,-1.5703,-1.5612,-1.5442,-1.5421,-1.5421,-1.5421,-1.5539,-1.5788,-1.6381,-1.6737,-1.6856,-1.7212,-1.7922,-1.8159,-1.8172,-1.8731,-1.9256,-2.0049,-2.0661,-2.0688,-2.0846,-2.0846,-2.0938,-2.0938,-2.0978,-2.0938,-2.1031,-2.1242,-2.1373,-2.1387,-2.1505,-2.1663,-2.1795,-2.1901,-2.2217,-2.256,-2.2586,-2.2586,-2.2586,0.3045,0.3045,0.3045,0.3045,0.3045,0.3045,0.3045,0.3045,0.3045,0.2946,0.2946,0.2456,0.2063,0.1472,0.1178,0.0589,0.0,0.0,0.0,0.0,0.0,0.0,0.0,0.0,0.0,0.0,0.0,0.0,0.0,0.0,0.0,0.0,0.0,0.0,0.0,0.0,0.0,0.0,0.0,0.0,0.0,0.0,0.0,0.0,0.0,0.0,0.0,0.0,0.0,0.0,0.0,0.0,0.0,0.0,0.0,0.0,0.0,0.0,0.0,0.0,0.0,0.0,0.0,0.0,0.0,0.0,-0.1439,-0.3137,-0.5093,-0.7832,-1.1867,-1.5102,-1.6302,-1.6359,-1.6011,-1.5915,-1.5682,-1.545,-1.5442,-1.5421,-1.5421,-1.5421,-1.5539,-1.6025,-1.6619,-1.7093,-1.7212,-1.7555,-1.8265,-1.862,-1.862,-1.8893,-1.9538,-2.0174,-2.0358,-2.0424,-2.082,-2.0938,-2.111,-2.1162,-2.1097,-2.1307,-2.1466,-2.1584,-2.1505,-2.1492,-2.1558,-2.169,-2.1874,-2.2099,-2.231,-2.2521,-2.2586,-2.2586,-2.2586,0.3045,0.3045,0.3045,0.2453,0.1767,0.2554,0.2453,0.1765,0.2552,0.3045,0.3045,0.2848,0.2456,0.1963,0.1668,0.1178,0.059,0.0397,0.03,0.0,0.0,0.0,0.0,0.0,0.0,0.0,0.0,0.0,0.0,0.0,0.0,0.0,0.0,0.0,0.0,0.0,0.0,0.0,0.0,0.0,0.0,0.0,0.0,0.0,0.0,0.0,0.0,0.0,0.0,0.0,0.0,0.0,0.0,0.0,0.0,0.0,0.0,0.0,0.0,0.0,0.0,0.0,0.0,0.0,-0.1826,-0.2222,-0.3528,-0.5745,-0.7832,-1.0046,-1.4213,-1.6225,-1.6157,-1.6074,-1.5957,-1.5725,-1.5513,-1.5376,-1.5421,-1.5421,-1.5421,-1.5421,-1.5777,-1.6381,-1.6974,-1.7212,-1.7449,-1.8147,-1.8856,-1.8856,-1.8856,-1.8973,-1.9659,-1.9963,-2.0081,-2.0385,-2.078,-2.1044,-2.1281,-2.1453,-2.1558,-2.1716,-2.1848,-2.165,-2.1453,-2.1479,-2.1545,-2.165,-2.1795,-2.2099,-2.2349,-2.2494,-2.2586,-2.2586,-2.2586,0.1767,0.1767,0.1767,0.0785,-0.0294,0.0981,0.0785,-0.0588,0.1079,0.1374,0.1668,0.1668,0.157,0.157,0.1374,0.1374,0.0786,0.0688,0.0494,0.0,0.0,0.0,0.0,0.0,0.0,0.0,0.0,0.0,0.0,0.0,0.0,0.0,0.0,0.0,0.0,0.0,0.0,0.0,0.0,0.0,0.0,0.0,0.0,0.0,0.0,0.0,0.0,0.0,0.0,0.0,0.0,0.0,0.0,0.0,0.0,0.0,0.0,0.0,0.0,0.0,0.0,0.0,0.0,-0.2061,-0.4562,-0.4962,-0.6397,-0.8868,-1.1087,-1.3044,-1.5889,-1.6357,-1.6285,-1.6063,-1.582,-1.5698,-1.5365,-1.5421,-1.5421,-1.5421,-1.5421,-1.5421,-1.5421,-1.65,-1.7093,-1.7449,-1.8028,-1.8856,-1.8974,-1.8974,-1.8974,-1.8974,-1.9501,-1.9831,-2.0029,-2.0424,-2.0833,-2.1018,-2.1532,-2.1795,-2.1927,-2.2059,-2.1914,-2.1703,-2.1453,-2.1466,-2.1532,-2.1637,-2.1861,-2.2151,-2.2428,-2.2521,-2.2586,-2.2586,-2.2586,-0.2449,-0.2449,-0.2449,-0.2645,-0.2743,-0.2547,-0.2351,-0.2743,-0.2255,-0.2059,-0.2058,-0.2351,-0.1274,-0.049,-0.0392,0.0,0.0589,0.0393,0.0295,0.0,0.0,0.0,0.0,0.0,0.0,0.0,0.0,0.0,0.0,0.0,0.0,0.0,0.0,0.0,0.0,0.0,0.0,0.0,0.0,0.0,0.0,0.0,0.0,0.0,0.0,0.0,0.0,0.0,0.0,0.0,0.0,0.0,0.0,-0.2517,-0.3355,-0.3715,-0.4909,-0.5264,-0.3962,-0.3518,-0.3571,-0.3626,-0.3679,-0.4887,-0.7148,-0.7957,-0.8999,-1.1867,-1.2265,-1.4083,-1.6137,-1.6507,-1.6285,-1.6031,-1.5777,-1.5676,-1.5485,-1.5421,-1.5421,-1.5421,-1.5421,-1.5421,-1.5658,-1.6381,-1.733,-1.7449,-1.8265,-1.8856,-1.9092,-1.9092,-1.9092,-1.9106,-1.9369,-1.9686,-2.0055,-2.0464,-2.0872,-2.1307,-2.1729,-2.2046,-2.2178,-2.2099,-2.1954,-2.1716,-2.136,-2.1281,-2.1453,-2.1743,-2.198,-2.2244,-2.2455,-2.2534,-2.2586,-2.2586,-2.2586,-0.304,-0.304,-0.304,-0.382,-0.4701,-0.3624,-0.382,-0.4505,-0.3722,-0.304,-0.304,-0.304,-0.2743,-0.2155,-0.2155,-0.2155,-0.2155,-0.1176,-0.1079,-0.1473,-0.0594,0.0,0.0,0.0,0.0,0.0,0.0,0.0,0.0,0.0,0.0,0.0,0.0,0.0,0.0,0.0,0.0,0.0,0.0,0.0,0.0,0.0,0.0,0.0,0.0,0.0,0.0,0.0,0.0,-0.2279,-0.3595,-0.443,-0.4547,-0.5503,-0.5986,-0.6105,-0.6937,-0.7296,-0.6229,-0.6014,-0.6106,-0.623,-0.6284,-0.7785,-0.9989,-1.0827,-1.1867,-1.4343,-1.4871,-1.552,-1.6417,-1.6612,-1.639,-1.6042,-1.5672,-1.5408,-1.5323,-1.5421,-1.5421,-1.5421,-1.5421,-1.5421,-1.5421,-1.6489,-1.7093,-1.7567,-1.8383,-1.8856,-1.9092,-1.9092,-1.9092,-1.904,-1.9236,-1.9633,-1.9976,-2.0477,-2.0912,-2.1439,-2.1874,-2.2191,-2.2217,-2.2099,-2.1848,-2.1492,-2.1215,-2.111,-2.1426,-2.1729,-2.2033,-2.231,-2.2468,-2.2586,-2.2586,-2.2586,-2.2586,-0.4701,-0.4701,-0.4799,-0.5582,-0.6657,-0.5484,-0.5679,-0.6755,-0.5386,-0.5093,-0.4897,-0.4701,-0.4603,-0.3918,-0.3918,-0.4114,-0.3918,-0.2937,-0.2939,-0.3331,-0.2059,-0.1569,-0.1569,0.0,0.0,0.0,0.0,0.0,0.0,0.0,0.0,0.0,0.0,0.0,0.0,0.0,0.0,0.0,0.0,0.0,0.0,0.0,0.0,0.0,0.0,0.0,0.0,0.0,0.0,-0.4528,-0.668,-0.7534,-0.7415,-0.8131,-0.8609,-0.8847,-0.9205,-0.9444,-0.8847,-0.8615,-0.874,-0.909,-0.9139,-1.0385,-1.3262,-1.3564,-1.4584,-1.5828,-1.6602,-1.657,-1.6517,-1.6485,-1.6316,-1.5957,-1.564,-1.5516,-1.5442,-1.5421,-1.5421,-1.5421,-1.5421,-1.5539,-1.5777,-1.6619,-1.733,-1.7686,-1.8383,-1.9092,-1.9092,-1.9092,-1.9092,-1.9053,-1.9145,-1.9554,-1.991,-2.045,-2.1004,-2.1518,-2.1914,-2.2191,-2.2178,-2.2072,-2.1729,-2.1202,-2.0992,-2.1162,-2.1439,-2.1824,-2.2112,-2.2481,-2.2573,-2.2586,-2.2586,-2.2586,-2.2586,-0.8902,-0.9007,-0.8902,-0.879,-0.8895,-0.8797,-0.87,-0.9007,-0.8714,-0.8512,-0.8617,-0.8422,-0.7634,-0.6266,-0.607,-0.5484,-0.431,-0.431,-0.4795,-0.5284,-0.5088,-0.519,-0.519,-0.3722,-0.2939,-0.2647,-0.1278,0.0,0.0,0.0,0.0,0.0,0.0,0.0,0.0,0.0,0.0,0.0,0.0,0.0,0.0,0.0,0.0,0.0,0.0,0.0,0.0,0.0,-0.2611,-0.646,-0.7585,-0.8114,-0.8251,-0.9927,-1.1239,-1.1358,-1.3509,-1.3024,-1.1723,-1.1239,-1.1507,-1.1805,-1.1993,-1.3277,-1.5382,-1.5838,-1.6066,-1.6274,-1.638,-1.6295,-1.6137,-1.6105,-1.5968,-1.5857,-1.5719,-1.5602,-1.5453,-1.5421,-1.5421,-1.5421,-1.5421,-1.5539,-1.6144,-1.6856,-1.7449,-1.791,-1.862,-1.8974,-1.9092,-1.9092,-1.9092,-1.9106,-1.9132,-1.9396,-1.9686,-2.0253,-2.0951,-2.1439,-2.1848,-2.2046,-2.2099,-2.2006,-2.1769,-2.1387,-2.1123,-2.1255,-2.1439,-2.1624,-2.194,-2.2375,-2.2573,-2.2573,-2.2586,-2.2586,-2.2573,-0.908,-0.908,-0.908,-0.9143,-0.9239,-0.9247,-0.9302,-0.9292,-0.93,-0.93,-0.93,-0.93,-0.8812,-0.8324,-0.8129,-0.8031,-0.7738,-0.6559,-0.7145,-0.861,-0.7927,-0.7731,-0.7829,-0.607,-0.5093,-0.4897,-0.431,-0.3918,-0.382,-0.2665,-0.1981,-0.1685,-0.0595,0.0,0.0,-0.1224,-0.1251,-0.0325,-0.1315,-0.2005,-0.2161,-0.2173,-0.2868,-0.4147,-0.4383,-0.4396,-0.4418,-0.4421,-0.6027,-0.8784,-0.9694,-1.065,-1.2412,-1.3262,-1.3866,-1.4104,-1.4698,-1.4935,-1.4104,-1.3747,-1.412,-1.4381,-1.4545,-1.521,-1.5843,-1.6422,-1.638,-1.619,-1.6137,-1.598,-1.5896,-1.5999,-1.583,-1.5602,-1.5559,-1.5397,-1.5453,-1.5421,-1.5421,-1.5421,-1.5421,-1.5658,-1.6263,-1.6856,-1.7449,-1.8028,-1.862,-1.9092,-1.9092,-1.9092,-1.9092,-1.9092,-1.9092,-1.9264,-1.942,-2.0023,-2.0859,-2.1268,-2.165,-2.1782,-2.1769,-2.1663,-2.1532,-2.1123,-2.0886,-2.0978,-2.1373,-2.1558,-2.1769,-2.2191,-2.2573,-2.2534,-2.2455,-2.2494,-2.2402,-0.8982,-0.8982,-0.8982,-0.8961,-0.9064,-0.9072,-0.9128,-0.9239,-0.9206,-0.9229,-0.9326,-0.9276,-0.93,-0.93,-0.93,-0.9495,-0.9796,-0.8519,-0.8805,-1.0363,-0.9779,-0.9592,-0.9974,-0.8902,-0.7829,-0.7145,-0.6559,-0.6168,-0.5875,-0.4799,-0.4016,-0.382,-0.2647,-0.1974,-0.2199,-0.3337,-0.3605,-0.2352,-0.3569,-0.4395,-0.4603,-0.4614,-0.5304,-0.6799,-0.703,-0.78,-0.9112,-0.9159,-1.0083,-1.1663,-1.2071,-1.3085,-1.4673,-1.5196,-1.5228,-1.5291,-1.5421,-1.5421,-1.5291,-1.5249,-1.5312,-1.5598,-1.5725,-1.5841,-1.5999,-1.6168,-1.6137,-1.5936,-1.5894,-1.5851,-1.5809,-1.5788,-1.564,-1.5334,-1.5421,-1.5312,-1.5421,-1.5421,-1.5421,-1.5421,-1.5421,-1.5658,-1.6263,-1.6856,-1.7567,-1.8028,-1.862,-1.9092,-1.9092,-1.9092,-1.9092,-1.9092,-1.9106,-1.9185,-1.9488,-1.9976,-2.0437,-2.0714,-2.1097,-2.1347,-2.1202,-2.107,-2.0951,-2.0741,-2.0609,-2.0741,-2.1189,-2.1505,-2.1703,-2.2046,-2.223,-2.2283,-2.231,-2.223,-2.2112,-0.8966,-0.895,-0.8974,-0.8958,-0.8889,-0.8889,-0.8982,-0.9046,-0.9088,-0.9151,-0.9175,-0.9318,-0.9268,-0.9284,-0.9292,-0.9389,-0.9382,-0.9179,-0.9665,-1.0762,-1.0664,-1.1151,-1.2026,-1.1735,-1.0762,-0.9105,-0.7341,-0.6461,-0.6755,-0.6364,-0.6266,-0.6168,-0.5777,-0.5395,-0.5983,-0.617,-0.6492,-0.6153,-0.6523,-0.696,-0.6965,-0.6992,-0.7149,-0.7457,-0.7469,-0.9414,-1.3418,-1.3711,-1.3591,-1.3944,-1.4151,-1.4606,-1.4785,-1.4995,-1.5069,-1.5238,-1.5281,-1.541,-1.527,-1.5091,-1.5154,-1.5559,-1.5559,-1.5534,-1.582,-1.5957,-1.5915,-1.5714,-1.5772,-1.5698,-1.5397,-1.5376,-1.5463,-1.5421,-1.5421,-1.5421,-1.5421,-1.5421,-1.5421,-1.5421,-1.5421,-1.5658,-1.6263,-1.6856,-1.7449,-1.8028,-1.862,-1.9092,-1.9092,-1.9092,-1.9092,-1.9092,-1.9092,-1.9106,-1.9409,-1.9752,-1.9949,-2.0298,-2.0696,-2.082,-2.0675,-2.0609,-2.0503,-2.0543,-2.0398,-2.0543,-2.1004,-2.1321,-2.1558,-2.1769,-2.1743,-2.1835,-2.2307,-2.2754,-2.2496,-0.8532,-0.8532,-0.8524,-0.8596,-0.8616,-0.8616,-0.877,-0.8982,-0.8945,-0.8969,-0.9008,-0.9159,-0.9231,-0.9247,-0.935,-0.9245,-0.9143,-0.9231,-0.9584,-1.0275,-1.0372,-1.0664,-1.1346,-1.1735,-1.1355,-1.047,-1.0363,-1.0461,-1.0266,-0.9,-0.8317,-0.8226,-0.6852,-0.6266,-0.6489,-0.7914,-0.7956,-0.7137,-0.824,-0.9247,-0.9339,-0.9353,-1.0034,-1.149,-1.1716,-1.2559,-1.3809,-1.3981,-1.4023,-1.4055,-1.4245,-1.4292,-1.4509,-1.4795,-1.5006,-1.5069,-1.508,-1.5069,-1.5048,-1.4858,-1.4795,-1.4943,-1.5143,-1.527,-1.5312,-1.5598,-1.5629,-1.5482,-1.5538,-1.5516,-1.5323,-1.5421,-1.5421,-1.5421,-1.5421,-1.5421,-1.5421,-1.5421,-1.5421,-1.5421,-1.5421,-1.5658,-1.6263,-1.6856,-1.7449,-1.8028,-1.862,-1.8974,-1.9092,-1.9092,-1.9092,-1.9092,-1.9092,-1.9092,-1.9924,-2.0452,-2.0673,-2.0634,-2.0813,-2.045,-2.0187,-2.016,-2.016,-2.0253,-2.0358,-2.0503,-2.0741,-2.1083,-2.1373,-2.165,-2.2426,-2.3247,-2.3066,-2.3375,-2.419,-0.8358,-0.8358,-0.8358,-0.8421,-0.8436,-0.8436,-0.8588,-0.8699,-0.8762,-0.8794,-0.8818,-0.8977,-0.9056,-0.9056,-0.9009,-0.9096,-0.9056,-0.9056,-0.9436,-0.9969,-1.0083,-1.0311,-1.085,-1.1248,-1.1151,-1.1054,-1.1735,-1.2134,-1.1929,-1.0786,-1.0108,-0.986,-0.8885,-0.8279,-0.8648,-1.0027,-1.0202,-0.9221,-1.054,-1.1611,-1.1727,-1.1745,-1.2309,-1.3674,-1.3664,-1.3802,-1.3887,-1.3898,-1.393,-1.4015,-1.4044,-1.4129,-1.4171,-1.4499,-1.4742,-1.4826,-1.4847,-1.4837,-1.4816,-1.4626,-1.452,-1.4615,-1.4826,-1.4911,-1.5017,-1.5228,-1.5506,-1.5323,-1.5421,-1.5421,-1.5421,-1.5421,-1.5421,-1.5421,-1.5421,-1.5421,-1.5421,-1.5421,-1.5421,-1.5421,-1.5421,-1.5539,-1.6025,-1.6737,-1.7449,-1.7792,-1.8502,-1.8974,-1.9092,-1.9092,-1.9092,-1.9092,-1.9092,-1.9565,-2.1068,-2.1865,-2.2,-2.1835,-2.1294,-2.1331,-2.1951,-2.2269,-2.1611,-2.1848,-2.1769,-2.1942,-2.2641,-2.2991,-2.3881,-2.4182,-2.4957,-2.5417,-2.4408,-2.5824,-2.6507,-0.8531,-0.8618,-0.8618,-0.8705,-0.8618,-0.8713,-0.8626,-0.8833,-0.8806,-0.879,-0.8986,-0.906,-0.905,-0.9209,-0.9159,-0.8896,-0.9042,-0.915,-0.9442,-0.9816,-0.9824,-1.0197,-1.0753,-1.0859,-1.0859,-1.0762,-1.1346,-1.1647,-1.153,-1.1355,-1.1536,-1.1501,-1.1452,-1.1705,-1.1816,-1.2216,-1.2651,-1.2312,-1.3055,-1.3736,-1.3747,-1.3747,-1.3537,-1.3201,-1.3231,-1.3357,-1.3527,-1.3663,-1.3876,-1.3983,-1.4101,-1.4123,-1.4036,-1.4129,-1.4361,-1.4562,-1.4604,-1.4604,-1.4573,-1.4382,-1.433,-1.4499,-1.4302,-1.4456,-1.4826,-1.4974,-1.5101,-1.5378,-1.5281,-1.5421,-1.5421,-1.5647,-1.5884,-1.5777,-1.5766,-1.5884,-1.5766,-1.5884,-1.5539,-1.5421,-1.5421,-1.5421,-1.5421,-1.65,-1.7212,-1.7567,-1.8383,-1.921,-1.9447,-1.9447,-1.9669,-1.9787,-2.0258,-2.1082,-2.5282,-2.5486,-2.5819,-2.5504,-2.4046,-2.3628,-2.4499,-2.5001,-2.4077,-2.3453,-2.3723,-2.4163,-2.4514,-2.5162,-2.6133,-2.6775,-2.7602,-2.7875,-2.7098,-2.8442,-2.9188,-1.129,-1.129,-1.129,-1.129,-1.129,-1.129,-1.129,-1.13,-1.1354,-1.1386,-1.131,-1.0419,-1.0615,-1.1395,-1.1418,-1.0899,-1.0285,-1.0213,-0.9859,-0.9317,-0.9341,-0.9518,-0.9779,-1.0186,-1.0177,-0.9982,-1.0664,-1.0868,-1.0567,-1.0892,-1.1019,-1.0934,-1.102,-1.1092,-1.1425,-1.151,-1.1736,-1.1972,-1.2615,-1.2879,-1.2879,-1.2879,-1.2819,-1.2717,-1.3015,-1.3252,-1.3315,-1.476,-1.5085,-1.3865,-1.5124,-1.5418,-1.4101,-1.4079,-1.4108,-1.4319,-1.4361,-1.4239,-1.4351,-1.4139,-1.4034,-1.4207,-1.4213,-1.4208,-1.4365,-1.4773,-1.4985,-1.5186,-1.5207,-1.5529,-1.5539,-1.6939,-1.8004,-1.8122,-1.976,-1.9877,-1.8227,-1.8004,-1.7413,-1.5658,-1.5884,-1.5421,-1.5539,-1.6607,-1.7686,-1.7804,-1.8502,-1.9565,-2.12,-2.1788,-2.2492,-2.4232,-2.4582,-2.5282,-2.6213,-2.7027,-2.6678,-2.633,-2.6483,-2.59,-2.6097,-2.6621,-2.63,-2.6553,-2.6872,-2.7351,-2.7599,-2.7759,-2.8317,-2.8715,-2.9005,-2.9024,-2.9728,-3.0866,-3.1622,-1.2351,-1.2257,-1.2363,-1.2496,-1.2496,-1.2496,-1.2496,-1.2496,-1.2496,-1.2496,-1.2398,-1.2218,-1.2486,-1.327,-1.2633,-1.2054,-1.1395,-1.0889,-1.0275,-0.9838,-0.9114,-0.897,-0.9278,-0.9592,-0.9633,-0.9389,-1.0177,-1.0275,-0.9991,-1.0275,-1.0478,-1.0394,-1.04,-1.0494,-1.0752,-1.0859,-1.1076,-1.1355,-1.1868,-1.1892,-1.1647,-1.192,-1.2121,-1.2222,-1.2623,-1.3268,-1.4366,-1.5502,-1.6137,-1.6085,-1.7133,-1.7358,-1.6504,-1.6411,-1.6486,-1.653,-1.6555,-1.6231,-1.5259,-1.512,-1.5192,-1.5297,-1.5448,-1.5905,-1.6796,-1.6517,-1.6756,-1.7468,-1.8028,-1.8244,-1.8568,-1.9642,-2.0583,-2.0701,-2.1875,-2.2109,-2.0701,-2.0583,-2.0113,-1.8699,-1.8345,-1.8463,-1.8476,-1.9066,-1.9669,-2.0376,-2.142,-2.2828,-2.3998,-2.4365,-2.5049,-2.6446,-2.8533,-2.9457,-2.9803,-2.9688,-2.9688,-2.9614,-2.902,-2.914,-2.957,-2.9853,-2.9339,-2.9648,-2.9862,-3.007,-3.0536,-3.0613,-3.1118,-3.2524,-3.2398,-3.2272,-3.2272,-3.3529,-3.4406,-1.262,-1.2449,-1.2729,-1.2779,-1.2889,-1.2914,-1.2926,-1.2926,-1.284,-1.2828,-1.3036,-1.4001,-1.4659,-1.4573,-1.3277,-1.2607,-1.2401,-1.1268,-1.0619,-1.0399,-0.9283,-0.8861,-0.9104,-0.9128,-0.9215,-0.9358,-0.9763,-0.9763,-0.9397,-0.9787,-1.0003,-0.9902,-0.9824,-0.9908,-1.0235,-1.0437,-1.0639,-1.0832,-1.1217,-1.0942,-1.0203,-1.1063,-1.155,-1.1647,-1.2328,-1.378,-1.5684,-1.6291,-1.7421,-1.9205,-1.9554,-1.9711,-1.9834,-1.9881,-1.9881,-1.9881,-1.9881,-1.9139,-1.7163,-1.6982,-1.7246,-1.7513,-1.7674,-1.8536,-2.0424,-1.954,-1.9712,-2.1227,-2.1926,-2.1811,-2.2585,-2.285,-2.2982,-2.3147,-2.3631,-2.3264,-2.3163,-2.3046,-2.2929,-2.2812,-2.2109,-2.2695,-2.2227,-2.2227,-2.2929,-2.3748,-2.4816,-2.5981,-2.6795,-2.6911,-2.7143,-2.8186,-3.0839,-3.3405,-3.3519,-3.3976,-3.3405,-3.3428,-3.2363,-3.219,-3.2951,-3.293,-3.2254,-3.2451,-3.2747,-3.2938,-3.3255,-3.3508,-3.4281,-3.5429,-3.6178,-3.6824,-3.7073,-3.6824,-3.67,-1.4784,-1.479,-1.4799,-1.5059,-1.5327,-1.5595,-1.5785,-1.5785,-1.5684,-1.5635,-1.5356,-1.5928,-1.622,-1.6151,-1.5223,-1.4268,-1.3295,-1.2422,-1.1251,-1.0039,-0.9568,-0.9259,-0.9006,-0.9038,-0.904,-0.9191,-0.9302,-0.9367,-0.9284,-0.9495,-0.9479,-0.9407,-0.9273,-0.9234,-0.9511,-0.9409,-0.9595,-1.0058,-0.9991,-0.978,-0.9503,-1.047,-1.1054,-1.1248,-1.346,-1.5044,-1.5788,-1.8771,-2.0012,-1.9276,-2.0692,-2.0944,-1.9695,-1.9508,-1.9609,-1.9609,-1.9508,-1.9304,-1.8912,-1.9153,-1.9543,-1.9968,-1.9998,-2.0242,-2.087,-2.2164,-2.3346,-2.3599,-2.2581,-2.191,-2.2568,-2.4025,-2.5312,-2.5829,-2.7375,-2.7607,-2.6097,-2.5748,-2.5032,-2.3046,-2.2695,-2.2812,-2.2695,-2.2695,-2.3514,-2.4798,-2.5846,-2.7491,-2.9111,-2.9457,-3.0379,-3.1894,-3.3177,-3.3976,-3.3976,-3.3976,-3.3976,-3.3976,-3.352,-3.3797,-3.4306,-3.4841,-3.4872,-3.5132,-3.5619,-3.5746,-3.6132,-3.6053,-3.6303,-3.6824,-3.7198,-3.7198,-3.7198,-3.7198,-3.7198,-1.5487,-1.5377,-1.5519,-1.5692,-1.5882,-1.6087,-1.6166,-1.6134,-1.5834,-1.5582,-1.5455,-1.5945,-1.6245,-1.6371,-1.5992,-1.5505,-1.4983,-1.3888,-1.2859,-1.1921,-1.1266,-1.0844,-1.0731,-1.067,-1.0786,-1.0886,-1.0241,-1.0013,-1.0006,-0.9444,-0.9167,-0.9143,-0.8897,-0.8805,-0.9002,-0.8985,-0.9163,-0.9609,-1.0205,-1.0577,-1.0567,-1.1202,-1.148,-1.1569,-1.3813,-1.5569,-1.6531,-1.874,-1.9905,-1.9765,-2.0855,-2.1396,-2.1273,-2.125,-2.1507,-2.1866,-2.2046,-2.1992,-2.1651,-2.1277,-2.1301,-2.2049,-2.2236,-2.2762,-2.3839,-2.5122,-2.5974,-2.6168,-2.5254,-2.4687,-2.5289,-2.6485,-2.7445,-2.7874,-2.9078,-2.9524,-2.8513,-2.8321,-2.7742,-2.6562,-2.6213,-2.6213,-2.6195,-2.6213,-2.6678,-2.7819,-2.8649,-2.9824,-3.1665,-3.2009,-3.2467,-3.3634,-3.3976,-3.3976,-3.3976,-3.3976,-3.3976,-3.3976,-3.4164,-3.4539,-3.5032,-3.5548,-3.6064,-3.658,-3.6885,-3.7174,-3.7073,-3.7073,-3.7198,-3.7198,-3.7198,-3.7198,-3.7198,-3.7198,-3.6979,-1.5266,-1.5106,-1.5313,-1.5408,-1.5361,-1.5361,-1.5329,-1.525,-1.4761,-1.4571,-1.4741,-1.5298,-1.5755,-1.604,-1.5929,-1.6071,-1.634,-1.5105,-1.4448,-1.4279,-1.3131,-1.263,-1.274,-1.2752,-1.2894,-1.2856,-1.1762,-1.1142,-1.1081,-1.0079,-0.9535,-0.9509,-0.9249,-0.9246,-0.9173,-0.9433,-0.9569,-0.9552,-1.1106,-1.2065,-1.2157,-1.2513,-1.2565,-1.2345,-1.4133,-1.5885,-1.7326,-1.7772,-1.8712,-2.023,-2.037,-2.1181,-2.2795,-2.2897,-2.3446,-2.4329,-2.4676,-2.4655,-2.3998,-2.3004,-2.2816,-2.3719,-2.4223,-2.5287,-2.7105,-2.7418,-2.769,-2.8001,-2.7936,-2.8339,-2.8757,-2.8731,-2.8919,-2.9357,-2.944,-2.9586,-2.9899,-3.0024,-2.9951,-2.9836,-3.0285,-3.0096,-2.9865,-2.9981,-3.0306,-3.1457,-3.1342,-3.2375,-3.3291,-3.3999,-3.3976,-3.3976,-3.3976,-3.3976,-3.3976,-3.3976,-3.3976,-3.3976,-3.4328,-3.4703,-3.522,-3.5642,-3.6064,-3.6721,-3.6721,-3.6815,-3.7056,-3.6956,-3.6979,-3.7198,-3.7198,-3.7198,-3.7198,-3.6738,-3.6551,-1.4773,-1.4726,-1.4698,-1.4571,-1.4245,-1.4245,-1.4145,-1.398,-1.4424,0.0,0.0,-1.5408,-1.5613,-1.5629,-1.5077,-1.4932,-1.4903,-1.4394,-1.3819,-1.3305,-1.3376,-1.3103,-1.2555,-1.2481,-1.2622,-1.287,-1.2602,-1.2537,-1.2639,-1.2376,-1.2284,-1.2262,-1.2132,-1.2011,-1.2111,-1.2334,-1.2088,-1.1311,-1.1498,-1.1979,-1.2854,-1.4068,-1.397,-1.2387,-1.5803,-1.7117,-1.6022,-1.7898,-1.8991,-1.9025,-1.9318,-1.9674,-1.9988,-2.0406,-2.1013,-2.1871,-2.2039,-2.2606,-2.3572,-2.3682,-2.4194,-2.5053,-2.5891,-2.6238,-2.5791,-2.6539,-2.7187,-2.7669,-2.7711,-2.7878,-2.8318,-2.8252,-2.8548,-2.9008,-2.905,-2.9071,-2.9197,-2.9511,-2.9648,-2.969,-3.0076,-3.0327,-3.0306,-3.0327,-3.0557,-3.1249,-3.1824,-3.2375,-3.3085,-3.3657,-3.3976,-3.3976,-3.3976,-3.3976,-3.3976,-3.3976,-3.3976,-3.3976,-3.407,-3.4304,-3.475,-3.4961,-3.5243,-3.5806,-3.583,-3.6017,-3.6346,-3.6463,-3.6604,-3.7003,-3.7198,-3.7198,-3.7003,-3.6049,-3.5107,-1.5062,-1.5657,-1.4913,-1.4445,0.0,-1.4303,-1.4293,-1.4257,-1.4552,-1.4559,-1.4392,-1.4824,-1.5156,-1.5298,-1.5043,-1.4979,-1.5061,-1.4903,-1.4613,-1.4305,-1.4547,-1.4378,-1.4017,-1.4004,-1.4086,-1.4237,-1.3562,-1.3216,-1.327,-1.2582,-1.211,-1.1782,-1.177,-1.1574,-1.1136,-1.1562,-1.223,-1.3106,-1.3255,-1.362,-1.4331,-1.5245,-1.5312,-1.4535,-1.7213,0.0,0.0,0.0,0.0,0.0,0.0,0.0,0.0,-2.01,0.0,-2.1324,-2.078,-2.0645,-2.1009,-2.1411,-2.2164,-2.3295,-2.3797,-2.3881,-2.342,-2.4676,-2.568,-2.6141,-2.6622,-2.7166,-2.7836,-2.792,-2.8087,-2.8527,-2.859,-2.8694,-2.8904,-2.9134,-2.928,-2.9322,-2.9699,-2.9992,-2.9992,-3.0159,-3.0557,-3.127,-3.1709,-3.226,-3.297,-3.3657,-3.3976,-3.3976,-3.3976,-3.3976,-3.3976,-3.3976,-3.3976,-3.3976,-3.3976,-3.4187,-3.4656,-3.4867,-3.4915,-3.5431,-3.5571,-3.5618,-3.5877,-3.5923,-3.6017,-3.6228,-3.6299,-3.6299,-3.591,-3.5176,-3.4501,-1.616,-1.7195,-1.5937,-1.5424,-1.5306,-1.5441,-1.551,-1.5633,-1.5633,-1.5235,-1.472,-1.4946,-1.515,-1.5427,-1.5212,-1.5202,-1.5392,-1.5455,-1.5487,-1.5487,-1.555,-1.5566,-1.5566,-1.5566,-1.5566,-1.5502,-1.446,-1.3965,-1.3965,-1.2772,-1.1973,-1.1488,-1.1685,-1.1251,-1.0417,0.0,0.0,0.0,-1.4698,-1.5328,-1.5805,-1.6481,-1.6899,-1.6819,-1.8713,0.0,-1.928,-1.9538,-1.9632,-1.9259,-1.961,0.0,0.0,0.0,0.0,0.0,0.0,0.0,0.0,0.0,0.0,0.0,-2.0804,-2.0925,-2.1465,-2.2858,-2.3901,-2.4278,-2.5367,-2.6267,-2.6769,-2.6957,-2.7271,-2.7794,-2.7857,-2.8087,-2.8611,-2.8736,-2.8799,-2.882,-2.9218,-2.9398,-2.9419,-2.9825,-3.0304,-3.0847,-3.1555,-3.2105,-3.2561,-3.3174,-3.3698,-3.3859,-3.3906,-3.4023,-3.4231,-3.407,-3.4023,-3.4093,-3.407,-3.414,-3.4469,-3.4679,-3.4774,-3.5102,-3.5266,-3.5243,-3.5384,-3.5407,-3.5454,-3.5548,-3.5595,-3.5263,-3.4341,-3.4058,-3.3685,-1.8795,-1.8941,-1.8721,-1.8345,-1.7828,-1.8396,-1.8652,-1.8663,-1.8663,-1.8581,-1.8413,-1.7158,-1.664,-1.662,-1.5218,-1.4635,-1.4698,-1.5075,-1.5217,-1.5249,-1.544,-1.5566,-1.5566,-1.5566,-1.5566,-1.5566,-1.5422,-1.5326,-1.5262,-1.5102,-1.4976,-1.4885,-1.493,-1.4595,-1.3895,-1.3464,-1.3066,-1.2772,-1.3971,-1.5313,-1.655,-1.8215,-1.8837,-1.8468,-2.0504,-2.0869,-1.9379,-2.0753,-2.0911,-1.9399,-2.0753,-2.1186,-2.0209,-2.0322,-1.9921,0.0,-1.8542,0.0,0.0,0.0,0.0,0.0,0.0,0.0,0.0,-2.2138,-2.2268,-2.2309,-2.432,-2.5115,-2.4139,-2.4791,-2.561,-2.635,-2.6455,-2.6811,-2.7648,-2.8108,-2.8231,-2.8339,-2.8736,-2.9029,-2.8987,-2.905,-2.928,-2.9749,-3.0649,-3.128,-3.1301,-3.208,-3.3049,-3.3319,-3.3694,-3.4803,-3.4884,-3.4579,-3.4346,-3.4584,-3.444,-3.4023,-3.4161,-3.407,-3.4117,-3.4187,-3.4234,-3.4375,-3.4774,-3.4844,-3.5008,-3.5288,-3.5478,-3.4865,-3.3216,-3.2412,-3.1652,-1.9746,-2.0475,-1.96,-2.0086,-2.1421,-2.1734,-2.1369,-2.057,-2.057,-2.0038,-1.9234,-1.8521,-1.8227,-1.8154,-1.7472,-1.6678,-1.588,-1.607,-1.5685,-1.4868,-1.5394,-1.5629,-1.5629,-1.5629,-1.5629,-1.5629,-1.5228,-1.4998,-1.5013,-1.4998,-1.4808,-1.4519,-1.4635,-1.4564,-1.4365,-1.3634,-1.325,-1.3123,-1.3861,-1.5394,-1.786,-2.0238,-2.1532,-2.1594,-2.3297,-2.3877,-2.3036,-2.3807,-2.3807,-2.3086,-2.3807,-2.3707,-2.2694,-2.1295,-2.0275,0.0,0.0,0.0,0.0,0.0,0.0,0.0,0.0,0.0,0.0,0.0,-1.9995,-2.0787,-2.3483,-2.455,-2.3169,-2.3881,-2.4488,-2.4728,-2.4425,-2.4739,-2.603,-2.6434,-2.6622,-2.6371,-2.7187,-2.7773,-2.7794,-2.8025,-2.8443,-2.9155,-2.8899,-2.9407,-3.1253,-3.2795,-3.4148,-3.5598,-3.6994,-3.7969,-3.8178,-3.8021,-3.7414,-3.6237,-3.5699,-3.4892,-3.3424,-3.3366,-3.3554,-3.3577,-3.3788,-3.3955,-3.382,-3.3867,-3.382,-3.3818,-3.4214,-3.4608,-3.4593,-3.3628,-3.3192,-2.1056,-2.207,-2.1022,-2.1847,-2.3855,-2.3925,-2.3233,-2.2166,-2.2094,-2.1419,-2.038,-2.0086,-1.976,-1.933,-1.8669,-1.7927,-1.706,-1.7133,-1.6497,-1.5508,-1.6103,-1.6325,-1.6046,-1.6046,-1.6046,-1.5954,-1.5498,-1.5128,-1.4838,-1.4743,-1.444,-1.4031,-1.4347,-1.4587,-1.453,-1.4267,-1.4195,-1.4535,-1.5096,-1.6591,-1.9012,-2.1578,-2.3267,-2.3959,-2.531,-2.6116,-2.6242,-2.6569,-2.6645,-2.65,-2.6183,-2.5701,-2.4753,-2.2005,0.0,0.0,0.0,0.0,0.0,0.0,0.0,0.0,0.0,-1.8761,-1.7363,0.0,-1.9069,0.0,-2.2778,-2.3878,-2.2667,-2.3022,0.0,0.0,-2.2499,-2.2625,-2.4006,-2.4655,-2.4906,-2.4676,-2.566,-2.6371,-2.6371,-2.6706,-2.7561,-2.9176,-2.8381,-2.8542,-3.1156,-3.3076,-3.4878,-3.6232,-3.7715,-3.92,-3.9144,-3.9975,-3.974,-3.8221,-3.7677,-3.6785,-3.4654,-3.4499,-3.4562,-3.4562,-3.4906,-3.4902,-3.4702,-3.4057,-3.3741,-3.3488,-3.4028,-3.5151,-3.6306,-3.5669,-3.5173,-2.3631,-2.3789,-2.4226,-2.418,-2.3894,-2.3894,-2.385,-2.3749,-2.3749,-2.3631,-2.3457,-2.2391,-2.1125,-1.9636,-1.7164,0.0,-1.7431,-1.7842,-1.7927,-1.7786,-1.8208,-1.7859,-1.6844,-1.6844,-1.6844,-1.6844,-1.7038,-1.6551,-1.5606,-1.5193,-1.494,-1.5087,-1.5811,-1.5989,-1.5711,-1.6643,-1.7153,-1.7213,-1.8567,-1.9525,-1.9745,-2.1402,-2.2816,-2.4086,-2.535,-2.6385,-2.6912,-2.8074,-2.8508,-2.7787,-2.6785,-2.5621,-2.4356,0.0,0.0,0.0,0.0,0.0,0.0,0.0,0.0,0.0,0.0,0.0,0.0,0.0,0.0,-2.1514,-2.2292,0.0,-2.2081,-2.1329,0.0,0.0,0.0,-2.0762,-2.2059,-2.3043,-2.3824,-2.4153,0.0,0.0,-2.5064,-2.5106,-2.6426,-3.0139,-3.0898,-3.0754,-2.9872,-3.1863,-3.3279,-3.3385,-3.3654,-3.4254,-3.6057,-3.7694,-3.9573,-4.0852,-4.0489,-3.9508,-3.9016,-3.8551,-3.8353,-3.8112,-3.8381,-3.8329,-3.8409,-3.712,-3.6372,-3.6641,-3.6776,-3.6884,-3.7125,-3.6991,-3.6911,-2.4271,-2.3865,-2.4059,-2.4004,-2.3807,-2.3807,-2.3403,-2.2885,-2.2885,-2.2494,-2.1906,-2.1399,-2.0874,-2.0275,-1.914,0.0,0.0,0.0,-1.8005,-1.7294,-1.7927,-1.7947,-1.7638,-1.7603,-1.7584,-1.7584,-1.7192,-1.6826,-1.6474,-1.6225,-1.622,-1.6386,0.0,-1.594,-1.6494,-1.7126,-1.7514,-1.7554,-1.8818,-2.0047,-2.1156,-2.2182,-2.3724,-2.5963,-2.6934,-2.7619,-2.8122,-2.8728,-2.8334,-2.6983,-2.6521,-2.4969,0.0,0.0,0.0,0.0,0.0,0.0,0.0,0.0,0.0,0.0,0.0,-1.9669,-1.865,0.0,0.0,0.0,-1.9799,-1.9609,-1.9773,-2.0425,0.0,0.0,0.0,0.0,0.0,0.0,0.0,-2.4531,-2.57,-2.6507,-2.6967,-2.6158,-2.6625,-2.9251,-2.8502,-2.8363,-3.0294,0.0,-3.3602,-3.5886,-3.7003,-3.8049,-3.952,-3.9866,-4.0289,-4.1502,-4.0522,-3.9256,-3.7591,-3.7938,-3.8419,-3.8399,-3.8653,-3.8801,-3.8376,-3.8249,-3.8239,-3.8385,-3.8012,-3.7924,-3.8656,-3.8789,-3.8997,-2.4456,0.0,0.0,0.0,0.0,-2.3177,-2.2694,-2.2249,-2.2278,-2.1595,-2.0442,-2.0402,0.0,0.0,0.0,0.0,0.0,0.0,-1.8708,-1.7742,-1.9137,-1.9485,-1.8878,-1.8878,-1.8878,-1.8786,-1.7968,-1.7426,-1.7192,-1.7216,-1.7337,-1.7339,0.0,0.0,0.0,0.0,-1.8635,-1.8714,-2.011,-2.1563,-2.2959,-2.3358,-2.4798,-2.746,-2.798,-2.8522,-2.9087,-2.8413,-2.7502,-2.6349,-2.5347,0.0,0.0,0.0,0.0,0.0,0.0,0.0,0.0,0.0,0.0,0.0,0.0,0.0,0.0,0.0,0.0,0.0,0.0,0.0,-1.8767,-1.9877,-2.0139,0.0,0.0,0.0,0.0,0.0,0.0,0.0,0.0,0.0,-2.819,-2.8138,-2.8483,0.0,0.0,-2.9101,-3.0894,-3.2087,-3.3585,-3.5968,-3.6858,0.0,-3.9548,-3.9575,-3.9496,-4.011,-4.0339,-3.9508,-3.6813,-3.735,-3.8084,-3.7879,-3.8755,-3.8952,-3.8009,-3.8044,-3.829,-3.8539,-3.7962,-3.7839,-3.8935,-3.9193,-3.9391,0.0,0.0,0.0,0.0,-2.3363,0.0,0.0,0.0,-2.2485,-2.1561,0.0,-1.9698,0.0,0.0,0.0,0.0,-1.7967,-1.9796,0.0,0.0,-2.2656,-2.299,-2.0715,-2.06,-2.0691,-2.0661,-1.9579,-1.8661,-1.7851,-1.7946,-1.7873,0.0,0.0,0.0,0.0,0.0,-2.1463,-2.1475,-2.3593,-2.4919,-2.499,-2.5018,-2.597,-2.7736,-2.8226,-2.8744,-2.9227,-2.703,-2.6077,-2.6489,-2.324,0.0,0.0,0.0,0.0,0.0,0.0,0.0,0.0,0.0,0.0,0.0,0.0,0.0,0.0,0.0,0.0,0.0,0.0,0.0,0.0,-1.9554,0.0,0.0,0.0,0.0,0.0,0.0,0.0,0.0,0.0,-2.599,-2.7878,-3.0582,-3.2683,-3.2683,0.0,0.0,0.0,0.0,-3.289,-3.1042,-3.0179,-3.0367,-3.1825,-3.441,-3.6401,-3.6795,0.0,0.0,-3.9554,-3.8572,-3.7881,-3.744,-3.9015,-3.9783,-3.7268,-3.628,-3.6207,-3.6711,-3.6373,-3.6571,-3.7728,-3.7323,-3.7475,0.0,0.0,0.0,0.0,0.0,0.0,0.0,0.0,0.0,-1.9792,-1.8607,-1.7968,0.0,0.0,0.0,0.0,0.0,0.0,0.0,0.0,-1.9361,-1.9457,-1.8467,-1.8804,-1.8841,-1.8359,-1.8008,-1.7638,0.0,0.0,0.0,0.0,0.0,0.0,0.0,0.0,-2.1328,-2.1701,-2.4783,-2.6621,-2.6903,-2.7855,-2.8761,-2.9592,-2.9697,-2.9306,-2.8362,-2.645,-2.4973,0.0,0.0,0.0,0.0,0.0,0.0,0.0,0.0,0.0,0.0,0.0,0.0,0.0,0.0,0.0,0.0,0.0,0.0,0.0,0.0,0.0,0.0,0.0,-2.0695,0.0,0.0,0.0,0.0,0.0,0.0,0.0,0.0,0.0,-2.7403,-2.8521,-2.9947,-3.1972,-3.2227,-3.2398,-3.2594,0.0,0.0,0.0,0.0,0.0,0.0,0.0,-3.2904,-3.2231,-3.2936,-3.3728,-3.4346,-3.5752,-3.6614,-3.648,0.0,0.0,-3.3061,-3.2591,-3.27,-3.295,-3.3544,-3.3837,-3.3293,-3.4108,-3.5225,0.0,0.0,0.0,0.0,0.0,0.0,0.0,0.0,0.0,-1.8915,-1.7807,0.0,0.0,0.0,0.0,0.0,0.0,0.0,0.0,0.0,0.0,0.0,-1.7658,-1.8067,0.0,0.0,0.0,0.0,0.0,0.0,0.0,0.0,0.0,0.0,0.0,0.0,-2.1432,-2.2068,-2.5626,-2.7715,-2.7995,-2.9454,-3.059,-3.1306,-3.1272,-3.0456,-2.8624,0.0,0.0,0.0,0.0,0.0,0.0,0.0,0.0,0.0,0.0,0.0,0.0,0.0,0.0,0.0,0.0,0.0,0.0,0.0,0.0,0.0,0.0,0.0,0.0,0.0,-2.1076,0.0,0.0,0.0,0.0,0.0,0.0,0.0,0.0,0.0,0.0,-2.6924,-2.835,-3.0404,-3.1147,-3.1828,-3.291,-3.3052,-3.3564,0.0,0.0,0.0,0.0,0.0,0.0,0.0,0.0,0.0,0.0,0.0,0.0,0.0,-3.3231,-3.2601,-2.9546,-2.8784,-2.8775,-2.8919,0.0,0.0,0.0,0.0,0.0,0.0,0.0,0.0,0.0,0.0,0.0,0.0,0.0,0.0,0.0,-1.7536,0.0,0.0,-1.6187,0.0,0.0,0.0,0.0,0.0,0.0,0.0,0.0,0.0,0.0,0.0,0.0,0.0,0.0,0.0,0.0,0.0,0.0,0.0,0.0,0.0,0.0,-2.1993,-2.2682,-2.6529,-2.849,-2.8521,-2.9904,-3.1374,-3.2724,-3.2859,-3.1972,-3.0053,0.0,0.0,0.0,0.0,0.0,0.0,0.0,0.0,0.0,0.0,0.0,0.0,0.0,0.0,0.0,0.0,0.0,0.0,0.0,0.0,0.0,0.0,0.0,0.0,0.0,0.0,-1.9091,-2.048,-2.1876,0.0,0.0,0.0,0.0,0.0,0.0,0.0,0.0,0.0,-2.8417,-3.1915,-3.3877,-3.2257,-3.1972,-3.2344,-3.2945,-3.1,-2.989,-3.1771,-3.2657,-3.2333,0.0,0.0,0.0,0.0,0.0,0.0,0.0,0.0,0.0,0.0,0.0,0.0,0.0,0.0,0.0,0.0,0.0,0.0,0.0,0.0,0.0,0.0,0.0,0.0,0.0,0.0,0.0,0.0,0.0,0.0,0.0,0.0,0.0,0.0,0.0,0.0,0.0,0.0,0.0,0.0,0.0,0.0,0.0,0.0,0.0,0.0,0.0,0.0,0.0,0.0,0.0,0.0,0.0,0.0,-2.3962,-2.5141,-2.8721,-3.0896,-3.1476,-3.2327,-3.3094,-3.3512,-3.2392,-3.0896,0.0,0.0,0.0,0.0,0.0,0.0,0.0,0.0,0.0,0.0,0.0,0.0,0.0,0.0,0.0,0.0,0.0,0.0,0.0,0.0,0.0,0.0,0.0,0.0,0.0,0.0,0.0,0.0,-2.2439,-2.2585,-2.1933,0.0,0.0,0.0,0.0,0.0,0.0,0.0,0.0,0.0,0.0,-3.3817,-3.4622,-3.4742,-3.4534,-3.412,-3.4979,-3.532,-3.4025,-3.3963,-3.3406,-3.1093,0.0,0.0,0.0,0.0,0.0,0.0,0.0,0.0,0.0,0.0,0.0,0.0,0.0,0.0,0.0,0.0,0.0,0.0,0.0,0.0,0.0,0.0,0.0,0.0,0.0,0.0,0.0,0.0,0.0,0.0,0.0,0.0,0.0,0.0,0.0,0.0,0.0,0.0,0.0,0.0,0.0,0.0,0.0,0.0,0.0,0.0,0.0,0.0,0.0,0.0,0.0,0.0,0.0,-2.4665,-2.5805,-2.9517,-3.1626,-3.1934,-3.3571,-3.4334,-3.3985,-3.2969,-3.1461,0.0,0.0,0.0,0.0,0.0,0.0,0.0,0.0,0.0,0.0,0.0,0.0,0.0,0.0,0.0,0.0,0.0,0.0,0.0,0.0,0.0,0.0,0.0,0.0,0.0,0.0,0.0,0.0,-2.2243,-2.2357,-2.1618,0.0,0.0,0.0,0.0,0.0,0.0,0.0,0.0,0.0,0.0,-3.2994,-3.4239,-3.4421,0.0,0.0,-3.5761,-3.6237,-3.5025,-3.569,-3.4924,-3.0871,-2.9135,0.0,0.0,0.0,0.0,0.0,0.0,0.0,0.0,0.0,0.0,0.0,0.0,0.0,0.0,0.0,0.0,0.0,0.0,0.0,0.0,0.0,0.0,0.0,0.0,0.0,0.0,0.0,0.0,0.0,0.0,0.0,0.0,0.0,0.0,0.0,0.0,0.0,0.0,0.0,0.0,0.0,0.0,0.0,0.0,0.0,0.0,0.0,0.0,0.0,0.0,0.0,0.0,-2.4717,-2.5434,-2.9548,-3.1383,-3.0702,-3.3869,-3.5106,-3.4263,-3.4143,-3.2917,0.0,0.0,0.0,0.0,0.0,0.0,0.0,0.0,0.0,0.0,0.0,0.0,0.0,0.0,0.0,0.0,0.0,0.0,0.0,0.0,0.0,0.0,0.0,0.0,0.0,0.0,0.0,0.0,0.0,0.0,0.0,0.0,0.0,0.0,0.0,0.0,0.0,0.0,0.0,0.0,0.0,-3.189,-3.181,-3.181,-3.2448,0.0,-3.3902,-3.3945,-3.5099,-3.721,-3.6565,-3.0065,0.0,0.0,0.0,0.0,0.0,0.0,0.0,0.0,0.0,0.0,0.0,0.0,0.0,0.0,0.0,0.0,0.0,0.0,0.0,0.0,0.0,0.0,0.0,0.0,0.0,0.0,0.0,0.0,0.0,0.0,0.0,0.0,0.0,0.0,0.0,0.0,0.0,0.0,0.0,0.0,0.0,0.0,0.0,0.0,0.0,0.0,0.0,0.0,0.0,0.0,0.0,0.0,0.0,0.0,-2.7904,-3.1635,-3.3388,-3.3315,-3.4393,-3.4879,-3.4628,-3.2736,0.0,0.0,0.0,0.0,0.0,0.0,0.0,0.0,0.0,0.0,0.0,0.0,0.0,0.0,0.0,0.0,0.0,0.0,0.0,0.0,0.0,0.0,0.0,0.0,0.0,0.0,0.0,-1.8403,0.0,0.0,0.0,0.0,0.0,0.0,0.0,0.0,0.0,0.0,0.0,0.0,0.0,0.0,-3.1809,-3.0825,-3.1507,-3.2111,0.0,0.0,-3.4504,-3.4271,-3.5086,-3.4695,0.0,0.0,0.0,0.0,0.0,0.0,0.0,0.0,0.0,0.0,0.0,0.0,0.0,0.0,0.0,0.0,0.0,0.0,0.0,0.0,0.0,0.0,0.0,0.0,0.0,0.0,0.0,0.0,0.0,0.0,0.0,0.0,0.0,0.0,0.0,0.0,0.0,0.0,0.0,0.0,0.0,0.0,0.0,0.0,0.0,0.0,0.0,0.0,0.0,0.0,0.0,0.0,0.0,0.0,-2.7553,-2.83,-3.1885,-3.3584,-3.3178,-3.4676,-3.5372,-3.4939,-3.3057,-3.1551,0.0,0.0,0.0,0.0,0.0,0.0,0.0,0.0,0.0,0.0,0.0,0.0,0.0,0.0,0.0,0.0,0.0,0.0,0.0,0.0,0.0,0.0,0.0,0.0,0.0,0.0,0.0,0.0,0.0,0.0,0.0,0.0,0.0,0.0,0.0,0.0,0.0,0.0,0.0,0.0,0.0,0.0,-3.008,-3.001,0.0,0.0,0.0,-3.2653,-3.1819,0.0,0.0,0.0,0.0,0.0,0.0,0.0,0.0,0.0,0.0,0.0,0.0,0.0,0.0,0.0,0.0,0.0,0.0,0.0,0.0,0.0,0.0,0.0,0.0,0.0,0.0,0.0,0.0,0.0,0.0,0.0,0.0,0.0,0.0,0.0,0.0,0.0,0.0,0.0,0.0,0.0,0.0,0.0,0.0,0.0,0.0,0.0,0.0,0.0,0.0,0.0,0.0,0.0,0.0,0.0,0.0,0.0,-2.7501,-3.1305,-3.2806,-3.2079,-3.4927,-3.626,-3.556,-3.4658,-3.3191,0.0,0.0,0.0,0.0,0.0,0.0,0.0,0.0,0.0,0.0,0.0,0.0,0.0,0.0,0.0,0.0,0.0,0.0,0.0,0.0,0.0,0.0,0.0,0.0,0.0,0.0,0.0,0.0,0.0,0.0,0.0,0.0,0.0,0.0,0.0,0.0,0.0,0.0,0.0,0.0,0.0,-2.6481,-2.9277,-2.8047,-2.7215,0.0,0.0,-2.9802,-2.8822,-3.0524,0.0,0.0,0.0,0.0,0.0,0.0,0.0,0.0,0.0,0.0,0.0,0.0,0.0,0.0,0.0,0.0,0.0,0.0,0.0,0.0,0.0,0.0,0.0,0.0,0.0,0.0,0.0,0.0,0.0,0.0,0.0,0.0,0.0,0.0,0.0,0.0,0.0,0.0,0.0,0.0,0.0,0.0,0.0,0.0,0.0,0.0,0.0,0.0,0.0,0.0,0.0,0.0,0.0,0.0,0.0,0.0,-2.7487,-3.1317,-3.3296,-3.3188,-3.5552,-3.7124,-3.7733,-3.6828,-3.5341,0.0,0.0,0.0,0.0,0.0,0.0,0.0,0.0,0.0,0.0,0.0,0.0,0.0,0.0,0.0,0.0,0.0,0.0,0.0,0.0,0.0,0.0,0.0,0.0,0.0,0.0,0.0,0.0,0.0,0.0,0.0,0.0,0.0,0.0,0.0,0.0,0.0,0.0,0.0,0.0,0.0,-2.6828,-2.76,-2.7486,0.0,0.0,0.0,0.0,-2.8106,-2.8848,0.0,0.0,0.0,0.0,0.0,0.0,0.0,0.0,0.0,0.0,0.0,0.0,0.0,0.0,0.0,0.0,0.0,0.0,0.0,0.0,0.0,0.0,0.0,0.0,0.0,0.0,0.0,0.0,0.0,0.0,0.0,0.0,0.0,0.0,0.0,0.0,0.0,0.0,0.0,0.0,0.0,0.0,0.0,0.0,0.0,0.0,0.0,0.0,0.0,0.0,0.0,0.0,0.0,0.0,0.0,0.0,-2.7413,-3.1068,-3.336,-3.4108,-3.642,-3.7965,-3.8434,-3.7959,-3.628,0.0,0.0,0.0,0.0,0.0,0.0,0.0,0.0,0.0,0.0,0.0,0.0,0.0,0.0,0.0,0.0,0.0,0.0,0.0,0.0,0.0,0.0,0.0,0.0,0.0,0.0,0.0,0.0,0.0,0.0,0.0,0.0,0.0,0.0,0.0,0.0,0.0,0.0,0.0,0.0,-2.4517,-2.5301,-2.6065,0.0,0.0,0.0,0.0,0.0,0.0,-2.5062,-2.4651,0.0,0.0,0.0,0.0,0.0,0.0,0.0,0.0,0.0,0.0,0.0,0.0,0.0,0.0,0.0,0.0,0.0,0.0,0.0,0.0,0.0,0.0,0.0,0.0,0.0,0.0,0.0,0.0,0.0,0.0,0.0,0.0,0.0,0.0,0.0,0.0,0.0,0.0,0.0,0.0,0.0,0.0,0.0,0.0,0.0,0.0,0.0,0.0,0.0,0.0,0.0,0.0,0.0,0.0,0.0,-2.6792,-3.0585,-3.3174,-3.4618,-3.7336,-3.8855,-3.8995,-3.8668,-3.6697,-3.3051,0.0,0.0,0.0,0.0,0.0,0.0,0.0,0.0,0.0,0.0,0.0,0.0,0.0,0.0,0.0,0.0,0.0,0.0,0.0,0.0,0.0,0.0,0.0,0.0,0.0,0.0,0.0,0.0,0.0,0.0,0.0,0.0,0.0,0.0,0.0,0.0,0.0,0.0,0.0,-2.2128,-2.3322,0.0,0.0,0.0,0.0,0.0,0.0,0.0,0.0,-2.1445,0.0,0.0,0.0,0.0,0.0,0.0,0.0,0.0,0.0,0.0,0.0,0.0,0.0,0.0,0.0,0.0,0.0,0.0,0.0,0.0,0.0,0.0,0.0,0.0,0.0,0.0,0.0,0.0,0.0,0.0,0.0,0.0,0.0,0.0,0.0,0.0,0.0,0.0,0.0,0.0,0.0,0.0,0.0,0.0,0.0,0.0,0.0,0.0,0.0,0.0,0.0,0.0,0.0,0.0,0.0,0.0,-3.0042,-3.2962,-3.4051,-3.7763,-4.0259,-4.1045,-3.9409,-3.7352,-3.4967,0.0,0.0,0.0,0.0,0.0,0.0,0.0,0.0,0.0,0.0,0.0,0.0,0.0,0.0,0.0,0.0,0.0,0.0,0.0,0.0,0.0,0.0,0.0,0.0,0.0,0.0,0.0,0.0,0.0,0.0,0.0,0.0,0.0,0.0,0.0,0.0,0.0,0.0,-1.9933,-2.0854,0.0,0.0,0.0,0.0,0.0,0.0,0.0,0.0,-2.2527,0.0,0.0,0.0,0.0,0.0,0.0,0.0,0.0,0.0,0.0,0.0,0.0,0.0,0.0,0.0,0.0,0.0,0.0,0.0,0.0,0.0,0.0,0.0,0.0,0.0,0.0,0.0,0.0,0.0,0.0,0.0,0.0,0.0,0.0,0.0,0.0,0.0,0.0,0.0,0.0,0.0,0.0,0.0,0.0,0.0,0.0,0.0,0.0,0.0,0.0,0.0,0.0,0.0,0.0,0.0,0.0,0.0,0.0,-3.3106,-3.4456,-3.8673,-4.1091,-4.1512,-3.9035,-3.6931,0.0,0.0,0.0,0.0,0.0,0.0,0.0,0.0,0.0,0.0,0.0,0.0,0.0,0.0,0.0,0.0,0.0,0.0,0.0,0.0,0.0,0.0,0.0,0.0,0.0,0.0,0.0,0.0,0.0,0.0,0.0,0.0,0.0,0.0,0.0,0.0,0.0,0.0,0.0,0.0,0.0,0.0,0.0,0.0,0.0,0.0,0.0,0.0,0.0,0.0,0.0,0.0,0.0,0.0,0.0,0.0,0.0,0.0,0.0,0.0,0.0,0.0,0.0,0.0,0.0,0.0,0.0,0.0,0.0,0.0,0.0,0.0,0.0,0.0,0.0,0.0,0.0,0.0,0.0,0.0,0.0,0.0,0.0,0.0,0.0,0.0,0.0,0.0,0.0,0.0,0.0,0.0,0.0,0.0,0.0,0.0,0.0,0.0,0.0,0.0,0.0,0.0,0.0,0.0,0.0,0.0,0.0,0.0,-3.3183,-3.4799,-3.9159,-4.164,-4.1933,-3.8474,-3.6046,0.0,0.0,0.0,0.0,0.0,0.0,0.0,0.0,0.0,0.0,0.0,0.0,0.0,0.0,0.0,0.0,0.0,0.0,0.0,0.0,0.0,0.0,0.0,0.0,0.0,0.0,0.0,0.0,0.0,0.0,0.0,0.0,0.0,0.0,0.0,0.0,0.0,0.0,0.0,0.0,0.0,0.0,0.0,0.0,0.0,0.0,0.0,0.0,-2.0133,0.0,0.0,0.0,0.0,0.0,0.0,0.0,0.0,0.0,0.0,0.0,0.0,0.0,0.0,0.0,0.0,0.0,0.0,0.0,0.0,0.0,0.0,0.0,0.0,0.0,0.0,0.0,0.0,0.0,0.0,0.0,0.0,0.0,0.0,0.0,0.0,0.0,0.0,0.0,0.0,0.0,0.0,0.0,0.0,0.0,0.0,0.0,0.0,0.0,0.0,0.0,0.0,0.0,0.0,0.0,0.0,0.0,0.0,0.0,-3.2819,-3.4116,-3.867,-4.1661,-4.2761,-3.8146,-3.4737,0.0,0.0,0.0,0.0,0.0,0.0,0.0,0.0,0.0,0.0,0.0,0.0,0.0,0.0,0.0,0.0,0.0,0.0,0.0,0.0,0.0,0.0,0.0,0.0,0.0,0.0,0.0,0.0,0.0,0.0,0.0,0.0,0.0,0.0,0.0,0.0,0.0,0.0,0.0,0.0,0.0,0.0,0.0,0.0,0.0,0.0,0.0,0.0,0.0,0.0,0.0,0.0,0.0,0.0,0.0,0.0,0.0,0.0,0.0,0.0,0.0,0.0,0.0,0.0,0.0,0.0,0.0,0.0,0.0,0.0,0.0,0.0,0.0,0.0,0.0,0.0,0.0,0.0,0.0,0.0,0.0,0.0,0.0,0.0,0.0,0.0,0.0,0.0,0.0,0.0,0.0,0.0,0.0,0.0,0.0,0.0,0.0,0.0,0.0,0.0,0.0,0.0,0.0,0.0,0.0,0.0,0.0,0.0,-3.1183,-3.4008,-3.7188,-3.8775,-3.8607,-3.4924,-3.2292,0.0,0.0,0.0,0.0,0.0,0.0,0.0,0.0,0.0,0.0,0.0,0.0,0.0,0.0,0.0,0.0,0.0,0.0,0.0,0.0,0.0,0.0,0.0,0.0,0.0,0.0,0.0,0.0,0.0,0.0,0.0,0.0,0.0,0.0,0.0,0.0,0.0,0.0,0.0,0.0,0.0,0.0,0.0,0.0,0.0,0.0,0.0,0.0,0.0,0.0,0.0,0.0,0.0,0.0,0.0,0.0,0.0,0.0,0.0,0.0,0.0,0.0,0.0,0.0,0.0,0.0,0.0,0.0,0.0,0.0,0.0,0.0,0.0,0.0,0.0,0.0,0.0,0.0,0.0,0.0,0.0,0.0,0.0,0.0,0.0,0.0,0.0,0.0,0.0,0.0,0.0,0.0,0.0,0.0,0.0,0.0,0.0,0.0,0.0,0.0,0.0,0.0,0.0,0.0,0.0,0.0,0.0,0.0,0.0,-3.303,-3.4108,-3.4629,-3.4595,-3.2104,-3.0027,0.0,0.0,0.0,0.0,0.0,0.0,0.0,0.0,0.0,0.0,0.0,0.0,0.0,0.0,0.0,0.0,0.0,0.0,0.0,0.0,0.0,0.0,0.0,0.0,0.0,0.0,0.0,0.0,0.0,0.0,0.0,0.0,0.0,0.0,0.0,0.0,0.0,0.0,0.0,0.0,0.0,0.0,0.0,0.0,0.0,0.0,0.0,0.0,0.0,0.0,0.0,0.0,0.0,0.0,0.0,0.0,0.0,0.0,0.0,0.0,0.0,0.0,0.0,0.0,0.0,0.0,0.0,0.0,0.0,0.0,0.0,0.0,0.0,0.0,0.0,0.0,0.0,0.0,0.0,0.0,0.0,0.0,0.0,0.0,0.0,0.0,0.0,0.0,0.0,0.0,0.0,0.0,0.0,0.0,0.0,0.0,0.0,0.0,0.0,0.0,0.0,0.0,0.0,0.0,0.0,0.0,0.0,0.0,0.0,-3.0983,-2.8777,-2.9277,-3.2665,-3.0724,-2.8613,0.0,0.0,0.0,0.0,0.0,0.0,0.0,0.0,0.0,0.0,0.0,0.0,0.0,0.0,0.0,0.0,0.0,0.0,0.0,0.0,0.0,0.0,0.0,0.0,0.0,0.0,0.0,0.0,0.0,0.0,0.0,0.0,0.0,0.0,0.0,0.0,0.0,0.0,0.0,0.0,0.0,0.0,0.0,0.0,0.0,0.0,0.0,0.0,0.0,0.0,0.0,0.0,0.0,0.0,0.0,0.0,0.0,0.0,0.0,0.0,0.0,0.0,0.0,0.0,0.0,0.0,0.0,0.0,0.0,0.0,0.0,0.0,0.0,0.0,0.0,0.0,0.0,0.0,0.0,0.0,0.0,0.0,0.0,0.0,0.0,0.0,0.0,0.0,0.0,0.0,0.0,0.0,0.0,0.0,0.0,0.0,0.0,0.0,0.0,0.0,0.0,0.0,0.0,0.0,0.0,0.0,0.0,0.0,0.0,-2.8928,-2.731,-2.7355,-2.9568,-2.8555,-2.6721,-2.4139,0.0,0.0,0.0,0.0,0.0,0.0,0.0,0.0,0.0,0.0,0.0,0.0,0.0,0.0,0.0,0.0,0.0,0.0,0.0,0.0,0.0,0.0,0.0,0.0,0.0,0.0,0.0,0.0,0.0,0.0,0.0,0.0,0.0,0.0,0.0,0.0,0.0,0.0,0.0,0.0,0.0,0.0,0.0,0.0,0.0,0.0,0.0,0.0,0.0,0.0,0.0,0.0,0.0,0.0,0.0,0.0,0.0,0.0,0.0,0.0,0.0,0.0,0.0,0.0,0.0,0.0,0.0,0.0,0.0,0.0,0.0,0.0,0.0,0.0,0.0,0.0,0.0,0.0,0.0,0.0,0.0,0.0,0.0,0.0,0.0,0.0,0.0,0.0,0.0,0.0,0.0,0.0,0.0,0.0,0.0,0.0,0.0,0.0,0.0,0.0,0.0,0.0,0.0,0.0,0.0,0.0,0.0,0.0,-2.6788,-2.56,-2.5632,-2.7124,-2.6823,-2.5552,0.0,0.0,0.0,0.0,0.0,0.0,0.0,0.0,0.0,0.0,0.0,0.0,0.0,0.0,0.0,0.0,0.0,0.0,0.0,0.0,0.0,0.0,0.0,0.0,0.0,0.0,0.0,0.0,0.0,0.0,0.0,0.0,0.0,0.0,0.0,0.0,0.0,0.0,0.0,0.0,0.0,0.0,0.0,0.0,0.0,0.0,0.0,0.0,0.0,0.0,0.0,0.0,0.0,0.0,0.0,0.0,0.0,0.0,0.0,0.0,0.0,0.0,0.0,0.0,0.0,0.0,0.0,0.0,0.0,0.0,0.0,0.0,0.0,0.0,0.0,0.0,0.0,0.0,0.0,0.0,0.0,0.0,0.0,0.0,0.0,0.0,0.0,0.0,0.0,0.0,0.0,0.0,0.0,0.0,0.0,0.0,0.0,0.0,0.0,0.0,0.0,0.0,0.0,0.0,0.0,0.0,0.0,0.0,-2.2299,-2.4194,-2.3416,-2.4051,-2.5975,-2.5936,-2.5178,0.0,0.0,0.0,0.0,0.0,0.0,0.0,0.0,0.0,0.0,0.0,0.0,0.0,0.0,0.0,0.0,0.0,0.0,0.0,0.0,0.0,0.0,0.0,0.0,0.0,0.0,0.0,0.0,0.0,0.0,0.0,0.0,0.0,0.0,0.0,0.0,0.0,0.0,0.0,0.0,0.0,0.0,0.0,0.0,0.0,0.0,0.0,0.0,0.0,0.0,0.0,0.0,0.0,0.0,0.0,0.0,0.0,0.0,0.0,0.0,0.0,0.0,0.0,0.0,0.0,0.0,0.0,0.0,0.0,0.0,0.0,0.0,0.0,0.0,0.0,0.0,0.0,0.0,0.0,0.0,0.0,0.0,0.0,0.0,0.0,0.0,0.0,0.0,0.0,0.0,0.0,0.0,0.0,0.0,0.0,0.0,0.0,0.0,0.0,0.0,0.0,0.0,0.0,0.0,0.0,0.0,0.0,0.0,0.0,-2.197,0.0,-2.5814,-2.6654,-2.5834,-2.4308,0.0,0.0,0.0,0.0,0.0,0.0,0.0,0.0,0.0,0.0,0.0,0.0,0.0,0.0,0.0,0.0,0.0,0.0,0.0,0.0,0.0,0.0,0.0,0.0,0.0,0.0,0.0,0.0,0.0,0.0,0.0,0.0,0.0,0.0,0.0,0.0,0.0,0.0,0.0,0.0,0.0,0.0,0.0,0.0,0.0,0.0,0.0,0.0,0.0,0.0,0.0,0.0,0.0,0.0,0.0,0.0,0.0,0.0,0.0,0.0,0.0,0.0,0.0,0.0,0.0,0.0,0.0,0.0,0.0,0.0,0.0,0.0,0.0,0.0,0.0,0.0,0.0,0.0,0.0,0.0,0.0,0.0,0.0,0.0,0.0,0.0,0.0,0.0,0.0,0.0,0.0,0.0,0.0,0.0,0.0,0.0,0.0,0.0,0.0,0.0,0.0,0.0,0.0,0.0,0.0,0.0,0.0,0.0,0.0,-1.9908,-2.3123,-2.4968,-2.5141,-2.4938,-2.3496,0.0,0.0,0.0,0.0,0.0,0.0,0.0,0.0,0.0,0.0,0.0,0.0,0.0,0.0,0.0,0.0,0.0,0.0,0.0,0.0,0.0,0.0,0.0,0.0,0.0,0.0,0.0,0.0,0.0,0.0,0.0,0.0,0.0,0.0,0.0,0.0,0.0,0.0,0.0,0.0,0.0,0.0,0.0,0.0,0.0,0.0,0.0,0.0,0.0,0.0,0.0,0.0,0.0,0.0,0.0,0.0,0.0,0.0,0.0,0.0,0.0,0.0,0.0,0.0,0.0,0.0,0.0,0.0,0.0,0.0,0.0,0.0,0.0,0.0,0.0,0.0,0.0,0.0,0.0,0.0,0.0,0.0,0.0,0.0,0.0,0.0,0.0,0.0,0.0,0.0,0.0,0.0,0.0,0.0,0.0,0.0,0.0,0.0,0.0,0.0,0.0,0.0,0.0,0.0,0.0,0.0,0.0,0.0,0.0,-1.8141,-2.0456,-2.1793,-2.1989,-2.3302,-2.2729,0.0,0.0,0.0,0.0,0.0,0.0,0.0,0.0,0.0,0.0,0.0,0.0,0.0,0.0,0.0,0.0,0.0,0.0,0.0,0.0,0.0,0.0,0.0,0.0,0.0,0.0,0.0,0.0,0.0,0.0,0.0,0.0,0.0,0.0,0.0,0.0,0.0,0.0,0.0,0.0,0.0,0.0,0.0,0.0,0.0,0.0,0.0,0.0,0.0,0.0,0.0,0.0,0.0,0.0,0.0,0.0,0.0,0.0,0.0,0.0,0.0,0.0,0.0,0.0,0.0,0.0,0.0,0.0,0.0,0.0,0.0,0.0,0.0,0.0,0.0,0.0,0.0,0.0,0.0,0.0,0.0,0.0,0.0,0.0,0.0,0.0,0.0,0.0,0.0,0.0,0.0,0.0,0.0,0.0,0.0,0.0,0.0,0.0,0.0,0.0,0.0,0.0,0.0,0.0,0.0,0.0,0.0,0.0,0.0,0.0,-2.0633,-2.1528,-2.2469,-2.1854,-2.1129,-2.0504,0.0,0.0,0.0,0.0,0.0,0.0,0.0,0.0,0.0,0.0,0.0,0.0,0.0,0.0,0.0,0.0,0.0,0.0,0.0,0.0,0.0,0.0,0.0,0.0,0.0,0.0,0.0,0.0,0.0,0.0,0.0,0.0,0.0,0.0,0.0,0.0,0.0,0.0,0.0,0.0,0.0,0.0,0.0,0.0,0.0,0.0,0.0,0.0,0.0,0.0,0.0,0.0,0.0,0.0,0.0,0.0,0.0,0.0,0.0,0.0,0.0,0.0,0.0,0.0,0.0,0.0,0.0,0.0,0.0,0.0,0.0,0.0,0.0,0.0,0.0,0.0,0.0,0.0,0.0,0.0,0.0,0.0,0.0,0.0,0.0,0.0,0.0,0.0,0.0,0.0,0.0,0.0,0.0,0.0,0.0,0.0,0.0,0.0,0.0,0.0,0.0,0.0,0.0,0.0,0.0,0.0,0.0,0.0,0.0,0.0,-2.0746,-2.204,-2.1125,-1.9949,0.0,0.0,0.0,0.0,0.0,0.0,0.0,0.0,0.0,0.0,0.0,0.0,0.0,0.0,0.0,0.0,0.0,0.0,0.0,0.0,0.0,0.0,0.0,0.0,0.0,0.0,0.0,0.0,0.0,0.0,0.0,0.0,0.0,0.0,0.0,0.0,0.0,0.0,0.0,0.0,0.0,0.0,0.0,0.0,0.0,0.0,0.0,0.0,0.0,0.0,0.0,0.0,0.0,0.0,0.0,0.0,0.0,0.0,0.0,0.0,0.0,0.0,0.0,0.0,0.0,0.0,0.0,0.0,0.0,0.0,0.0,0.0,0.0,0.0,0.0,0.0,0.0,0.0,0.0,0.0,0.0,0.0,0.0,0.0,0.0,0.0,0.0,0.0,0.0,0.0,0.0,0.0,0.0,0.0,0.0,0.0,0.0,0.0,0.0,0.0,0.0,0.0,0.0,0.0,0.0,0.0,0.0,0.0,0.0,0.0,0.0,-1.9539,-2.0702,-2.0532,0.0,-1.6066,0.0,0.0,0.0,0.0,0.0,0.0,0.0,0.0,0.0,0.0,0.0,0.0,0.0,0.0,0.0,0.0,0.0,0.0,0.0,0.0,0.0,0.0,0.0,0.0,0.0,0.0,0.0,0.0,0.0,0.0,0.0,0.0,0.0,0.0,0.0,0.0,0.0,0.0,0.0,0.0,0.0,0.0,0.0,0.0,0.0,0.0,0.0,0.0,0.0,0.0,0.0,0.0,0.0,0.0,0.0,0.0,0.0,0.0,0.0,0.0,0.0,0.0,0.0,0.0,0.0,0.0,0.0,0.0,0.0,0.0,0.0,0.0,0.0,0.0,0.0,0.0,0.0,0.0,0.0,0.0,0.0,0.0,0.0,0.0,0.0,0.0,0.0,0.0,0.0,0.0,0.0,0.0,0.0,0.0,0.0,0.0,0.0,0.0,0.0,0.0,0.0,0.0,0.0,0.0,0.0,0.0,0.0,0.0,0.0,0.0,0.0,0.0,-1.8477,-1.756,-1.7714,0.0,0.0,0.0,0.0,0.0,0.0,0.0,0.0,0.0,0.0,0.0,0.0,0.0,0.0,0.0,0.0,0.0,0.0,0.0,0.0,0.0,0.0,0.0,0.0,0.0,0.0,0.0,0.0,0.0,0.0,0.0,0.0,0.0,0.0,0.0,0.0,0.0,0.0,0.0,0.0,0.0,0.0,0.0,0.0,0.0,0.0,0.0,0.0,0.0,0.0,0.0,0.0,0.0,0.0,0.0,0.0,0.0,0.0,0.0,0.0,0.0,0.0,0.0,0.0,0.0,0.0,0.0,0.0,0.0,0.0,0.0,0.0,0.0,0.0,0.0,0.0,0.0,0.0,0.0,0.0,0.0,0.0,0.0,0.0,0.0,0.0,0.0,0.0,0.0,0.0,0.0,0.0,0.0,0.0,0.0,0.0,0.0,0.0,0.0,0.0,0.0,0.0,0.0,0.0,0.0,0.0,0.0,0.0,0.0,0.0,-1.6438,-1.9403,-1.7503,-1.6653,-1.707,0.0,0.0,0.0,0.0,0.0,0.0,0.0,0.0,0.0,0.0,0.0,0.0,0.0,0.0,0.0,0.0,0.0,0.0,0.0,0.0,0.0,0.0,0.0,0.0,0.0,0.0,0.0,0.0,0.0,0.0,0.0,0.0,0.0,0.0,0.0,0.0,0.0,0.0,0.0,0.0,0.0,0.0,0.0,0.0,0.0,0.0,0.0,0.0,0.0,0.0,0.0,0.0,0.0,0.0,0.0,0.0,0.0,0.0,0.0,0.0,0.0,0.0,0.0,0.0,0.0,0.0,0.0,0.0,0.0,0.0,0.0,0.0,0.0,0.0,0.0,0.0,0.0,0.0,0.0,0.0,0.0,0.0,0.0,0.0,0.0,0.0,0.0,0.0,0.0,0.0,0.0,0.0,0.0,0.0,0.0,0.0,0.0,0.0,0.0,0.0,0.0,0.0,0.0,0.0,0.0,0.0,0.0,0.0,0.0,0.0,0.0,0.0,0.0,0.0,-1.5288,0.0,0.0,0.0,0.0,0.0,0.0,0.0,0.0,0.0,0.0,0.0,0.0,0.0,0.0,0.0,0.0,0.0,0.0,0.0,0.0,0.0,0.0,0.0,0.0,0.0,0.0,0.0,0.0,0.0,0.0,0.0,0.0,0.0,0.0,0.0,0.0,0.0,0.0,0.0,0.0,0.0,0.0,0.0,0.0,0.0,0.0,0.0,0.0,0.0,0.0,0.0,0.0,0.0,0.0,0.0,0.0,0.0,0.0,0.0,0.0,0.0,0.0,0.0,0.0,0.0,0.0,0.0,0.0,0.0,0.0,0.0,0.0,0.0,0.0,0.0,0.0,0.0,0.0,0.0,0.0,0.0,0.0,0.0,0.0,0.0,0.0,0.0,0.0,0.0,0.0,0.0,0.0,0.0,0.0,0.0,0.0,0.0,0.0,0.0,0.0,0.0,0.0,0.0,0.0,0.0,0.0,0.0,0.0,0.0,0.0,0.0,0.0,0.0,0.0,0.0,0.0,0.0,0.0,0.0,0.0,0.0,0.0,0.0,0.0,0.0,0.0,0.0,0.0,0.0,0.0,0.0,0.0,0.0,0.0,0.0,0.0,0.0,0.0,0.0,0.0,0.0,0.0,0.0,0.0,0.0,0.0,0.0,0.0,0.0,0.0,0.0,0.0,0.0,0.0,0.0,0.0,0.0,0.0,0.0,0.0,0.0,0.0,0.0,0.0,0.0,0.0,0.0,0.0,0.0,0.0,0.0,0.0,0.0,0.0,0.0,0.0,0.0,0.0,0.0,0.0,0.0,0.0,0.0,0.0,0.0,0.0,0.0,0.0,0.0,0.0,0.0,0.0,0.0,0.0,0.0,0.0,0.0,0.0,0.0,0.0,0.0,0.0,0.0,0.0,0.0,0.0,0.0,0.0,0.0,0.0,0.0,0.0,0.0,0.0,0.0,0.0,0.0,0.0,0.0,0.0,0.0,0.0,0.0,0.0,0.0,0.0,0.0,0.0,0.0,0.0,0.0,0.0,0.0,0.0,0.0,0.0,0.0,0.0,0.0,0.0,0.0,0.0,0.0,0.0,0.0,0.0,0.0,0.0,0.0,0.0,0.0,0.0,0.0,0.0,0.0,0.0,0.0,0.0,0.0,0.0,0.0,0.0,0.0,0.0,0.0,0.0,0.0,0.0,0.0,0.0,0.0,0.0,0.0,0.0,0.0,0.0,0.0,0.0,0.0,0.0,0.0,0.0,0.0,0.0,0.0,0.0,0.0,0.0,0.0,0.0,0.0,0.0,0.0,0.0,0.0,0.0,0.0,0.0,0.0,0.0,0.0,0.0,0.0,0.0,0.0,0.0,0.0,0.0,0.0,0.0,0.0,0.0,0.0,0.0,0.0,0.0,0.0,0.0,0.0,0.0,0.0,0.0,0.0,0.0,0.0,0.0,0.0,0.0,0.0,0.0,0.0,0.0,0.0,0.0,0.0,0.0,0.0,0.0,0.0,0.0,0.0,0.0,0.0,0.0,0.0,0.0,0.0,0.0,0.0,0.0,0.0,0.0,0.0,0.0,0.0,0.0,0.0,0.0,0.0,0.0,0.0,0.0,0.0,0.0,0.0,0.0,0.0,0.0,0.0,0.0,0.0,0.0,0.0,0.0,0.0,0.0,0.0,0.0,0.0,0.0,0.0,0.0,0.0,0.0,0.0,0.0,0.0,0.0,0.0,0.0,0.0,0.0,0.0,0.0,0.0,0.0,0.0,0.0,0.0,0.0,0.0,0.0,0.0,0.0,0.0,0.0,0.0,0.0,0.0,0.0,0.0,0.0,0.0,0.0,0.0,0.0,0.0,0.0,0.0,0.0,0.0,0.0,0.0,0.0,0.0,0.0,0.0,0.0,0.0,0.0,0.0,0.0,0.0,0.0,0.0,0.0,0.0,0.0,0.0,0.0,0.0,0.0,0.0,0.0,0.0,0.0,0.0,0.0,0.0,0.0,0.0,0.0,0.0,0.0,0.0,0.0,0.0,0.0,0.0,0.0,0.0,0.0,0.0,0.0,0.0,0.0,0.0,0.0,0.0,0.0,0.0,0.0,0.0,0.0,0.0,0.0,0.0,0.0,0.0,0.0,0.0,0.0,0.0,0.0,0.0,0.0,0.0,0.0,0.0,0.0,0.0,0.0,0.0,0.0,0.0,0.0,0.0,0.0,0.0,0.0,0.0,0.0,0.0,0.0,0.0,0.0,0.0,0.0,0.0,0.0,0.0,0.0,0.0,0.0,0.0,0.0,0.0,0.0,0.0,0.0,0.0,0.0,0.0,0.0,0.0,0.0,0.0,0.0,0.0,0.0,0.0,0.0,0.0,0.0,0.0,0.0,0.0,0.0,0.0,0.0,0.0,0.0,0.0,0.0,0.0,0.0,0.0,0.0,0.0,0.0,0.0,0.0,0.0,0.0,0.0,0.0,0.0,0.0,0.0,0.0,0.0,0.0,0.0,0.0,0.0,0.0,0.0,0.0,0.0,0.0,0.0,0.0,0.0,0.0,0.0,0.0,0.0,0.0,0.0,0.0,0.0,0.0,0.0,0.0,0.0,0.0,0.0,0.0,0.0,0.0,0.0,0.0,0.0,0.0,0.0,0.0,0.0,0.0,0.0,0.0,0.0,0.0,0.0,0.0,0.0,0.0,0.0,0.0,0.0,0.0,0.0,0.0,0.0,0.0,0.0,0.0,0.0,0.0,0.0,0.0,0.0,0.0,0.0,0.0,0.0,0.0,0.0,0.0,0.0,0.0,0.0,0.0,0.0,0.0,0.0,0.0,0.0,0.0,0.0,0.0,0.0,0.0,0.0,0.0,0.0,0.0,0.0,0.0,0.0,0.0,0.0,0.0,0.0,0.0,0.0,0.0,0.0,0.0,0.0,0.0,0.0,0.0,0.0,0.0,0.0,0.0,0.0,0.0,0.0,0.0,0.0,0.0,0.0,0.0,0.0,0.0,0.0,0.0,0.0,0.0,0.0,0.0,0.0,0.0,0.0,0.0,0.0,0.0,0.0,0.0,0.0,0.0,0.0,0.0,0.0,0.0,0.0,0.0,0.0,0.0,0.0,0.0,0.0,0.0,0.0,0.0,0.0,0.0,0.0,0.0,0.0,0.0,0.0,0.0,0.0,0.0,0.0,0.0,0.0,0.0,0.0,0.0,0.0,0.0,0.0,0.0,0.0,0.0,0.0,0.0,0.0,0.0,0.0,0.0,0.0,0.0,0.0,0.0,0.0,0.0,0.0,0.0,0.0,0.0,0.0,0.0,0.0,0.0,0.0,0.0,0.0,0.0,0.0,0.0,0.0,0.0,0.0,0.0,0.0,0.0,0.0,0.0,0.0,0.0,0.0,0.0,0.0,0.0,0.0,0.0,0.0,0.0,0.0,0.0,0.0,0.0,0.0,0.0,0.0,0.0,0.0,0.0,0.0,0.0,0.0,0.0,0.0,0.0,0.0,0.0,0.0,0.0,0.0,0.0,0.0,0.0,0.0,0.0,0.0,0.0,0.0,0.0,0.0,0.0,0.0,0.0,0.0,0.0,0.0,0.0,0.0,0.0,0.0,0.0,0.0,0.0,0.0,0.0,0.0,0.0,0.0,0.0,0.0,0.0,0.0,0.0,0.0,0.0,0.0,0.0,0.0,0.0,0.0,0.0,0.0,0.0,0.0,0.0,0.0,0.0,0.0,0.0,0.0,0.0,0.0,0.0,0.0,0.0,0.0,0.0,0.0,0.0,0.0,0.0,0.0,0.0,0.0,0.0,0.0,0.0,0.0,0.0,0.0,0.0,0.0,0.0,0.0,0.0,0.0,0.0,0.0,0.0,0.0,0.0,0.0,0.0,0.0,0.0,0.0,0.0,0.0,0.0,0.0,0.0,0.0,0.0,0.0,0.0,0.0,0.0,0.0,0.0,0.0,0.0,0.0,0.0,0.0,0.0,0.0,0.0,0.0,0.0,0.0,0.0,0.0,0.0,0.0,0.0,0.0,0.0,0.0,0.0,0.0,0.0,0.0,0.0,0.0,0.0,0.0,0.0,0.0,0.0,0.0,0.0,0.0,0.0,0.0,0.0,0.0,0.0,0.0,0.0,0.0,0.0,0.0,0.0,0.0,0.0,0.0,0.0,0.0,0.0,0.0,0.0,0.0,0.0,0.0,0.0,0.0,0.0,0.0,0.0,0.0,0.0,0.0,0.0,0.0,0.0,0.0,0.0,0.0,0.0,0.0,0.0,0.0,0.0,0.0,0.0,0.0,0.0,0.0,0.0,0.0,0.0,0.0,0.0,0.0,0.0,0.0,0.0,0.0,0.0,0.0,0.0,0.0,0.0,0.0,0.0]}],[{"header":{"parameterUnit":"kt","parameterCategory":2,"dx":1,"dy":1,"la1":29.587661999999998,"la2":31.0,"lo1":-88.76705300000003,"lo2":-86.6583820000003,"nx":115,"ny":88,"refTime":"2022-09-22T18:00:00:Z","depth":0,"parameterNumber":2,"parameterNumberName":"V-component_of_WINDS"},"data":[7.8756,7.8756,7.8756,7.9489,8.076,8.1582,8.3377,8.6144,8.8255,9.0257,9.265,9.5285,9.7192,9.8557,9.8557,9.8575,9.8612,9.8666,9.8609,9.8591,9.8626,9.8609,9.8609,9.8644,9.8661,9.8746,9.8844,9.8967,9.8935,9.8907,9.8938,9.8938,9.8938,9.8938,9.8938,9.9163,9.978,10.1434,10.318,10.4818,10.6472,10.7826,10.8653,10.8862,10.8862,10.9914,11.1343,11.3014,11.4668,11.6305,11.7753,11.8392,11.8578,11.8595,11.8515,11.8453,11.8465,11.8401,11.839,11.852,11.8667,11.8852,11.9276,11.9563,11.9751,11.9894,11.9911,11.993,11.9951,11.9961,11.9971,11.9971,11.9895,11.8984,11.8301,11.701,11.5036,11.253,11.0356,10.9788,10.9633,10.9458,10.9343,10.9823,11.0921,11.2505,11.432,11.5825,11.6728,11.7729,11.8729,11.8804,11.8804,11.8804,11.8879,12.1586,12.3915,12.4716,12.5791,12.7284,12.8191,12.8119,12.8094,12.8169,12.9291,13.0637,13.2282,13.3702,13.5572,13.7292,13.7591,13.7815,13.7815,13.7815,13.7815,7.8756,7.8756,7.8756,7.8906,7.9429,8.2106,8.4424,8.6443,8.9434,9.2425,9.521,9.7228,9.8216,9.8644,9.8753,9.8753,9.8753,9.8787,9.8787,9.8787,9.8821,9.8804,9.8787,9.8821,9.8838,9.8903,9.8891,9.8907,9.8982,9.8922,9.8938,9.8938,9.8938,9.8938,9.8938,9.9088,9.978,10.1434,10.318,10.4818,10.6322,10.7976,10.8352,10.8636,10.9012,10.9764,11.1285,11.3014,11.4668,11.6229,11.7733,11.8391,11.8655,11.8598,11.8615,11.8575,11.8515,11.8453,11.8494,11.8635,11.8792,11.9052,11.9332,11.9664,11.9857,11.9907,11.9923,11.9943,11.9959,11.9971,11.9971,11.9971,11.9971,11.9592,11.9212,11.8453,11.5871,11.3213,11.1415,10.9788,10.9569,10.9291,10.918,10.9009,11.0046,11.141,11.3014,11.4593,11.6097,11.715,11.8353,11.8804,11.8804,11.8786,11.8861,12.1078,12.361,12.4558,12.5875,12.7215,12.7994,12.767,12.7571,12.787,12.8692,12.9964,13.1534,13.3254,13.5348,13.7292,13.7591,13.7815,13.7815,13.7815,13.7815,7.8756,7.8756,7.8756,7.9264,8.0311,8.1732,8.3826,8.6443,8.9716,9.3077,9.6084,9.7784,9.8661,9.877,9.8787,9.877,9.8787,9.8871,9.8871,9.8871,9.8946,9.8887,9.8887,9.8871,9.8978,9.8919,9.8982,9.8938,9.8938,9.8938,9.8938,9.8938,9.8938,9.8938,9.8938,9.9088,9.978,10.145,10.3164,10.369,10.3465,10.5796,10.7149,10.7149,10.7525,10.8427,11.0082,11.2187,11.3766,11.5195,11.7526,11.8503,11.8786,11.8749,11.8636,11.8578,11.8578,11.8559,11.8707,11.8823,11.9117,11.9339,11.9641,11.9751,11.9915,11.993,11.9943,11.9953,11.9967,11.9971,11.9971,11.9971,11.9971,11.9971,11.9592,11.8832,11.6605,11.389,11.168,11.0092,10.9358,10.9111,10.9024,10.8928,10.9137,11.0608,11.2713,11.4443,11.5571,11.6623,11.7977,11.8804,11.8804,11.8786,11.9124,12.0851,12.3153,12.4772,12.616,12.7266,12.8068,12.7446,12.6973,12.7272,12.7945,12.9216,13.0786,13.2581,13.46,13.6843,13.7441,13.7815,13.7815,13.7815,13.774,7.8756,7.8756,7.913,8.0311,8.1807,8.2255,8.4125,8.7,8.9992,9.2846,9.5604,9.7287,9.8296,9.8704,9.8854,9.8795,9.8871,9.8919,9.8935,9.8935,9.8935,9.8935,9.8935,9.8935,9.8935,9.8951,9.8982,9.8938,9.8938,9.8938,9.8938,9.8938,9.8938,9.8938,9.8938,9.8938,9.9389,10.0532,10.2036,10.2562,10.2428,10.4141,10.557,10.542,10.557,10.6623,10.7976,11.0457,11.2563,11.4067,11.6849,11.8428,11.8804,11.8804,11.8692,11.8655,11.8747,11.8777,11.8914,11.9117,11.9329,11.9573,11.9727,11.9843,11.9943,11.9951,11.9959,11.9966,11.9969,11.9971,11.9971,11.9971,11.9971,11.9971,11.9895,11.8605,11.7331,11.4548,11.1755,11.034,10.919,10.8901,10.8928,10.8878,10.8862,11.0082,11.2112,11.3766,11.4743,11.6097,11.7375,11.8653,11.8729,11.8974,11.9499,12.0847,12.2769,12.4385,12.6241,12.7293,12.8119,12.7646,12.7122,12.7122,12.6973,12.8244,12.9665,13.1684,13.3927,13.6095,13.7142,13.7666,13.7815,13.6694,13.6918,7.8756,7.898,8.0386,8.1956,8.3676,8.4947,8.6642,8.8745,9.0376,9.2314,9.4137,9.5868,9.7508,9.8441,9.8891,9.8891,9.8891,9.8907,9.8982,9.8922,9.8922,9.8922,9.8922,9.8938,9.8982,9.8922,9.8938,9.8938,9.8938,9.8938,9.8938,9.8938,9.8938,9.8938,9.8938,9.8938,9.9163,9.9855,10.0758,10.1585,10.1901,10.2954,10.4141,10.3841,10.4292,10.4517,10.557,10.8202,11.1643,11.324,11.5495,11.8428,11.8729,11.8804,11.8822,11.88,11.8926,11.8989,11.9117,11.9358,11.9566,11.9641,11.976,11.9867,11.9957,11.9963,11.9966,11.9969,11.9971,11.9971,11.9971,11.9971,11.9971,11.9971,11.982,11.906,11.7527,11.5284,11.2783,11.1052,10.9911,10.8853,10.8862,10.8862,10.8862,10.9254,11.0758,11.2488,11.3841,11.5345,11.6924,11.8578,11.8598,11.8748,11.9515,12.0765,12.2533,12.4369,12.6395,12.7595,12.8044,12.7795,12.7346,12.615,12.5103,12.6599,12.8393,13.0936,13.3104,13.4974,13.617,13.7217,13.6768,13.5273,13.5348,8.1822,8.1882,8.2555,8.3153,8.3975,8.5471,8.7182,8.891,9.0607,9.1646,9.2715,9.5254,9.6893,9.766,9.8487,9.8938,9.8938,9.8938,9.8938,9.8938,9.8938,9.8938,9.8938,9.8938,9.8938,9.8938,9.8938,9.8938,9.8938,9.8938,9.8938,9.8938,9.8938,9.8938,9.8938,9.8938,9.8938,9.9239,9.9539,9.9855,10.0532,10.1434,10.1434,10.151,10.3314,10.3089,10.3239,10.7299,11.014,11.1944,11.4969,11.7601,11.8653,11.8747,11.8765,11.8898,11.9088,11.9229,11.9443,11.9688,11.9751,11.9791,11.9881,11.9966,11.9968,11.9971,11.9971,11.9971,11.9971,11.9971,11.9971,11.9971,11.9971,11.9971,11.9668,11.9364,11.771,11.585,11.3971,11.1976,11.0513,10.9288,10.8862,10.8862,10.8937,10.9254,11.0232,11.1736,11.3164,11.4593,11.6097,11.7977,11.8335,11.8615,11.981,12.0981,12.2295,12.3926,12.6174,12.767,12.7894,12.7571,12.6449,12.5103,12.3608,12.4654,12.615,12.9066,13.1534,13.2805,13.4002,13.4749,13.46,13.3927,13.46,8.3862,8.3842,8.4311,8.452,8.4681,8.6291,8.7686,8.8961,9.0072,9.1048,9.1573,9.4067,9.56,9.6592,9.7735,9.8487,9.8787,9.8938,9.8953,9.8938,9.8938,9.8938,9.8938,9.8938,9.8938,9.8938,9.8938,9.8938,9.8938,9.8938,9.8938,9.8938,9.8938,9.8938,9.8938,9.8938,9.8938,9.9013,9.9088,9.9163,9.9539,10.0156,9.9931,9.9931,10.1284,10.1886,10.2562,10.6021,10.8653,11.1042,11.4367,11.6172,11.7676,11.7844,11.8209,11.8442,11.9148,11.9433,11.9717,11.9771,11.9799,11.9892,11.9894,11.9971,11.9971,11.9971,11.9971,11.9971,11.9971,11.9971,11.9971,11.9895,11.9895,11.9895,11.9744,11.9017,11.7455,11.5635,11.3752,11.1872,11.0089,10.9012,10.8862,10.8862,10.8937,10.9179,10.9931,11.1209,11.2488,11.3616,11.5119,11.7207,11.796,11.85,11.9599,12.1141,12.2228,12.3482,12.6099,12.8019,12.7795,12.7047,12.5701,12.4281,12.2635,12.3009,12.4206,12.63,12.8842,13.0263,13.1758,13.2282,13.2955,13.3628,13.4375,8.4165,8.407,8.5672,8.6319,8.6379,8.8042,8.8943,8.9041,8.9183,8.9977,9.1148,9.1663,9.3478,9.5916,9.6637,9.7522,9.8515,9.8923,9.8998,9.8983,9.8953,9.8938,9.8938,9.8938,9.8938,9.8938,9.8938,9.8938,9.8938,9.8938,9.8938,9.8938,9.8938,9.8938,9.8968,9.8983,9.8998,9.8953,9.8938,9.8938,9.8938,9.9254,9.9163,9.9239,9.969,10.0532,10.2562,10.4818,10.7224,11.0533,11.3691,11.4668,11.5438,11.5739,11.6333,11.7328,11.8922,11.9384,11.9771,11.9887,11.9895,11.9895,11.9971,11.9971,11.9971,11.9971,11.9971,11.9971,11.9971,11.9971,11.9971,11.9895,11.9895,11.9791,11.9755,11.8778,11.7287,11.5409,11.3591,11.2051,11.0265,10.9087,10.8862,10.8862,10.8862,10.9087,10.9405,11.0683,11.1811,11.2939,11.4743,11.6738,11.7752,11.8365,11.976,12.1352,12.2383,12.3084,12.5701,12.7571,12.7272,12.6673,12.5178,12.3608,12.1813,12.1238,12.2112,12.3832,12.6225,12.7945,12.9515,13.0337,13.1609,13.2581,13.4525,8.7449,8.7451,8.8062,8.8264,8.8304,8.8894,8.9228,8.9174,8.9282,8.9498,9.0196,9.1331,9.2571,9.3876,9.5666,9.7349,9.7706,9.8652,9.9157,9.9207,9.9056,9.9013,9.8983,9.8938,9.8983,9.8938,9.8938,9.8938,9.8938,9.8938,9.8938,9.8938,9.8938,9.8938,9.9013,9.9099,9.9154,9.8998,9.9027,9.9013,9.8998,9.8968,9.8953,9.8968,9.9239,10.0231,10.2562,10.4818,10.7074,11.1209,11.3916,11.527,11.7012,11.7807,11.8173,11.8373,11.9209,11.9536,11.982,11.9895,11.9895,11.9971,11.9971,11.9971,11.9971,11.9971,11.9971,11.9971,11.9971,11.9971,11.9971,11.9971,11.9895,11.9744,11.9612,11.9367,11.7794,11.5324,11.3492,11.2572,11.1134,10.9706,10.8862,10.8862,10.8862,10.8862,10.8862,11.0065,11.1267,11.2846,11.4575,11.6232,11.7394,11.8174,11.9418,12.1307,12.2435,12.2935,12.4729,12.6673,12.6449,12.5552,12.4355,12.3009,12.1439,12.034,12.064,12.1439,12.3682,12.5627,12.7571,12.9141,13.0263,13.2431,13.4974,8.9392,8.9194,8.9338,8.9401,8.9458,8.9534,8.9458,8.9526,8.9502,8.945,8.9649,9.0468,9.1259,9.2645,9.4773,9.6395,9.7212,9.8523,9.9411,9.94,9.9291,9.9183,9.9132,9.9132,9.9127,9.9085,9.8968,9.8938,9.8968,9.8938,9.8938,9.8938,9.8938,9.8938,9.9027,9.9207,9.9232,9.9065,9.9119,9.9157,9.9157,9.9092,9.9037,9.9113,9.8998,10.0607,10.3615,10.3841,10.6547,11.0683,11.2412,11.3776,11.5218,11.5671,11.6761,11.8307,11.7793,11.8495,11.9744,11.9971,11.9971,11.9971,11.9971,11.9971,11.9971,11.9971,11.9971,11.9971,11.9971,11.9971,11.9895,11.9895,11.9744,11.9668,11.9496,11.9201,11.7852,11.5364,11.339,11.2488,11.1059,10.948,10.8862,10.8862,10.8862,10.8862,10.8862,10.9764,11.044,11.2094,11.4182,11.5725,11.711,11.7908,11.93,12.1434,12.2785,12.3159,12.443,12.5851,12.5028,12.3981,12.2935,12.2112,12.0766,11.9592,11.9518,11.9869,12.1663,12.3981,12.6673,12.8692,13.0861,13.3329,13.5422,8.9653,8.9319,8.9557,8.9758,8.9905,8.9996,8.9989,8.9889,8.9741,8.9557,8.9383,8.9518,9.0534,9.2222,9.4055,9.5741,9.7169,9.8727,9.9531,9.9515,9.9458,9.9491,9.9431,9.9411,9.9303,9.9244,9.9157,9.9051,9.8981,9.9051,9.8967,9.8952,9.9024,9.9024,9.9027,9.9183,9.928,9.9303,9.9394,9.9413,9.9394,9.9358,9.9314,9.9343,9.9459,10.1264,10.3839,10.4593,10.6854,11.023,11.1721,11.2414,11.3437,11.3424,11.4842,11.7196,11.6175,11.7137,11.944,11.982,11.9971,11.9971,11.9971,11.9971,11.9971,11.9971,11.9971,11.9971,11.9971,11.9971,11.9895,11.982,11.9592,11.9436,11.9321,11.8786,11.7073,11.4987,11.3315,11.2037,11.0307,10.8862,10.8862,10.8862,10.8862,10.8862,10.8862,10.9087,10.9538,11.125,11.3602,11.5236,11.6694,11.7566,11.8881,12.1336,12.2935,12.3383,12.4056,12.4879,12.4505,12.2486,12.1439,12.099,11.9966,11.9046,11.8672,11.8373,12.0467,12.271,12.5552,12.8393,13.1758,13.4226,13.5796,8.9897,8.9774,8.9875,8.9905,9.0,9.0003,9.0003,8.9996,8.9897,8.9799,8.9799,8.9901,9.0755,9.2441,9.4155,9.5749,9.7268,9.879,9.9451,9.9648,9.9601,9.9531,9.9515,9.9483,9.9449,9.944,9.9375,9.9335,9.9314,9.9355,9.9272,9.9216,9.9272,9.9325,9.9325,9.9358,9.9195,9.9132,9.9256,9.939,9.945,9.947,9.9591,9.964,10.066,10.2651,10.4832,10.5954,10.8006,11.05,11.1948,11.2383,11.3546,11.479,11.6035,11.7095,11.7896,11.8829,11.9668,11.9971,11.9971,11.9971,11.9971,11.9971,11.9971,11.9971,11.9971,11.9971,11.9971,11.9971,11.9971,11.9788,11.9606,11.9348,11.9192,11.819,11.6461,11.4911,11.324,11.1343,11.0215,10.8862,10.8862,10.8862,10.8862,10.8862,10.8862,10.9012,10.9388,11.0932,11.3115,11.4598,11.6204,11.7299,11.8388,12.0288,12.2037,12.2411,12.2785,12.3682,12.3234,12.0616,11.9121,11.9592,11.942,11.8523,11.8224,11.8298,11.9719,12.1589,12.3907,12.6449,12.9789,13.3029,13.5048,9.0003,9.0003,9.0003,9.0003,9.0003,9.0003,9.0003,9.0003,9.0003,9.0009,8.9937,9.0035,9.0577,9.1949,9.3775,9.5673,9.6812,9.8711,9.9603,9.9737,9.9698,9.9688,9.9659,9.9653,9.9613,9.9601,9.9546,9.9531,9.9538,9.9491,9.9458,9.9515,9.9491,9.9588,9.9523,9.9413,9.9375,9.9325,9.9355,9.9422,9.9591,9.9993,10.0515,10.0667,10.2114,10.4386,10.6432,10.681,10.915,11.1027,11.117,11.1978,11.31,11.4005,11.543,11.7063,11.7916,11.8908,11.9668,11.9971,11.9971,11.9971,11.9971,11.9971,11.9971,11.9971,11.9971,11.9971,11.9971,11.9895,11.9811,11.9675,11.9558,11.9278,11.8586,11.7494,11.6109,11.4703,11.3014,11.0533,10.9388,10.8862,10.8862,10.8862,10.8862,10.8862,10.8862,10.9012,10.9596,11.084,11.2327,11.3884,11.5489,11.6807,11.8119,11.9592,12.099,12.1289,12.1364,12.2037,12.2262,11.9644,11.8298,11.8695,11.8845,11.8373,11.8149,11.8149,11.9121,12.0916,12.2935,12.5079,12.8094,13.1384,13.3179,9.0003,9.0003,9.0003,9.0003,9.0003,9.0003,9.0003,9.0003,9.0003,9.0003,9.0009,9.0031,9.0121,9.119,9.3623,9.5218,9.5522,9.8483,9.9622,9.9926,9.9926,9.985,9.984,9.9821,9.972,9.9709,9.9674,9.9619,9.9581,9.9637,9.9664,9.9709,9.9713,9.9659,9.9594,9.956,9.9498,9.9574,9.9574,9.9607,10.0016,10.1013,10.1805,10.2329,10.3763,10.5416,10.6849,10.7339,10.8641,10.993,11.0012,11.0726,11.185,11.2713,11.4482,11.6251,11.7466,11.8301,11.9212,11.9592,11.982,11.9971,11.9971,11.9971,11.9971,11.9971,11.9971,11.9971,11.9971,11.9895,11.9688,11.949,11.9348,11.9129,11.8733,11.7289,11.5473,11.4217,11.2488,10.9856,10.8862,10.8862,10.8862,10.8862,10.8862,10.8862,10.8862,10.8862,10.9596,11.0861,11.2196,11.3375,11.4998,11.6689,11.8097,11.9046,12.0168,12.064,12.0317,12.0542,12.1088,11.9943,11.8224,11.8523,11.8597,11.8373,11.8149,11.8373,11.8971,12.0467,12.2262,12.4505,12.7272,13.0113,13.1908,9.0003,9.0003,9.0003,9.0003,9.0003,9.0003,9.0003,9.0003,9.0003,9.0003,9.0009,9.0031,9.0729,9.2178,9.3926,9.5597,9.6963,9.9014,9.9774,9.9926,9.9926,9.9926,9.9926,9.9926,9.985,9.9845,9.9774,9.9774,9.9774,9.9774,9.9774,9.9845,9.985,9.9823,9.9701,9.9679,9.9648,9.9643,9.9659,9.9764,10.0168,10.1558,10.2255,10.3323,10.4997,10.6973,10.7502,10.8354,10.9113,10.9873,10.9873,11.0024,11.0784,11.1847,11.3593,11.5112,11.6479,11.739,11.8225,11.9136,11.982,11.9971,11.9971,11.9971,11.9971,11.9971,11.9971,11.9971,11.9971,11.9895,11.9679,11.9475,11.9267,11.9074,11.8786,11.6653,11.4761,11.3916,11.2337,11.0082,10.8862,10.8862,10.8862,10.8862,10.8862,10.8862,10.8862,10.8862,11.0013,11.1483,11.2514,11.322,11.5063,11.6997,11.7924,11.8523,11.9443,11.9892,11.9196,11.927,12.0041,11.942,11.8373,11.8149,11.8224,11.8224,11.8224,11.8523,11.8971,12.099,12.286,12.458,12.6524,12.8917,13.0936,9.0003,9.0003,9.0003,9.0003,9.0003,9.0003,9.0003,9.0003,9.0009,9.0012,9.0015,8.9959,9.0501,9.1646,9.4079,9.5521,9.6812,9.8862,9.985,9.9926,9.9926,9.9926,9.9926,9.9926,9.9926,9.9926,9.9926,9.9926,9.9926,9.9926,9.9926,9.9926,9.9926,9.985,9.9834,9.9754,9.9717,9.9688,9.9789,10.0119,10.11,10.248,10.3862,10.4697,10.7213,10.8354,10.8809,10.9645,10.9948,11.0024,11.0024,11.0024,11.0404,11.1543,11.2834,11.4049,11.4884,11.6023,11.7238,11.8225,11.9136,11.9592,11.9971,11.9971,11.9971,11.9971,11.9971,11.9971,11.9895,11.9778,11.9524,11.9367,11.9217,11.8748,11.81,11.6132,11.4518,11.3616,11.2262,11.0457,10.8862,10.8862,10.8862,10.8862,10.8862,10.8845,10.8828,10.8828,10.981,11.0939,11.1725,11.2784,11.4946,11.7027,11.7625,11.8224,11.9121,11.9121,11.8448,11.8672,11.9293,11.9293,11.8523,11.8149,11.8149,11.8224,11.8298,11.9121,12.0542,12.2112,12.3608,12.5402,12.7197,12.9216,12.9665,9.0003,9.0003,9.0003,9.0003,9.0003,9.0003,9.0003,9.0003,9.0015,9.0021,9.0018,9.0035,9.0045,9.0733,9.3167,9.4307,9.5673,9.7724,9.9318,9.9394,9.9698,9.9926,9.9926,9.9926,9.9926,9.9926,9.9926,9.9926,9.9926,9.9926,9.9926,9.9926,9.9926,9.9926,9.985,9.985,9.985,9.9823,10.0071,10.0908,10.225,10.4066,10.5663,10.7116,10.8734,10.9797,10.9797,10.9873,11.0024,11.0024,11.0024,11.0024,11.0252,11.1467,11.2075,11.2302,11.2758,11.3745,11.6023,11.7314,11.8225,11.906,11.982,11.9895,11.9971,11.9971,11.9971,11.9971,11.9872,11.9646,11.9428,11.9276,11.9064,11.8452,11.7637,11.5889,11.4142,11.3089,11.136,10.9538,10.8937,10.8862,10.8862,10.8862,10.8845,10.8886,10.8868,10.8851,10.9116,10.9363,10.9945,11.2056,11.4197,11.6227,11.7177,11.7999,11.8523,11.8448,11.8224,11.8298,11.8597,11.8597,11.8149,11.8224,11.8149,11.8224,11.8897,12.0243,12.2112,12.3383,12.4206,12.5851,12.772,12.8019,12.8393,9.0003,9.0003,9.0003,9.0003,9.0003,9.0003,9.0003,9.0003,9.0006,9.0009,9.0009,9.0031,8.9966,9.0197,9.0885,9.1951,9.3393,9.6584,9.8027,9.8407,9.9318,9.9926,9.9926,9.9926,9.9926,9.9926,9.9926,9.9926,9.9926,9.9926,9.9926,9.9926,9.9926,9.9926,9.9926,9.9926,9.9926,10.0304,10.114,10.1976,10.3113,10.5238,10.7213,10.7594,10.9113,11.0024,11.0024,11.0024,11.0024,11.0024,11.0024,11.0024,11.01,11.0328,11.048,11.0708,11.1847,11.2682,11.4201,11.5567,11.739,11.8149,11.9212,11.982,11.9971,11.9971,11.9971,11.9895,11.9791,11.9618,11.9367,11.9241,11.9034,11.8459,11.7225,11.5721,11.3916,11.2112,11.0365,10.9613,10.9087,10.8862,10.8862,10.8862,10.8793,10.8851,10.8834,10.8816,10.8726,10.8689,10.9251,11.1361,11.3299,11.5329,11.7177,11.7999,11.8149,11.8149,11.8149,11.8149,11.8149,11.8224,11.8373,11.8523,11.8523,11.9121,11.9869,12.0939,12.2262,12.3458,12.4654,12.6,12.7421,12.8019,12.8094,9.0003,9.0003,9.0003,9.0003,9.0003,9.0003,9.0003,9.0003,9.0009,9.0012,9.0018,9.0029,8.9963,8.9969,8.9972,9.0962,9.309,9.6053,9.7496,9.7951,9.909,9.9926,9.9926,9.9926,9.9926,9.985,9.9926,9.9926,9.9926,9.9926,9.9926,9.9926,9.9926,9.9926,9.9926,9.9926,9.9926,10.0305,10.1444,10.2431,10.2735,10.5696,10.7822,10.8582,10.9645,11.0024,11.0024,11.0024,11.0024,11.0024,11.0024,11.0024,11.0024,11.01,11.01,11.0176,11.0784,11.1619,11.291,11.4656,11.663,11.739,11.8984,11.982,11.9971,11.9971,11.9971,11.9895,11.9703,11.9444,11.9257,11.9046,11.8518,11.7637,11.6172,11.4443,11.2864,11.1134,10.9931,10.9029,10.8862,10.8862,10.8862,10.8828,10.8834,10.8798,10.8705,10.8707,10.8613,10.8594,10.8669,11.0592,11.2177,11.4731,11.7401,11.7924,11.8149,11.8149,11.8149,11.8149,11.8224,11.8298,11.8448,11.9121,11.9719,12.0243,12.099,12.1738,12.2411,12.3308,12.5178,12.6823,12.7646,12.8094,12.8094,9.0003,9.0003,9.0003,9.0003,9.0003,9.0003,9.0003,9.0003,9.0015,9.0021,9.0021,9.0024,8.9961,8.9971,8.9968,9.0733,9.2256,9.461,9.6357,9.6585,9.8407,9.9318,9.9394,9.9622,9.9698,9.9698,9.985,9.9926,9.9926,9.9926,9.9926,9.9926,9.9926,9.9926,9.9926,9.9926,10.0001,10.0837,10.2279,10.3418,10.4254,10.6607,10.8734,10.9645,10.9873,11.0024,11.0024,11.0024,11.0024,11.0024,11.0024,11.0024,11.0024,11.0024,11.0024,11.01,11.0252,11.0784,11.1999,11.3897,11.5643,11.701,11.8832,11.982,11.9971,11.9971,11.9895,11.9807,11.9641,11.9348,11.9141,11.8926,11.8106,11.6566,11.5119,11.339,11.1736,11.0215,10.9012,10.8862,10.8862,10.8862,10.8845,10.8886,10.8798,10.8744,10.8726,10.867,10.8555,10.8515,10.859,10.9728,11.1333,11.4432,11.7177,11.7326,11.8224,11.8224,11.8747,11.8747,11.8971,11.8747,11.927,12.0467,12.1215,12.1289,12.1962,12.286,12.3608,12.4206,12.6,12.7945,12.8094,12.8094,12.8094,9.0003,9.0003,9.0003,9.0003,9.0003,9.0003,9.0003,9.0003,9.0003,9.0006,9.0006,9.0021,9.0031,8.9966,8.9971,9.0053,9.0966,9.2636,9.3775,9.4231,9.666,9.7724,9.8179,9.8787,9.8938,9.8179,9.909,9.9698,9.9774,9.9926,9.9926,9.9926,9.9926,9.9926,9.9926,9.9926,10.0457,10.1824,10.3418,10.4861,10.6456,10.8278,10.9493,11.0024,11.0024,11.0024,11.0024,11.0024,11.0024,11.0024,11.0024,11.0024,11.0024,11.0024,11.0024,11.0024,11.0024,11.0328,11.1163,11.3138,11.5036,11.5415,11.8073,11.9668,11.9895,11.9895,11.9887,11.9778,11.9635,11.9487,11.9154,11.8711,11.7862,11.6398,11.4836,11.324,11.1585,10.9931,10.9012,10.8862,10.8862,10.8862,10.8845,10.8851,10.8762,10.8689,10.867,10.8538,10.8421,10.836,10.836,10.9238,11.1515,11.441,11.5457,11.5831,11.8074,11.8747,11.9719,12.0018,12.0415,12.0841,12.1738,12.2411,12.1962,12.1888,12.2262,12.3009,12.4056,12.5327,12.6524,12.772,12.8094,12.8094,12.8094,9.0003,9.0003,9.0003,8.9945,8.9961,9.0018,8.9945,8.9885,8.9942,9.0003,9.0003,9.0009,9.0021,8.9957,8.9963,8.9971,9.0204,9.0889,9.1649,9.3016,9.4914,9.6205,9.6509,9.6888,9.704,9.666,9.7875,9.8559,9.8938,9.9394,9.985,9.9926,9.9926,9.985,9.9926,9.9926,10.0761,10.2431,10.4102,10.5772,10.7443,10.9113,11.0024,11.0024,11.0024,11.0024,11.0024,11.0024,11.0024,11.0024,11.0024,11.0024,11.0024,11.0024,11.0024,11.0024,11.0024,11.0024,11.048,11.2226,11.4125,11.5036,11.7162,11.8681,11.9578,11.9799,11.9768,11.9606,11.9487,11.9321,11.8974,11.8256,11.6809,11.5287,11.354,11.1886,11.0382,10.9405,10.8862,10.8862,10.8862,10.8862,10.8811,10.8798,10.8707,10.867,10.8632,10.8441,10.8319,10.8319,10.8319,10.8993,11.1494,11.3213,11.3886,11.5606,11.785,11.9345,12.0691,12.1663,12.2262,12.3159,12.3907,12.2785,12.1663,12.1813,12.2187,12.2785,12.3608,12.5327,12.6748,12.7571,12.8094,12.8094,12.8094,8.9961,8.9961,8.9961,8.9899,8.9826,8.9897,8.9899,8.9825,8.9896,8.9968,8.9963,8.9963,8.9965,8.9965,8.9968,8.9968,9.0051,9.0128,9.0661,9.2181,9.3699,9.4307,9.4003,9.4458,9.4534,9.4914,9.6205,9.6964,9.742,9.8407,9.9394,9.9318,9.9166,9.9546,9.9698,9.9622,10.0381,10.2887,10.4254,10.6,10.7974,10.9493,11.0024,11.0024,11.0024,11.0024,11.0024,11.0024,11.0024,11.0024,11.0024,11.0024,11.0024,11.0024,10.9948,10.9948,10.9948,10.9948,11.0252,11.1543,11.3213,11.4884,11.6554,11.8055,11.9429,11.9641,11.9573,11.9339,11.9229,11.9107,11.8685,11.7318,11.5871,11.4292,11.2563,11.0816,10.933,10.8862,10.8862,10.8862,10.8862,10.8862,10.8862,10.878,10.8689,10.8632,10.846,10.8319,10.8299,10.8299,10.8299,10.8299,11.0596,11.2466,11.3587,11.5831,11.8149,11.9966,12.2112,12.3608,12.4355,12.5103,12.4281,12.3084,12.1663,12.1738,12.2112,12.271,12.3981,12.5627,12.7197,12.772,12.8094,12.8094,12.8094,8.9793,8.9793,8.9793,8.9788,8.9785,8.9791,8.9796,8.9785,8.9874,8.9879,8.9803,8.9796,8.9818,8.9825,8.9826,8.9903,8.9977,8.9978,9.0206,9.0814,9.1801,9.2181,9.1345,9.2256,9.2788,9.3016,9.4534,9.5218,9.5673,9.704,9.7724,9.7799,9.7799,9.8483,9.9242,9.8559,10.0457,10.3722,10.4861,10.638,10.9037,10.9797,11.0024,11.0024,11.0024,11.0024,11.0024,11.0024,11.0024,11.0024,11.0024,11.0024,11.0024,10.9844,10.9821,10.981,10.9687,10.9594,11.0029,11.1184,11.2853,11.4599,11.6268,11.782,11.8998,11.9403,11.9329,11.9154,11.919,11.8989,11.8575,11.745,11.5871,11.4067,11.2262,11.0666,10.9313,10.8862,10.8862,10.8862,10.8862,10.8862,10.8828,10.8798,10.8651,10.8632,10.8421,10.8319,10.8278,10.8278,10.8278,10.8353,10.9848,11.1643,11.3737,11.6055,11.8373,12.0841,12.3234,12.5028,12.5776,12.5327,12.4505,12.3159,12.114,12.0691,12.1663,12.3308,12.4654,12.615,12.7346,12.7795,12.8094,12.8094,12.8094,8.9851,8.9851,8.9851,8.9745,8.9704,8.9754,8.9745,8.9714,8.975,8.9851,8.9851,8.9851,8.9785,8.9801,8.9801,8.9801,8.9801,8.9819,8.9896,9.0042,9.0736,9.0662,9.0358,9.0586,9.1042,9.1269,9.2788,9.3471,9.3851,9.5294,9.6053,9.6129,9.6129,9.6964,9.8407,9.7951,10.0001,10.395,10.5013,10.6607,10.9721,11.0024,11.0024,11.0024,11.0024,11.0024,11.0024,11.0024,11.0024,10.9925,10.9814,10.9707,10.9626,10.9583,10.9633,10.9627,10.9501,10.9478,10.9696,11.0164,11.1832,11.4107,11.5092,11.6827,11.864,11.9253,11.9154,11.8958,11.897,11.8887,11.869,11.8202,11.6623,11.4142,11.151,10.963,10.9029,10.8862,10.8862,10.8862,10.8862,10.8862,10.8862,10.8705,10.8689,10.8613,10.8401,10.8319,10.8278,10.8278,10.8278,10.8673,10.9795,11.1344,11.3288,11.613,11.8597,12.1589,12.4056,12.5851,12.6,12.5327,12.3907,12.1888,12.0317,11.9719,12.1514,12.3234,12.4954,12.6524,12.7421,12.8094,12.8094,12.8094,12.8094,8.9704,8.9704,8.9698,8.9653,8.958,8.9659,8.9647,8.9572,8.9665,8.9682,8.9693,8.9704,8.9709,8.9741,8.9741,8.9732,8.9741,8.9703,8.9779,8.9765,8.9879,8.9889,8.9889,8.9979,8.9979,9.013,9.1269,9.1877,9.2029,9.3547,9.4383,9.4383,9.4458,9.5218,9.666,9.6812,9.9318,10.3039,10.395,10.5696,10.8126,10.8582,10.8885,10.9265,10.9341,10.9569,11.0024,11.0024,10.9797,10.9171,10.9213,10.9462,10.947,10.9419,10.9382,10.9363,10.9334,10.9314,10.9363,10.9458,11.1048,11.3914,11.452,11.5786,11.8701,11.9049,11.8776,11.8233,11.8127,11.7902,11.7526,11.73,11.6097,11.354,11.1285,10.9538,10.9012,10.8862,10.8862,10.8862,10.8862,10.8845,10.8811,10.8762,10.8651,10.8594,10.8401,10.8278,10.8278,10.8278,10.8278,10.8748,10.9271,11.0895,11.2914,11.598,11.9121,12.2037,12.4281,12.5851,12.5776,12.5178,12.3234,12.1013,11.9817,12.0018,12.1589,12.2986,12.5402,12.7496,12.8019,12.8094,12.8094,12.8094,12.8094,8.9384,8.945,8.9384,8.9243,8.9309,8.9319,8.9328,8.945,8.9479,8.9422,8.9489,8.9507,8.9502,8.9608,8.9621,8.9659,8.9723,8.9723,8.9623,8.9595,8.9606,8.9677,8.9677,8.975,8.9779,8.9864,9.0121,9.0282,9.0434,9.1877,9.2712,9.2636,9.2712,9.3547,9.4838,9.5218,9.6964,10.0381,10.19,10.3494,10.5393,10.5469,10.6076,10.7595,10.7671,10.8202,10.9265,10.9417,10.8778,10.7553,10.8469,10.9192,10.941,10.9347,10.922,10.9208,10.9039,10.9021,10.9245,10.922,11.0643,11.3512,11.4104,11.5414,11.7833,11.8308,11.8048,11.6716,11.6548,11.5947,11.4819,11.4593,11.3616,11.1944,11.0967,11.014,10.9087,10.8862,10.8862,10.8862,10.8862,10.8845,10.8834,10.8726,10.8632,10.848,10.836,10.8299,10.8278,10.8278,10.8278,10.8353,10.8502,10.9998,11.1643,11.4859,11.8822,12.1589,12.3907,12.5028,12.5327,12.4804,12.3458,12.1289,11.9794,12.0542,12.1589,12.2635,12.443,12.6898,12.8019,12.8019,12.8094,12.8094,12.8019,8.6389,8.6389,8.6389,8.6994,8.79,8.7975,8.8504,8.9345,8.942,8.942,8.942,8.942,8.947,8.9516,8.9534,8.9543,8.9569,8.9587,8.9542,8.9413,8.9476,8.9493,8.9485,8.9621,8.9682,8.9693,8.9723,8.9741,8.9745,9.0471,9.0792,9.0874,9.0888,9.1801,9.332,9.3539,9.5589,9.9318,10.0448,10.2108,10.4231,10.4839,10.5126,10.5539,10.5681,10.5985,10.6516,10.6592,10.6133,10.5712,10.6776,10.8134,10.894,10.8993,10.8994,10.8964,10.8885,10.8853,10.8964,10.9009,11.0033,11.2067,11.3347,11.4562,11.5473,11.6849,11.6548,11.5195,11.4819,11.4611,11.4009,11.3841,11.2638,11.014,10.9839,10.9555,10.9087,10.8862,10.8862,10.8862,10.8862,10.8828,10.8816,10.8726,10.8632,10.846,10.836,10.8278,10.8278,10.8278,10.8278,10.8278,10.8278,10.925,11.0842,11.4282,11.8298,12.0616,12.2785,12.3533,12.3458,12.286,12.2112,11.9794,11.8448,11.8971,12.1215,12.2262,12.3458,12.5851,12.8019,12.7795,12.7346,12.7571,12.7047,8.4567,8.4567,8.4567,8.5257,8.6238,8.6314,8.6843,8.79,8.8514,8.8741,8.873,8.9194,8.942,8.942,8.942,8.94,8.9444,8.9498,8.9394,8.9227,8.9293,8.9389,8.9271,8.9384,8.9485,8.9542,8.9587,8.9615,8.9634,8.9698,8.9737,8.9745,8.9864,9.0489,9.1623,9.2652,9.439,9.7999,9.9102,10.0665,10.286,10.3087,10.3358,10.3727,10.3788,10.3428,10.2864,10.3393,10.3536,10.337,10.4928,10.6566,10.7816,10.8127,10.8352,10.8803,10.8862,10.8862,10.8803,10.8502,10.8954,11.0984,11.1886,11.2713,11.3841,11.5044,11.4819,11.339,11.3089,11.2788,11.2488,11.2337,11.1285,10.9104,10.8862,10.8954,10.8862,10.8862,10.8862,10.8862,10.8862,10.8828,10.8816,10.8726,10.8613,10.846,10.836,10.8278,10.8278,10.8278,10.8278,10.8278,10.8353,10.8802,11.0521,11.3288,11.5905,11.7476,11.9644,12.1065,12.0243,11.9495,11.8822,11.7625,11.6878,11.7625,12.0168,12.1962,12.3084,12.5028,12.6075,12.6374,12.6524,12.6075,12.5402,8.4416,8.4265,8.4492,8.4341,8.4577,8.4577,8.4567,8.5171,8.6465,8.7069,8.7296,8.8655,8.9118,8.9269,8.9345,8.9335,8.9259,8.9204,8.9152,8.9256,8.9268,8.9208,8.9095,8.9133,8.9256,8.944,8.9526,8.9594,8.9572,8.9601,8.9608,8.9615,8.9641,8.9817,8.9779,9.2583,9.4311,9.5475,9.7886,9.9531,9.9606,9.9985,10.0659,10.1855,10.2006,10.1235,9.9404,10.0743,10.1526,10.1631,10.3135,10.4759,10.6037,10.6698,10.7224,10.8427,10.8728,10.8787,10.8653,10.7375,10.7826,10.9839,10.9839,11.0533,11.2563,11.354,11.324,11.1811,11.1343,11.0816,10.9555,10.9405,10.9162,10.8862,10.8862,10.8862,10.8862,10.8862,10.8862,10.8862,10.8862,10.8828,10.8816,10.8726,10.8632,10.846,10.836,10.8278,10.8278,10.8278,10.8278,10.8278,10.8278,10.8353,11.0073,11.2017,11.3139,11.4388,11.6631,11.8074,11.7251,11.6878,11.6279,11.6504,11.5681,11.6504,11.9121,12.0916,12.2262,12.3458,12.3308,12.3832,12.4133,12.4284,12.3636,8.1179,8.1179,8.1103,8.1783,8.285,8.285,8.3444,8.4567,8.5106,8.5332,8.571,8.7145,8.7824,8.7975,8.8957,8.8892,8.791,8.7824,8.8398,8.9314,8.9302,8.9268,8.9184,8.9133,8.9259,8.9291,8.9227,8.9215,8.9238,8.9375,8.9441,8.9525,8.9565,8.9608,8.9973,9.1612,9.3285,9.4645,9.6613,9.8277,9.9259,9.9411,9.9649,9.9874,9.9924,9.9592,9.9043,9.9479,9.978,10.0006,10.1359,10.2503,10.3239,10.5269,10.6773,10.7224,10.7299,10.7224,10.7074,10.572,10.5269,10.6322,10.7751,10.8653,10.8954,11.0984,11.1209,11.0157,10.9689,10.9538,10.9029,10.8862,10.8862,10.8862,10.8862,10.8862,10.8862,10.8862,10.8862,10.8862,10.8862,10.8828,10.8816,10.8726,10.8632,10.846,10.836,10.8299,10.8278,10.8278,10.8278,10.8278,10.8278,10.8278,10.8823,11.0347,11.1542,11.2012,11.3678,11.4515,11.4485,11.4335,11.4335,11.4859,11.5457,11.6279,11.7625,11.957,12.1215,12.2785,12.2491,12.172,12.2218,12.2391,12.1613,7.9518,7.9518,7.9518,8.0122,8.1113,8.1113,8.1708,8.2765,8.3369,8.3671,8.3897,8.5408,8.6163,8.6163,8.6626,8.6541,8.6163,8.6163,8.7039,8.8355,8.8495,8.8774,8.9169,8.9196,8.9208,8.922,8.9133,8.9157,8.9108,8.8641,8.8721,8.9131,8.8241,8.7995,8.8799,9.0641,9.2225,9.3626,9.6237,9.8102,9.9082,9.9233,9.8476,9.7299,9.7224,9.7434,9.8036,9.8111,9.8336,9.8938,9.9931,10.0532,10.0833,10.3164,10.4893,10.5495,10.5645,10.557,10.542,10.4066,10.3314,10.3991,10.5495,10.6096,10.6848,10.8352,10.9463,10.9029,10.8862,10.8862,10.8862,10.8862,10.8862,10.8862,10.8862,10.8862,10.8862,10.8862,10.8862,10.8862,10.8862,10.8845,10.8851,10.8744,10.8632,10.8499,10.8381,10.8299,10.8278,10.8278,10.8278,10.8278,10.8278,10.8194,10.7756,10.8682,10.9352,10.9772,11.0188,11.1031,11.0988,11.0692,11.1828,11.2401,11.2648,11.3543,11.5805,11.7593,11.8035,11.9524,11.9985,11.9578,12.064,11.9568,11.8952,7.9499,7.949,7.949,7.948,7.949,7.9556,7.9565,7.9848,8.1226,8.1915,8.2047,8.3566,8.4331,8.4085,8.2792,8.2897,8.4256,8.4397,8.5358,8.6997,8.7072,8.7794,8.9181,8.9244,8.9244,8.9256,8.9184,8.9222,8.9084,8.7728,8.7628,8.8858,8.626,8.5307,8.6824,8.9759,9.1462,9.1968,9.5928,9.8517,9.8592,9.8592,9.7088,9.4682,9.4141,9.5043,9.6246,9.6457,9.7194,9.8712,9.8772,9.8922,9.9088,10.0532,10.2186,10.3615,10.3916,10.3916,10.369,10.2337,10.1961,10.3164,10.2578,10.2863,10.5495,10.6547,10.745,10.8561,10.8728,10.8862,10.8862,10.8753,10.8718,10.8811,10.8735,10.8718,10.8735,10.8718,10.8845,10.8862,10.8862,10.8862,10.8862,10.878,10.867,10.8613,10.8401,10.8257,10.8215,10.8215,10.8098,10.8076,10.7989,10.7831,10.6846,10.7188,10.703,10.7262,10.7909,10.7691,10.7184,10.7224,10.8602,10.9748,11.1011,11.247,11.4103,11.5283,11.6079,11.6556,11.7221,11.7234,11.7962,11.6786,11.6523,7.9078,7.9078,7.9078,7.9078,7.9078,7.9078,7.9078,7.9153,7.9529,7.9754,7.9842,8.0499,8.0627,8.0443,7.998,8.0742,8.2277,8.2439,8.4087,8.6822,8.7049,8.7794,8.9293,8.94,8.9325,8.9347,8.9268,8.932,8.9279,8.8705,8.8154,8.7475,8.6623,8.5695,8.5345,8.8167,8.9899,9.0174,9.3459,9.5415,9.5415,9.5415,9.4964,9.4212,9.4094,9.4291,9.4742,9.4528,9.5245,9.7118,9.6854,9.7345,9.8772,9.9389,10.0382,10.1886,10.2186,10.2127,10.2111,10.0607,9.9855,10.0291,10.1134,10.1901,10.3029,10.5119,10.6623,10.7208,10.8202,10.877,10.8845,10.8482,10.831,10.8291,10.7927,10.7905,10.8196,10.831,10.8407,10.8828,10.8718,10.8862,10.8845,10.8687,10.8594,10.8574,10.8381,10.8194,10.7808,10.7691,10.7546,10.7089,10.7009,10.6846,10.6622,10.6418,10.6506,10.6593,10.6711,10.6854,10.665,10.7772,10.9023,11.0602,11.1931,11.3378,11.4958,11.5623,11.6269,11.625,11.6334,11.6408,11.5995,11.5697,11.5493,7.8535,7.7935,7.861,7.8896,7.8896,7.8896,7.8896,7.8896,7.8896,7.8896,7.8835,7.8248,7.8283,7.877,7.8105,7.8888,8.0443,8.0667,8.2201,8.4701,8.4935,8.6248,8.8277,8.8473,8.885,8.9335,8.9325,8.9314,8.9422,8.9314,8.8525,8.7006,8.5476,8.4699,8.4514,8.6873,8.8606,8.9259,9.2485,9.3477,9.236,9.2096,9.2069,9.2056,9.2002,9.2218,9.2668,9.2639,9.3301,9.4851,9.4744,9.5398,9.7321,9.7414,9.7863,9.878,9.893,9.8983,9.9138,9.8237,9.7996,9.8671,9.9646,10.042,10.1045,10.3552,10.5052,10.509,10.6305,10.7577,10.8061,10.7948,10.7773,10.775,10.7518,10.747,10.775,10.7773,10.7861,10.8116,10.8176,10.8156,10.8231,10.8129,10.8098,10.7967,10.7687,10.7397,10.7142,10.7137,10.6901,10.6564,10.6024,10.5771,10.5674,10.5707,10.5707,10.5885,10.6443,10.6883,10.708,10.8104,10.9975,11.1621,11.2428,11.3709,11.5471,11.5764,11.563,11.5321,11.5356,11.5392,11.5392,11.5033,11.4773,7.7492,7.6443,7.7628,7.8466,7.8602,7.8752,7.8827,7.8827,7.8841,7.8766,7.8424,7.6946,7.721,7.8153,7.6766,7.6879,7.8296,7.8314,7.9324,8.1038,8.1479,8.3435,8.6616,8.6843,8.7673,8.9033,8.9142,8.9142,8.941,8.9368,8.8657,8.6911,8.3786,8.2935,8.4119,8.5777,8.7435,8.9018,9.2184,9.2446,8.9551,8.9296,8.9234,8.9222,8.913,8.9532,9.0682,9.0653,9.1215,9.233,9.249,9.3233,9.4836,9.5059,9.5059,9.5059,9.5059,9.5134,9.551,9.5697,9.6575,9.807,9.835,9.8809,9.9832,10.171,10.2605,10.2613,10.3708,10.5438,10.6828,10.6927,10.6976,10.7174,10.7146,10.7148,10.7248,10.7273,10.7298,10.7323,10.747,10.7348,10.7446,10.7446,10.7298,10.712,10.6955,10.6678,10.6477,10.6448,10.6389,10.6117,10.5377,10.4751,10.4714,10.4567,10.4751,10.4823,10.6269,10.6956,10.7359,10.8557,11.0659,11.1788,11.2809,11.3465,11.4559,11.496,11.4811,11.4541,11.4307,11.418,11.41,11.418,11.422,7.4323,7.3935,7.4398,7.5275,7.6615,7.7955,7.846,7.846,7.8402,7.7715,7.6764,7.7423,7.7983,7.8075,7.5242,7.4269,7.445,7.229,7.3634,7.7562,7.7928,8.0488,8.4794,8.5096,8.6012,8.7447,8.7588,8.8192,8.9269,8.94,8.9249,8.8569,8.5529,8.3471,8.2675,8.4215,8.5875,8.7428,8.9422,9.0209,8.9475,8.9291,8.922,8.9196,8.8736,8.8712,8.8968,8.8309,8.8893,9.0686,9.0529,9.1173,9.3159,9.3276,9.3254,9.3254,9.3276,9.3318,9.3476,9.4667,9.6059,9.76,9.7749,9.7854,9.8188,9.946,10.0125,10.0222,10.1857,10.3633,10.5046,10.5112,10.5434,10.6559,10.6329,10.6269,10.665,10.6735,10.6827,10.7273,10.7348,10.7323,10.7348,10.7348,10.7171,10.6882,10.6633,10.6299,10.5867,10.5771,10.551,10.5141,10.4824,10.4567,10.4567,10.4567,10.4567,10.4567,10.5113,10.5981,10.7173,10.8437,11.0181,11.185,11.297,11.3806,11.4162,11.4346,11.4267,11.418,11.4059,11.4059,11.4059,11.4059,11.4059,7.2861,7.2341,7.3009,7.3826,7.4718,7.5683,7.6055,7.5906,7.4495,7.3306,7.2712,7.5015,7.6426,7.702,7.5238,7.4952,7.5755,7.4032,7.4835,7.7449,7.77,7.9677,8.2909,8.3146,8.405,8.5568,8.5724,8.621,8.6975,8.7114,8.722,8.6994,8.4653,8.2906,8.2198,8.3727,8.5388,8.6867,8.5423,8.4612,8.4537,8.231,8.1045,8.1032,8.145,8.1519,8.1252,8.0771,8.0962,8.1933,8.1741,8.3484,8.7349,8.7668,8.8309,8.9784,9.0522,9.03,8.8899,9.1251,9.3661,9.5983,9.6797,9.7143,9.6962,9.7579,9.822,9.8954,9.9896,10.1367,10.2861,10.2873,10.3328,10.4943,10.4852,10.5122,10.5951,10.616,10.6313,10.6535,10.6622,10.6622,10.6548,10.6622,10.6506,10.6135,10.5993,10.5747,10.5211,10.5107,10.4966,10.4678,10.4567,10.4567,10.4567,10.4567,10.4567,10.4567,10.5145,10.63,10.7817,10.9406,11.0994,11.2583,11.3522,11.3987,11.41,11.41,11.4059,11.4059,11.4059,11.4059,11.4059,11.4059,11.3811,7.1821,7.069,7.2044,7.2489,7.2267,7.2267,7.2118,7.1747,6.9444,6.8553,6.8983,7.197,7.4123,7.546,7.494,7.5609,7.6871,7.6814,7.7018,7.7512,7.7946,7.9182,8.101,8.1085,8.1985,8.3528,8.3689,8.3927,8.4165,8.4367,8.4507,8.428,8.2782,8.1941,8.2102,8.3601,8.4809,8.5498,8.0944,7.8963,7.9564,7.5278,7.2651,7.1841,7.3135,7.3164,7.1821,7.1946,7.1708,7.1136,7.1333,7.3866,7.9169,7.9851,8.1431,8.4496,8.6055,8.5982,8.4037,8.6988,9.0252,9.3392,9.5379,9.6045,9.5311,9.5617,9.6566,9.8056,9.8232,9.8828,10.0288,10.0611,10.1268,10.2802,10.3094,10.3605,10.47,10.5138,10.5317,10.5349,10.5616,10.5828,10.5894,10.5861,10.5689,10.5352,10.5387,10.5074,10.4787,10.4639,10.4567,10.4567,10.4567,10.4567,10.4567,10.4567,10.4567,10.4567,10.565,10.6806,10.8395,10.9694,11.0994,11.3016,11.3016,11.3305,11.3626,11.3738,11.3811,11.4059,11.4059,11.4059,11.4059,11.349,11.2912,6.9131,6.8908,6.9147,6.8553,6.738,6.738,6.6548,6.5418,6.7498,0.0,0.0,7.2489,7.3455,7.3529,7.093,6.9874,7.0113,6.8823,6.987,7.2673,7.3972,7.6256,7.9271,7.936,8.026,8.1835,8.1877,8.2655,8.3945,8.4061,8.4074,8.3924,8.2408,8.1582,8.1644,8.3146,8.2108,7.8615,7.7513,7.8976,8.2914,8.1869,7.8726,7.3528,7.4346,7.2339,6.7058,6.7682,6.762,6.6348,6.737,6.861,6.9705,7.1165,7.3282,7.6274,7.6858,7.8512,8.1869,8.3969,8.6507,8.9578,9.2577,9.3031,9.0317,9.2551,9.4814,9.6493,9.6638,9.7222,9.8755,9.8932,9.9558,10.1164,10.131,10.1383,10.1821,10.2916,10.3824,10.397,10.4886,10.5762,10.5689,10.5762,10.5696,10.5494,10.5322,10.5074,10.4932,10.475,10.4567,10.4567,10.4567,10.4567,10.4567,10.4567,10.4567,10.4567,10.4856,10.5578,10.695,10.76,10.8467,11.02,11.0272,11.085,11.1861,11.2222,11.2655,11.3883,11.4059,11.4059,11.3883,11.2196,11.0504,6.8291,6.8157,6.8324,6.7959,0.0,6.729,6.4806,6.0843,6.2412,6.4669,6.7349,6.9741,7.1301,7.197,7.0393,7.0096,7.0855,7.0113,7.0639,7.2328,7.3132,7.4403,7.6094,7.6019,7.6467,7.7288,7.741,7.7932,7.877,7.8883,7.8111,7.6548,7.6473,7.5198,7.2883,7.5123,7.5094,7.2478,7.33,7.5317,7.8275,7.578,7.282,6.988,7.0676,0.0,0.0,0.0,0.0,0.0,0.0,0.0,0.0,6.8961,0.0,7.4061,7.1294,7.0543,7.2967,7.4669,7.7296,8.1238,8.2989,8.3281,8.1676,8.6055,8.9558,9.1164,9.2843,9.4741,9.7076,9.7368,9.7952,9.9485,9.9704,10.0069,10.0799,10.1602,10.2113,10.2259,10.3573,10.4594,10.4594,10.5178,10.5696,10.5566,10.5356,10.5109,10.4968,10.475,10.4567,10.4567,10.4567,10.4567,10.4567,10.4567,10.4567,10.4567,10.4567,10.5217,10.6661,10.6912,10.7456,10.9045,10.9478,10.9622,11.0417,11.0561,11.085,11.15,11.1716,11.1716,11.1762,11.0721,10.9422,6.7962,6.7707,6.8015,6.7821,6.7303,6.7895,6.4916,5.9641,5.9641,6.1389,6.4399,6.7073,6.905,7.031,7.0435,7.1136,7.2415,7.2712,7.2861,7.2861,7.3158,7.3232,7.3232,7.3232,7.3232,7.3323,7.3536,7.3554,7.3554,7.3848,7.252,7.006,7.1259,6.956,6.5311,0.0,0.0,0.0,6.9147,7.173,7.3958,6.9993,6.7156,6.5923,6.691,0.0,6.5879,6.5961,6.6012,6.5806,6.5939,0.0,0.0,0.0,0.0,0.0,0.0,0.0,0.0,0.0,0.0,0.0,7.2552,7.2675,7.3942,7.9388,8.3354,8.4668,8.8464,9.1602,9.3354,9.4011,9.5106,9.693,9.7149,9.7952,9.9777,10.0215,10.0434,10.0507,10.1894,10.2948,10.3021,10.401,10.482,10.4979,10.4847,10.4601,10.4062,10.4028,10.4099,10.4206,10.4351,10.4712,10.4963,10.4856,10.4712,10.4928,10.4856,10.5073,10.6084,10.6335,10.7023,10.8034,10.8539,10.8467,10.89,10.8972,10.9117,10.9406,10.955,10.9338,10.8915,10.8845,10.8484,6.7202,6.7161,6.7223,6.5593,6.3215,6.6052,6.669,6.5898,6.5898,6.6158,6.6678,6.756,6.8002,6.8242,6.8646,6.885,6.9147,7.0542,7.121,7.1359,7.2638,7.3232,7.3232,7.3232,7.3232,7.3232,7.334,7.3283,7.3374,7.3407,7.32,7.2754,7.2977,7.134,6.7918,6.5449,6.2817,6.0086,6.5731,7.1656,7.7448,7.6605,7.3166,6.745,6.8129,6.6189,6.0767,6.1355,6.1381,6.0601,6.1355,6.2411,6.3611,6.1179,6.0192,0.0,5.7926,0.0,0.0,0.0,0.0,0.0,0.0,0.0,0.0,7.5644,7.7977,7.8123,8.4814,8.7588,8.3839,8.6101,8.8947,9.1894,9.2259,9.35,9.642,9.8025,9.8859,9.8828,10.0215,10.1237,10.1091,10.131,10.2113,10.3321,10.3058,10.1915,10.1194,10.1746,10.2473,10.2545,10.3701,10.4775,10.5788,10.5249,10.4926,10.6046,10.5214,10.4712,10.4747,10.4856,10.5,10.5217,10.5362,10.5795,10.7023,10.7239,10.7745,10.9011,10.9189,10.8509,10.6562,10.6016,10.6007,6.6929,6.6709,6.6972,6.5955,6.4254,6.567,6.6508,6.676,6.676,6.6842,6.7078,6.7357,6.7437,6.7457,6.7558,6.7837,6.8106,6.8919,6.9319,6.9577,7.0162,7.0499,7.0499,7.0499,7.0499,7.0499,7.0509,7.0558,7.0633,7.0558,6.9667,6.7943,6.885,6.7079,6.2845,6.2464,6.2003,6.1409,6.5211,7.0162,7.6221,7.586,7.4476,7.2321,7.2508,7.1359,6.8598,6.8897,6.8897,6.8501,6.8897,6.8851,6.8072,6.141,5.8468,0.0,0.0,0.0,0.0,0.0,0.0,0.0,0.0,0.0,0.0,0.0,7.0019,7.2794,8.1895,8.5617,8.08,8.3281,8.5398,8.5882,8.5179,8.6274,9.0406,9.2186,9.2843,9.1967,9.4814,9.6857,9.693,9.7733,9.9193,10.1675,9.7953,9.4706,9.4432,9.6959,9.8824,9.8472,10.0954,10.3265,10.3836,10.3408,10.3145,10.3403,10.2947,10.2422,10.2111,10.269,10.3267,10.334,10.3989,10.4893,10.5655,10.5799,10.6053,10.6851,10.6884,10.6118,10.4525,10.3882,10.3304,6.6528,6.6199,6.5184,6.4591,6.4444,6.4418,6.5155,6.6247,6.6271,6.6412,6.6659,6.5955,6.5657,6.5785,6.5107,6.5473,6.6566,6.6548,6.7099,6.8191,6.8053,6.8,6.8145,6.8145,6.8145,6.8088,6.7804,6.7888,6.834,6.7195,6.5474,6.362,6.4717,6.2871,5.8278,6.0295,6.2105,6.3273,6.5715,6.9108,7.3513,7.3434,7.3793,7.4848,7.4562,7.4525,7.4883,7.4768,7.4983,7.5356,7.3938,7.2578,7.1382,6.1078,0.0,0.0,0.0,0.0,0.0,0.0,0.0,0.0,0.0,5.9051,5.3838,0.0,6.412,0.0,7.783,8.2255,7.9048,8.0289,0.0,0.0,7.8464,7.8902,8.3719,8.5982,8.6858,8.6055,8.9486,9.1967,9.1967,9.3135,9.4943,9.7713,9.3194,8.9166,8.8287,9.244,9.5179,9.3777,9.6052,9.8567,9.8426,9.9566,10.0885,10.1551,10.1106,10.0384,9.9934,10.055,10.109,10.109,10.2096,10.2819,10.2967,10.3662,10.3845,10.3448,10.3192,10.2815,10.2171,10.143,10.0719,6.5819,6.5358,6.015,5.9103,6.0854,6.0854,6.2743,6.5696,6.5696,6.5819,6.5559,6.2795,6.1789,6.204,5.9614,0.0,6.2853,6.2737,6.437,6.7555,6.7364,6.7535,6.7874,6.7874,6.7874,6.7874,6.618,6.6382,6.7935,6.3587,6.193,6.3144,6.3123,6.1275,5.8128,6.0786,6.2378,6.2598,6.695,6.9521,7.0011,7.111,7.1546,7.1209,7.0849,7.1281,7.2705,7.2427,7.3073,7.4567,6.9099,6.5885,6.5797,0.0,0.0,0.0,0.0,0.0,0.0,0.0,0.0,0.0,0.0,0.0,0.0,0.0,0.0,6.6461,7.1791,0.0,7.7004,7.4692,0.0,0.0,0.0,7.2406,7.7247,8.0362,8.2744,8.423,0.0,0.0,8.705,8.7195,8.8153,9.0402,9.1349,9.0275,8.5841,9.0292,9.269,8.8118,8.8828,8.9819,9.0665,9.4181,9.8254,10.175,10.1486,9.9343,9.9048,9.8497,9.7677,9.769,9.7748,9.7931,9.7818,9.9612,10.0615,9.8656,9.8363,9.8323,9.8313,9.8282,9.8069,6.2011,5.9067,5.6851,5.6379,5.7122,5.7122,5.8107,5.9617,5.9617,5.9765,5.9983,5.8794,5.8338,5.8468,5.7411,0.0,0.0,0.0,6.103,6.4543,6.437,6.5546,6.7593,6.776,6.7686,6.7686,6.7081,6.7174,6.7965,6.5993,6.2156,5.6677,0.0,5.4909,5.4587,5.8756,6.1331,6.2503,6.617,6.7948,6.7611,6.9038,6.9888,7.0141,6.9937,7.0567,7.2082,7.2007,7.1019,6.8941,6.6265,6.2388,0.0,0.0,0.0,0.0,0.0,0.0,0.0,0.0,0.0,0.0,0.0,5.5543,5.1068,0.0,0.0,0.0,6.0711,6.1491,6.3191,6.7598,0.0,0.0,0.0,0.0,0.0,0.0,0.0,7.7216,8.0589,8.3121,8.393,8.1718,8.0448,8.2034,8.1332,8.0093,7.8407,0.0,8.6408,8.6637,8.6909,8.803,9.062,8.9804,8.9698,9.24,9.2917,9.3046,9.2749,9.4492,9.569,9.5944,9.6578,9.7255,9.7423,9.5267,9.3469,9.267,9.4381,9.5969,9.5677,9.5705,9.562,5.7094,0.0,0.0,0.0,0.0,5.2517,5.3141,5.4725,5.4795,5.4823,5.4858,5.4387,0.0,0.0,0.0,0.0,0.0,0.0,5.7792,6.087,6.2593,6.4233,6.5837,6.5837,6.5837,6.5784,6.4516,6.4193,6.4727,6.4249,5.9722,5.1448,0.0,0.0,0.0,0.0,5.933,6.0737,6.4517,6.6366,6.5976,6.7123,6.79,6.8179,6.7968,6.8647,7.0221,6.9021,6.7015,6.4205,6.1004,0.0,0.0,0.0,0.0,0.0,0.0,0.0,0.0,0.0,0.0,0.0,0.0,0.0,0.0,0.0,0.0,0.0,0.0,0.0,5.4892,6.1404,6.3872,0.0,0.0,0.0,0.0,0.0,0.0,0.0,0.0,0.0,7.8785,7.7835,7.7467,0.0,0.0,7.7318,7.4815,7.8676,8.1837,8.2229,8.1583,0.0,8.6032,8.3673,8.2113,8.4092,8.6754,8.8218,8.699,8.907,9.0821,9.0331,9.1857,9.3174,9.2907,8.9354,8.6765,8.707,8.8894,9.0512,9.0625,9.0679,9.0593,0.0,0.0,0.0,0.0,4.9259,0.0,0.0,0.0,5.2652,5.2052,0.0,4.9531,0.0,0.0,0.0,0.0,4.97,5.2424,0.0,0.0,6.2458,6.4032,6.1688,6.1566,6.1616,6.1305,5.6861,5.5569,5.7268,5.5645,5.3031,0.0,0.0,0.0,0.0,0.0,5.6096,5.6497,6.2272,6.5342,6.5315,6.5386,6.5095,6.4363,6.4149,6.475,6.6032,6.2352,6.0696,6.1841,5.1741,0.0,0.0,0.0,0.0,0.0,0.0,0.0,0.0,0.0,0.0,0.0,0.0,0.0,0.0,0.0,0.0,0.0,0.0,0.0,0.0,5.6789,0.0,0.0,0.0,0.0,0.0,0.0,0.0,0.0,0.0,7.2636,7.0547,7.6172,8.0892,8.0892,0.0,0.0,0.0,0.0,8.0644,7.3354,7.0668,7.0257,7.1691,7.4855,7.8285,8.1445,0.0,0.0,8.4103,8.2718,8.17,8.0062,8.2258,8.3406,8.2731,8.1011,8.0377,8.1733,8.1219,8.0713,8.1603,8.2373,8.2471,0.0,0.0,0.0,0.0,0.0,0.0,0.0,0.0,0.0,4.4715,4.4646,4.4334,0.0,0.0,0.0,0.0,0.0,0.0,0.0,0.0,5.3556,5.5135,5.5394,5.6402,5.631,5.527,5.3626,5.0864,0.0,0.0,0.0,0.0,0.0,0.0,0.0,0.0,5.4846,5.6167,6.1727,6.4668,6.4551,6.4063,6.3661,6.3279,6.3146,6.2491,6.1172,5.7872,5.4957,0.0,0.0,0.0,0.0,0.0,0.0,0.0,0.0,0.0,0.0,0.0,0.0,0.0,0.0,0.0,0.0,0.0,0.0,0.0,0.0,0.0,0.0,0.0,5.5169,0.0,0.0,0.0,0.0,0.0,0.0,0.0,0.0,0.0,6.8038,7.0371,7.389,7.8886,7.9766,8.0188,8.0928,0.0,0.0,0.0,0.0,0.0,0.0,0.0,7.2621,7.1759,7.1856,7.2745,7.4717,7.7999,8.011,7.9587,0.0,0.0,7.2967,7.193,7.238,7.2934,7.4249,7.5116,7.4777,7.616,7.7071,0.0,0.0,0.0,0.0,0.0,0.0,0.0,0.0,0.0,3.9435,3.9531,0.0,0.0,0.0,0.0,0.0,0.0,0.0,0.0,0.0,0.0,0.0,5.0213,5.1197,0.0,0.0,0.0,0.0,0.0,0.0,0.0,0.0,0.0,0.0,0.0,0.0,5.4234,5.6024,6.1299,6.4123,6.4002,6.3344,6.2719,6.2449,6.2381,6.0752,5.7254,0.0,0.0,0.0,0.0,0.0,0.0,0.0,0.0,0.0,0.0,0.0,0.0,0.0,0.0,0.0,0.0,0.0,0.0,0.0,0.0,0.0,0.0,0.0,0.0,0.0,5.266,0.0,0.0,0.0,0.0,0.0,0.0,0.0,0.0,0.0,0.0,6.643,6.9949,7.5016,7.709,7.9026,8.1455,8.1807,8.3075,0.0,0.0,0.0,0.0,0.0,0.0,0.0,0.0,0.0,0.0,0.0,0.0,0.0,7.4639,7.3008,6.5973,6.465,6.482,6.5337,0.0,0.0,0.0,0.0,0.0,0.0,0.0,0.0,0.0,0.0,0.0,0.0,0.0,0.0,0.0,3.6053,0.0,0.0,3.6679,0.0,0.0,0.0,0.0,0.0,0.0,0.0,0.0,0.0,0.0,0.0,0.0,0.0,0.0,0.0,0.0,0.0,0.0,0.0,0.0,0.0,0.0,5.3927,5.5614,6.0831,6.3617,6.3686,6.3049,6.2245,6.1546,6.1474,5.9192,5.4357,0.0,0.0,0.0,0.0,0.0,0.0,0.0,0.0,0.0,0.0,0.0,0.0,0.0,0.0,0.0,0.0,0.0,0.0,0.0,0.0,0.0,0.0,0.0,0.0,0.0,0.0,4.7402,5.069,5.3975,0.0,0.0,0.0,0.0,0.0,0.0,0.0,0.0,0.0,6.9676,7.8745,8.3849,7.959,7.8886,7.9555,8.1032,7.6249,7.3749,7.7902,7.8358,7.7342,0.0,0.0,0.0,0.0,0.0,0.0,0.0,0.0,0.0,0.0,0.0,0.0,0.0,0.0,0.0,0.0,0.0,0.0,0.0,0.0,0.0,0.0,0.0,0.0,0.0,0.0,0.0,0.0,0.0,0.0,0.0,0.0,0.0,0.0,0.0,0.0,0.0,0.0,0.0,0.0,0.0,0.0,0.0,0.0,0.0,0.0,0.0,0.0,0.0,0.0,0.0,0.0,0.0,0.0,5.1829,5.4379,5.8561,6.1296,6.2278,6.0639,5.9703,5.9383,5.7399,5.4057,0.0,0.0,0.0,0.0,0.0,0.0,0.0,0.0,0.0,0.0,0.0,0.0,0.0,0.0,0.0,0.0,0.0,0.0,0.0,0.0,0.0,0.0,0.0,0.0,0.0,0.0,0.0,0.0,5.5713,5.5899,5.4115,0.0,0.0,0.0,0.0,0.0,0.0,0.0,0.0,0.0,0.0,7.9187,8.1073,8.1352,8.1111,8.0626,7.9262,7.7278,7.4447,7.6058,7.5475,6.9024,0.0,0.0,0.0,0.0,0.0,0.0,0.0,0.0,0.0,0.0,0.0,0.0,0.0,0.0,0.0,0.0,0.0,0.0,0.0,0.0,0.0,0.0,0.0,0.0,0.0,0.0,0.0,0.0,0.0,0.0,0.0,0.0,0.0,0.0,0.0,0.0,0.0,0.0,0.0,0.0,0.0,0.0,0.0,0.0,0.0,0.0,0.0,0.0,0.0,0.0,0.0,0.0,0.0,5.0571,5.3056,5.7311,5.9636,5.9902,5.8738,5.7854,5.7266,5.46,5.0716,0.0,0.0,0.0,0.0,0.0,0.0,0.0,0.0,0.0,0.0,0.0,0.0,0.0,0.0,0.0,0.0,0.0,0.0,0.0,0.0,0.0,0.0,0.0,0.0,0.0,0.0,0.0,0.0,5.5055,5.5336,5.3506,0.0,0.0,0.0,0.0,0.0,0.0,0.0,0.0,0.0,0.0,7.5656,7.8509,7.8927,0.0,0.0,7.8245,7.576,7.3225,7.6103,7.5538,6.6202,6.5823,0.0,0.0,0.0,0.0,0.0,0.0,0.0,0.0,0.0,0.0,0.0,0.0,0.0,0.0,0.0,0.0,0.0,0.0,0.0,0.0,0.0,0.0,0.0,0.0,0.0,0.0,0.0,0.0,0.0,0.0,0.0,0.0,0.0,0.0,0.0,0.0,0.0,0.0,0.0,0.0,0.0,0.0,0.0,0.0,0.0,0.0,0.0,0.0,0.0,0.0,0.0,0.0,5.0122,5.1716,5.6611,5.8561,5.7289,5.7071,5.6318,5.4965,5.2702,4.8687,0.0,0.0,0.0,0.0,0.0,0.0,0.0,0.0,0.0,0.0,0.0,0.0,0.0,0.0,0.0,0.0,0.0,0.0,0.0,0.0,0.0,0.0,0.0,0.0,0.0,0.0,0.0,0.0,0.0,0.0,0.0,0.0,0.0,0.0,0.0,0.0,0.0,0.0,0.0,0.0,0.0,7.2907,7.2941,7.2941,7.4403,0.0,7.3751,7.0374,7.2768,7.7145,7.6445,6.5404,0.0,0.0,0.0,0.0,0.0,0.0,0.0,0.0,0.0,0.0,0.0,0.0,0.0,0.0,0.0,0.0,0.0,0.0,0.0,0.0,0.0,0.0,0.0,0.0,0.0,0.0,0.0,0.0,0.0,0.0,0.0,0.0,0.0,0.0,0.0,0.0,0.0,0.0,0.0,0.0,0.0,0.0,0.0,0.0,0.0,0.0,0.0,0.0,0.0,0.0,0.0,0.0,0.0,0.0,5.034,5.4245,5.612,5.5721,5.3986,5.2947,5.2566,4.8992,0.0,0.0,0.0,0.0,0.0,0.0,0.0,0.0,0.0,0.0,0.0,0.0,0.0,0.0,0.0,0.0,0.0,0.0,0.0,0.0,0.0,0.0,0.0,0.0,0.0,0.0,0.0,4.555,0.0,0.0,0.0,0.0,0.0,0.0,0.0,0.0,0.0,0.0,0.0,0.0,0.0,0.0,6.9198,6.9642,6.9336,6.9059,0.0,0.0,6.593,6.2955,6.9047,7.153,0.0,0.0,0.0,0.0,0.0,0.0,0.0,0.0,0.0,0.0,0.0,0.0,0.0,0.0,0.0,0.0,0.0,0.0,0.0,0.0,0.0,0.0,0.0,0.0,0.0,0.0,0.0,0.0,0.0,0.0,0.0,0.0,0.0,0.0,0.0,0.0,0.0,0.0,0.0,0.0,0.0,0.0,0.0,0.0,0.0,0.0,0.0,0.0,0.0,0.0,0.0,0.0,0.0,0.0,4.7483,4.8893,5.1526,5.297,5.3225,5.1897,5.0871,5.0247,4.6558,4.3527,0.0,0.0,0.0,0.0,0.0,0.0,0.0,0.0,0.0,0.0,0.0,0.0,0.0,0.0,0.0,0.0,0.0,0.0,0.0,0.0,0.0,0.0,0.0,0.0,0.0,0.0,0.0,0.0,0.0,0.0,0.0,0.0,0.0,0.0,0.0,0.0,0.0,0.0,0.0,0.0,0.0,0.0,6.5814,6.4174,0.0,0.0,0.0,6.1412,5.8757,0.0,0.0,0.0,0.0,0.0,0.0,0.0,0.0,0.0,0.0,0.0,0.0,0.0,0.0,0.0,0.0,0.0,0.0,0.0,0.0,0.0,0.0,0.0,0.0,0.0,0.0,0.0,0.0,0.0,0.0,0.0,0.0,0.0,0.0,0.0,0.0,0.0,0.0,0.0,0.0,0.0,0.0,0.0,0.0,0.0,0.0,0.0,0.0,0.0,0.0,0.0,0.0,0.0,0.0,0.0,0.0,0.0,4.7513,4.902,5.0038,5.0597,5.0348,4.9679,4.8498,4.5475,4.2579,0.0,0.0,0.0,0.0,0.0,0.0,0.0,0.0,0.0,0.0,0.0,0.0,0.0,0.0,0.0,0.0,0.0,0.0,0.0,0.0,0.0,0.0,0.0,0.0,0.0,0.0,0.0,0.0,0.0,0.0,0.0,0.0,0.0,0.0,0.0,0.0,0.0,0.0,0.0,0.0,0.0,5.8276,6.2253,5.8803,5.6423,0.0,0.0,5.7249,5.7494,6.0888,0.0,0.0,0.0,0.0,0.0,0.0,0.0,0.0,0.0,0.0,0.0,0.0,0.0,0.0,0.0,0.0,0.0,0.0,0.0,0.0,0.0,0.0,0.0,0.0,0.0,0.0,0.0,0.0,0.0,0.0,0.0,0.0,0.0,0.0,0.0,0.0,0.0,0.0,0.0,0.0,0.0,0.0,0.0,0.0,0.0,0.0,0.0,0.0,0.0,0.0,0.0,0.0,0.0,0.0,0.0,0.0,4.7609,4.8922,4.9714,4.9786,4.8598,4.8272,4.8953,4.735,4.5235,0.0,0.0,0.0,0.0,0.0,0.0,0.0,0.0,0.0,0.0,0.0,0.0,0.0,0.0,0.0,0.0,0.0,0.0,0.0,0.0,0.0,0.0,0.0,0.0,0.0,0.0,0.0,0.0,0.0,0.0,0.0,0.0,0.0,0.0,0.0,0.0,0.0,0.0,0.0,0.0,0.0,5.7698,6.127,5.7303,0.0,0.0,0.0,0.0,5.428,5.5862,0.0,0.0,0.0,0.0,0.0,0.0,0.0,0.0,0.0,0.0,0.0,0.0,0.0,0.0,0.0,0.0,0.0,0.0,0.0,0.0,0.0,0.0,0.0,0.0,0.0,0.0,0.0,0.0,0.0,0.0,0.0,0.0,0.0,0.0,0.0,0.0,0.0,0.0,0.0,0.0,0.0,0.0,0.0,0.0,0.0,0.0,0.0,0.0,0.0,0.0,0.0,0.0,0.0,0.0,0.0,0.0,4.87,4.7727,4.82,5.0449,4.8995,4.8485,4.9082,4.8586,4.6332,0.0,0.0,0.0,0.0,0.0,0.0,0.0,0.0,0.0,0.0,0.0,0.0,0.0,0.0,0.0,0.0,0.0,0.0,0.0,0.0,0.0,0.0,0.0,0.0,0.0,0.0,0.0,0.0,0.0,0.0,0.0,0.0,0.0,0.0,0.0,0.0,0.0,0.0,0.0,0.0,5.2576,5.3046,5.6378,0.0,0.0,0.0,0.0,0.0,0.0,5.3746,5.3936,0.0,0.0,0.0,0.0,0.0,0.0,0.0,0.0,0.0,0.0,0.0,0.0,0.0,0.0,0.0,0.0,0.0,0.0,0.0,0.0,0.0,0.0,0.0,0.0,0.0,0.0,0.0,0.0,0.0,0.0,0.0,0.0,0.0,0.0,0.0,0.0,0.0,0.0,0.0,0.0,0.0,0.0,0.0,0.0,0.0,0.0,0.0,0.0,0.0,0.0,0.0,0.0,0.0,0.0,0.0,4.9217,4.6319,4.6941,5.1203,5.0112,4.962,4.98,4.9381,4.697,4.2303,0.0,0.0,0.0,0.0,0.0,0.0,0.0,0.0,0.0,0.0,0.0,0.0,0.0,0.0,0.0,0.0,0.0,0.0,0.0,0.0,0.0,0.0,0.0,0.0,0.0,0.0,0.0,0.0,0.0,0.0,0.0,0.0,0.0,0.0,0.0,0.0,0.0,0.0,0.0,4.941,4.8353,0.0,0.0,0.0,0.0,0.0,0.0,0.0,0.0,5.1772,0.0,0.0,0.0,0.0,0.0,0.0,0.0,0.0,0.0,0.0,0.0,0.0,0.0,0.0,0.0,0.0,0.0,0.0,0.0,0.0,0.0,0.0,0.0,0.0,0.0,0.0,0.0,0.0,0.0,0.0,0.0,0.0,0.0,0.0,0.0,0.0,0.0,0.0,0.0,0.0,0.0,0.0,0.0,0.0,0.0,0.0,0.0,0.0,0.0,0.0,0.0,0.0,0.0,0.0,0.0,0.0,4.604,4.7737,4.9661,5.0456,5.1414,5.2535,5.0441,4.7808,4.4756,0.0,0.0,0.0,0.0,0.0,0.0,0.0,0.0,0.0,0.0,0.0,0.0,0.0,0.0,0.0,0.0,0.0,0.0,0.0,0.0,0.0,0.0,0.0,0.0,0.0,0.0,0.0,0.0,0.0,0.0,0.0,0.0,0.0,0.0,0.0,0.0,0.0,0.0,4.9027,4.8394,0.0,0.0,0.0,0.0,0.0,0.0,0.0,0.0,4.9146,0.0,0.0,0.0,0.0,0.0,0.0,0.0,0.0,0.0,0.0,0.0,0.0,0.0,0.0,0.0,0.0,0.0,0.0,0.0,0.0,0.0,0.0,0.0,0.0,0.0,0.0,0.0,0.0,0.0,0.0,0.0,0.0,0.0,0.0,0.0,0.0,0.0,0.0,0.0,0.0,0.0,0.0,0.0,0.0,0.0,0.0,0.0,0.0,0.0,0.0,0.0,0.0,0.0,0.0,0.0,0.0,0.0,0.0,4.8283,5.0487,5.1672,5.2595,5.3133,4.9962,4.7269,0.0,0.0,0.0,0.0,0.0,0.0,0.0,0.0,0.0,0.0,0.0,0.0,0.0,0.0,0.0,0.0,0.0,0.0,0.0,0.0,0.0,0.0,0.0,0.0,0.0,0.0,0.0,0.0,0.0,0.0,0.0,0.0,0.0,0.0,0.0,0.0,0.0,0.0,0.0,0.0,0.0,0.0,0.0,0.0,0.0,0.0,0.0,0.0,0.0,0.0,0.0,0.0,0.0,0.0,0.0,0.0,0.0,0.0,0.0,0.0,0.0,0.0,0.0,0.0,0.0,0.0,0.0,0.0,0.0,0.0,0.0,0.0,0.0,0.0,0.0,0.0,0.0,0.0,0.0,0.0,0.0,0.0,0.0,0.0,0.0,0.0,0.0,0.0,0.0,0.0,0.0,0.0,0.0,0.0,0.0,0.0,0.0,0.0,0.0,0.0,0.0,0.0,0.0,0.0,0.0,0.0,0.0,0.0,4.8966,5.0989,5.292,5.39,5.3672,4.9244,4.6033,0.0,0.0,0.0,0.0,0.0,0.0,0.0,0.0,0.0,0.0,0.0,0.0,0.0,0.0,0.0,0.0,0.0,0.0,0.0,0.0,0.0,0.0,0.0,0.0,0.0,0.0,0.0,0.0,0.0,0.0,0.0,0.0,0.0,0.0,0.0,0.0,0.0,0.0,0.0,0.0,0.0,0.0,0.0,0.0,0.0,0.0,0.0,0.0,4.9519,0.0,0.0,0.0,0.0,0.0,0.0,0.0,0.0,0.0,0.0,0.0,0.0,0.0,0.0,0.0,0.0,0.0,0.0,0.0,0.0,0.0,0.0,0.0,0.0,0.0,0.0,0.0,0.0,0.0,0.0,0.0,0.0,0.0,0.0,0.0,0.0,0.0,0.0,0.0,0.0,0.0,0.0,0.0,0.0,0.0,0.0,0.0,0.0,0.0,0.0,0.0,0.0,0.0,0.0,0.0,0.0,0.0,0.0,0.0,4.9939,4.9524,5.384,5.579,5.4855,4.8825,4.4262,0.0,0.0,0.0,0.0,0.0,0.0,0.0,0.0,0.0,0.0,0.0,0.0,0.0,0.0,0.0,0.0,0.0,0.0,0.0,0.0,0.0,0.0,0.0,0.0,0.0,0.0,0.0,0.0,0.0,0.0,0.0,0.0,0.0,0.0,0.0,0.0,0.0,0.0,0.0,0.0,0.0,0.0,0.0,0.0,0.0,0.0,0.0,0.0,0.0,0.0,0.0,0.0,0.0,0.0,0.0,0.0,0.0,0.0,0.0,0.0,0.0,0.0,0.0,0.0,0.0,0.0,0.0,0.0,0.0,0.0,0.0,0.0,0.0,0.0,0.0,0.0,0.0,0.0,0.0,0.0,0.0,0.0,0.0,0.0,0.0,0.0,0.0,0.0,0.0,0.0,0.0,0.0,0.0,0.0,0.0,0.0,0.0,0.0,0.0,0.0,0.0,0.0,0.0,0.0,0.0,0.0,0.0,0.0,4.7562,4.9137,5.1539,5.1691,4.9525,4.4501,4.0871,0.0,0.0,0.0,0.0,0.0,0.0,0.0,0.0,0.0,0.0,0.0,0.0,0.0,0.0,0.0,0.0,0.0,0.0,0.0,0.0,0.0,0.0,0.0,0.0,0.0,0.0,0.0,0.0,0.0,0.0,0.0,0.0,0.0,0.0,0.0,0.0,0.0,0.0,0.0,0.0,0.0,0.0,0.0,0.0,0.0,0.0,0.0,0.0,0.0,0.0,0.0,0.0,0.0,0.0,0.0,0.0,0.0,0.0,0.0,0.0,0.0,0.0,0.0,0.0,0.0,0.0,0.0,0.0,0.0,0.0,0.0,0.0,0.0,0.0,0.0,0.0,0.0,0.0,0.0,0.0,0.0,0.0,0.0,0.0,0.0,0.0,0.0,0.0,0.0,0.0,0.0,0.0,0.0,0.0,0.0,0.0,0.0,0.0,0.0,0.0,0.0,0.0,0.0,0.0,0.0,0.0,0.0,0.0,0.0,4.8059,4.7488,4.6163,4.418,4.0633,3.7919,0.0,0.0,0.0,0.0,0.0,0.0,0.0,0.0,0.0,0.0,0.0,0.0,0.0,0.0,0.0,0.0,0.0,0.0,0.0,0.0,0.0,0.0,0.0,0.0,0.0,0.0,0.0,0.0,0.0,0.0,0.0,0.0,0.0,0.0,0.0,0.0,0.0,0.0,0.0,0.0,0.0,0.0,0.0,0.0,0.0,0.0,0.0,0.0,0.0,0.0,0.0,0.0,0.0,0.0,0.0,0.0,0.0,0.0,0.0,0.0,0.0,0.0,0.0,0.0,0.0,0.0,0.0,0.0,0.0,0.0,0.0,0.0,0.0,0.0,0.0,0.0,0.0,0.0,0.0,0.0,0.0,0.0,0.0,0.0,0.0,0.0,0.0,0.0,0.0,0.0,0.0,0.0,0.0,0.0,0.0,0.0,0.0,0.0,0.0,0.0,0.0,0.0,0.0,0.0,0.0,0.0,0.0,0.0,0.0,4.5504,4.1676,4.0205,4.1157,3.8626,3.6133,0.0,0.0,0.0,0.0,0.0,0.0,0.0,0.0,0.0,0.0,0.0,0.0,0.0,0.0,0.0,0.0,0.0,0.0,0.0,0.0,0.0,0.0,0.0,0.0,0.0,0.0,0.0,0.0,0.0,0.0,0.0,0.0,0.0,0.0,0.0,0.0,0.0,0.0,0.0,0.0,0.0,0.0,0.0,0.0,0.0,0.0,0.0,0.0,0.0,0.0,0.0,0.0,0.0,0.0,0.0,0.0,0.0,0.0,0.0,0.0,0.0,0.0,0.0,0.0,0.0,0.0,0.0,0.0,0.0,0.0,0.0,0.0,0.0,0.0,0.0,0.0,0.0,0.0,0.0,0.0,0.0,0.0,0.0,0.0,0.0,0.0,0.0,0.0,0.0,0.0,0.0,0.0,0.0,0.0,0.0,0.0,0.0,0.0,0.0,0.0,0.0,0.0,0.0,0.0,0.0,0.0,0.0,0.0,0.0,4.2586,3.9367,3.7565,3.7507,3.5499,3.3369,3.1246,0.0,0.0,0.0,0.0,0.0,0.0,0.0,0.0,0.0,0.0,0.0,0.0,0.0,0.0,0.0,0.0,0.0,0.0,0.0,0.0,0.0,0.0,0.0,0.0,0.0,0.0,0.0,0.0,0.0,0.0,0.0,0.0,0.0,0.0,0.0,0.0,0.0,0.0,0.0,0.0,0.0,0.0,0.0,0.0,0.0,0.0,0.0,0.0,0.0,0.0,0.0,0.0,0.0,0.0,0.0,0.0,0.0,0.0,0.0,0.0,0.0,0.0,0.0,0.0,0.0,0.0,0.0,0.0,0.0,0.0,0.0,0.0,0.0,0.0,0.0,0.0,0.0,0.0,0.0,0.0,0.0,0.0,0.0,0.0,0.0,0.0,0.0,0.0,0.0,0.0,0.0,0.0,0.0,0.0,0.0,0.0,0.0,0.0,0.0,0.0,0.0,0.0,0.0,0.0,0.0,0.0,0.0,0.0,4.009,3.7686,3.6185,3.575,3.4642,3.3225,0.0,0.0,0.0,0.0,0.0,0.0,0.0,0.0,0.0,0.0,0.0,0.0,0.0,0.0,0.0,0.0,0.0,0.0,0.0,0.0,0.0,0.0,0.0,0.0,0.0,0.0,0.0,0.0,0.0,0.0,0.0,0.0,0.0,0.0,0.0,0.0,0.0,0.0,0.0,0.0,0.0,0.0,0.0,0.0,0.0,0.0,0.0,0.0,0.0,0.0,0.0,0.0,0.0,0.0,0.0,0.0,0.0,0.0,0.0,0.0,0.0,0.0,0.0,0.0,0.0,0.0,0.0,0.0,0.0,0.0,0.0,0.0,0.0,0.0,0.0,0.0,0.0,0.0,0.0,0.0,0.0,0.0,0.0,0.0,0.0,0.0,0.0,0.0,0.0,0.0,0.0,0.0,0.0,0.0,0.0,0.0,0.0,0.0,0.0,0.0,0.0,0.0,0.0,0.0,0.0,0.0,0.0,0.0,4.0857,3.7885,3.658,3.6166,3.65,3.6529,3.6041,0.0,0.0,0.0,0.0,0.0,0.0,0.0,0.0,0.0,0.0,0.0,0.0,0.0,0.0,0.0,0.0,0.0,0.0,0.0,0.0,0.0,0.0,0.0,0.0,0.0,0.0,0.0,0.0,0.0,0.0,0.0,0.0,0.0,0.0,0.0,0.0,0.0,0.0,0.0,0.0,0.0,0.0,0.0,0.0,0.0,0.0,0.0,0.0,0.0,0.0,0.0,0.0,0.0,0.0,0.0,0.0,0.0,0.0,0.0,0.0,0.0,0.0,0.0,0.0,0.0,0.0,0.0,0.0,0.0,0.0,0.0,0.0,0.0,0.0,0.0,0.0,0.0,0.0,0.0,0.0,0.0,0.0,0.0,0.0,0.0,0.0,0.0,0.0,0.0,0.0,0.0,0.0,0.0,0.0,0.0,0.0,0.0,0.0,0.0,0.0,0.0,0.0,0.0,0.0,0.0,0.0,0.0,0.0,0.0,3.913,0.0,3.8091,3.8066,3.6135,3.4796,0.0,0.0,0.0,0.0,0.0,0.0,0.0,0.0,0.0,0.0,0.0,0.0,0.0,0.0,0.0,0.0,0.0,0.0,0.0,0.0,0.0,0.0,0.0,0.0,0.0,0.0,0.0,0.0,0.0,0.0,0.0,0.0,0.0,0.0,0.0,0.0,0.0,0.0,0.0,0.0,0.0,0.0,0.0,0.0,0.0,0.0,0.0,0.0,0.0,0.0,0.0,0.0,0.0,0.0,0.0,0.0,0.0,0.0,0.0,0.0,0.0,0.0,0.0,0.0,0.0,0.0,0.0,0.0,0.0,0.0,0.0,0.0,0.0,0.0,0.0,0.0,0.0,0.0,0.0,0.0,0.0,0.0,0.0,0.0,0.0,0.0,0.0,0.0,0.0,0.0,0.0,0.0,0.0,0.0,0.0,0.0,0.0,0.0,0.0,0.0,0.0,0.0,0.0,0.0,0.0,0.0,0.0,0.0,0.0,3.9284,3.9255,3.9192,3.8992,3.8127,3.6529,0.0,0.0,0.0,0.0,0.0,0.0,0.0,0.0,0.0,0.0,0.0,0.0,0.0,0.0,0.0,0.0,0.0,0.0,0.0,0.0,0.0,0.0,0.0,0.0,0.0,0.0,0.0,0.0,0.0,0.0,0.0,0.0,0.0,0.0,0.0,0.0,0.0,0.0,0.0,0.0,0.0,0.0,0.0,0.0,0.0,0.0,0.0,0.0,0.0,0.0,0.0,0.0,0.0,0.0,0.0,0.0,0.0,0.0,0.0,0.0,0.0,0.0,0.0,0.0,0.0,0.0,0.0,0.0,0.0,0.0,0.0,0.0,0.0,0.0,0.0,0.0,0.0,0.0,0.0,0.0,0.0,0.0,0.0,0.0,0.0,0.0,0.0,0.0,0.0,0.0,0.0,0.0,0.0,0.0,0.0,0.0,0.0,0.0,0.0,0.0,0.0,0.0,0.0,0.0,0.0,0.0,0.0,0.0,0.0,3.8793,3.9087,3.9315,3.9467,4.2038,4.0793,0.0,0.0,0.0,0.0,0.0,0.0,0.0,0.0,0.0,0.0,0.0,0.0,0.0,0.0,0.0,0.0,0.0,0.0,0.0,0.0,0.0,0.0,0.0,0.0,0.0,0.0,0.0,0.0,0.0,0.0,0.0,0.0,0.0,0.0,0.0,0.0,0.0,0.0,0.0,0.0,0.0,0.0,0.0,0.0,0.0,0.0,0.0,0.0,0.0,0.0,0.0,0.0,0.0,0.0,0.0,0.0,0.0,0.0,0.0,0.0,0.0,0.0,0.0,0.0,0.0,0.0,0.0,0.0,0.0,0.0,0.0,0.0,0.0,0.0,0.0,0.0,0.0,0.0,0.0,0.0,0.0,0.0,0.0,0.0,0.0,0.0,0.0,0.0,0.0,0.0,0.0,0.0,0.0,0.0,0.0,0.0,0.0,0.0,0.0,0.0,0.0,0.0,0.0,0.0,0.0,0.0,0.0,0.0,0.0,0.0,4.0278,4.0065,4.085,3.9629,3.8814,3.8461,0.0,0.0,0.0,0.0,0.0,0.0,0.0,0.0,0.0,0.0,0.0,0.0,0.0,0.0,0.0,0.0,0.0,0.0,0.0,0.0,0.0,0.0,0.0,0.0,0.0,0.0,0.0,0.0,0.0,0.0,0.0,0.0,0.0,0.0,0.0,0.0,0.0,0.0,0.0,0.0,0.0,0.0,0.0,0.0,0.0,0.0,0.0,0.0,0.0,0.0,0.0,0.0,0.0,0.0,0.0,0.0,0.0,0.0,0.0,0.0,0.0,0.0,0.0,0.0,0.0,0.0,0.0,0.0,0.0,0.0,0.0,0.0,0.0,0.0,0.0,0.0,0.0,0.0,0.0,0.0,0.0,0.0,0.0,0.0,0.0,0.0,0.0,0.0,0.0,0.0,0.0,0.0,0.0,0.0,0.0,0.0,0.0,0.0,0.0,0.0,0.0,0.0,0.0,0.0,0.0,0.0,0.0,0.0,0.0,0.0,4.1497,4.2114,4.0365,3.8837,0.0,0.0,0.0,0.0,0.0,0.0,0.0,0.0,0.0,0.0,0.0,0.0,0.0,0.0,0.0,0.0,0.0,0.0,0.0,0.0,0.0,0.0,0.0,0.0,0.0,0.0,0.0,0.0,0.0,0.0,0.0,0.0,0.0,0.0,0.0,0.0,0.0,0.0,0.0,0.0,0.0,0.0,0.0,0.0,0.0,0.0,0.0,0.0,0.0,0.0,0.0,0.0,0.0,0.0,0.0,0.0,0.0,0.0,0.0,0.0,0.0,0.0,0.0,0.0,0.0,0.0,0.0,0.0,0.0,0.0,0.0,0.0,0.0,0.0,0.0,0.0,0.0,0.0,0.0,0.0,0.0,0.0,0.0,0.0,0.0,0.0,0.0,0.0,0.0,0.0,0.0,0.0,0.0,0.0,0.0,0.0,0.0,0.0,0.0,0.0,0.0,0.0,0.0,0.0,0.0,0.0,0.0,0.0,0.0,0.0,0.0,4.2998,4.3041,4.2449,0.0,3.5152,0.0,0.0,0.0,0.0,0.0,0.0,0.0,0.0,0.0,0.0,0.0,0.0,0.0,0.0,0.0,0.0,0.0,0.0,0.0,0.0,0.0,0.0,0.0,0.0,0.0,0.0,0.0,0.0,0.0,0.0,0.0,0.0,0.0,0.0,0.0,0.0,0.0,0.0,0.0,0.0,0.0,0.0,0.0,0.0,0.0,0.0,0.0,0.0,0.0,0.0,0.0,0.0,0.0,0.0,0.0,0.0,0.0,0.0,0.0,0.0,0.0,0.0,0.0,0.0,0.0,0.0,0.0,0.0,0.0,0.0,0.0,0.0,0.0,0.0,0.0,0.0,0.0,0.0,0.0,0.0,0.0,0.0,0.0,0.0,0.0,0.0,0.0,0.0,0.0,0.0,0.0,0.0,0.0,0.0,0.0,0.0,0.0,0.0,0.0,0.0,0.0,0.0,0.0,0.0,0.0,0.0,0.0,0.0,0.0,0.0,0.0,0.0,4.0311,3.8309,3.9323,0.0,0.0,0.0,0.0,0.0,0.0,0.0,0.0,0.0,0.0,0.0,0.0,0.0,0.0,0.0,0.0,0.0,0.0,0.0,0.0,0.0,0.0,0.0,0.0,0.0,0.0,0.0,0.0,0.0,0.0,0.0,0.0,0.0,0.0,0.0,0.0,0.0,0.0,0.0,0.0,0.0,0.0,0.0,0.0,0.0,0.0,0.0,0.0,0.0,0.0,0.0,0.0,0.0,0.0,0.0,0.0,0.0,0.0,0.0,0.0,0.0,0.0,0.0,0.0,0.0,0.0,0.0,0.0,0.0,0.0,0.0,0.0,0.0,0.0,0.0,0.0,0.0,0.0,0.0,0.0,0.0,0.0,0.0,0.0,0.0,0.0,0.0,0.0,0.0,0.0,0.0,0.0,0.0,0.0,0.0,0.0,0.0,0.0,0.0,0.0,0.0,0.0,0.0,0.0,0.0,0.0,0.0,0.0,0.0,0.0,4.2408,4.5711,4.0495,3.8877,4.1338,0.0,0.0,0.0,0.0,0.0,0.0,0.0,0.0,0.0,0.0,0.0,0.0,0.0,0.0,0.0,0.0,0.0,0.0,0.0,0.0,0.0,0.0,0.0,0.0,0.0,0.0,0.0,0.0,0.0,0.0,0.0,0.0,0.0,0.0,0.0,0.0,0.0,0.0,0.0,0.0,0.0,0.0,0.0,0.0,0.0,0.0,0.0,0.0,0.0,0.0,0.0,0.0,0.0,0.0,0.0,0.0,0.0,0.0,0.0,0.0,0.0,0.0,0.0,0.0,0.0,0.0,0.0,0.0,0.0,0.0,0.0,0.0,0.0,0.0,0.0,0.0,0.0,0.0,0.0,0.0,0.0,0.0,0.0,0.0,0.0,0.0,0.0,0.0,0.0,0.0,0.0,0.0,0.0,0.0,0.0,0.0,0.0,0.0,0.0,0.0,0.0,0.0,0.0,0.0,0.0,0.0,0.0,0.0,0.0,0.0,0.0,0.0,0.0,0.0,4.1301,0.0,0.0,0.0,0.0,0.0,0.0,0.0,0.0,0.0,0.0,0.0,0.0,0.0,0.0,0.0,0.0,0.0,0.0,0.0,0.0,0.0,0.0,0.0,0.0,0.0,0.0,0.0,0.0,0.0,0.0,0.0,0.0,0.0,0.0,0.0,0.0,0.0,0.0,0.0,0.0,0.0,0.0,0.0,0.0,0.0,0.0,0.0,0.0,0.0,0.0,0.0,0.0,0.0,0.0,0.0,0.0,0.0,0.0,0.0,0.0,0.0,0.0,0.0,0.0,0.0,0.0,0.0,0.0,0.0,0.0,0.0,0.0,0.0,0.0,0.0,0.0,0.0,0.0,0.0,0.0,0.0,0.0,0.0,0.0,0.0,0.0,0.0,0.0,0.0,0.0,0.0,0.0,0.0,0.0,0.0,0.0,0.0,0.0,0.0,0.0,0.0,0.0,0.0,0.0,0.0,0.0,0.0,0.0,0.0,0.0,0.0,0.0,0.0,0.0,0.0,0.0,0.0,0.0,0.0,0.0,0.0,0.0,0.0,0.0,0.0,0.0,0.0,0.0,0.0,0.0,0.0,0.0,0.0,0.0,0.0,0.0,0.0,0.0,0.0,0.0,0.0,0.0,0.0,0.0,0.0,0.0,0.0,0.0,0.0,0.0,0.0,0.0,0.0,0.0,0.0,0.0,0.0,0.0,0.0,0.0,0.0,0.0,0.0,0.0,0.0,0.0,0.0,0.0,0.0,0.0,0.0,0.0,0.0,0.0,0.0,0.0,0.0,0.0,0.0,0.0,0.0,0.0,0.0,0.0,0.0,0.0,0.0,0.0,0.0,0.0,0.0,0.0,0.0,0.0,0.0,0.0,0.0,0.0,0.0,0.0,0.0,0.0,0.0,0.0,0.0,0.0,0.0,0.0,0.0,0.0,0.0,0.0,0.0,0.0,0.0,0.0,0.0,0.0,0.0,0.0,0.0,0.0,0.0,0.0,0.0,0.0,0.0,0.0,0.0,0.0,0.0,0.0,0.0,0.0,0.0,0.0,0.0,0.0,0.0,0.0,0.0,0.0,0.0,0.0,0.0,0.0,0.0,0.0,0.0,0.0,0.0,0.0,0.0,0.0,0.0,0.0,0.0,0.0,0.0,0.0,0.0,0.0,0.0,0.0,0.0,0.0,0.0,0.0,0.0,0.0,0.0,0.0,0.0,0.0,0.0,0.0,0.0,0.0,0.0,0.0,0.0,0.0,0.0,0.0,0.0,0.0,0.0,0.0,0.0,0.0,0.0,0.0,0.0,0.0,0.0,0.0,0.0,0.0,0.0,0.0,0.0,0.0,0.0,0.0,0.0,0.0,0.0,0.0,0.0,0.0,0.0,0.0,0.0,0.0,0.0,0.0,0.0,0.0,0.0,0.0,0.0,0.0,0.0,0.0,0.0,0.0,0.0,0.0,0.0,0.0,0.0,0.0,0.0,0.0,0.0,0.0,0.0,0.0,0.0,0.0,0.0,0.0,0.0,0.0,0.0,0.0,0.0,0.0,0.0,0.0,0.0,0.0,0.0,0.0,0.0,0.0,0.0,0.0,0.0,0.0,0.0,0.0,0.0,0.0,0.0,0.0,0.0,0.0,0.0,0.0,0.0,0.0,0.0,0.0,0.0,0.0,0.0,0.0,0.0,0.0,0.0,0.0,0.0,0.0,0.0,0.0,0.0,0.0,0.0,0.0,0.0,0.0,0.0,0.0,0.0,0.0,0.0,0.0,0.0,0.0,0.0,0.0,0.0,0.0,0.0,0.0,0.0,0.0,0.0,0.0,0.0,0.0,0.0,0.0,0.0,0.0,0.0,0.0,0.0,0.0,0.0,0.0,0.0,0.0,0.0,0.0,0.0,0.0,0.0,0.0,0.0,0.0,0.0,0.0,0.0,0.0,0.0,0.0,0.0,0.0,0.0,0.0,0.0,0.0,0.0,0.0,0.0,0.0,0.0,0.0,0.0,0.0,0.0,0.0,0.0,0.0,0.0,0.0,0.0,0.0,0.0,0.0,0.0,0.0,0.0,0.0,0.0,0.0,0.0,0.0,0.0,0.0,0.0,0.0,0.0,0.0,0.0,0.0,0.0,0.0,0.0,0.0,0.0,0.0,0.0,0.0,0.0,0.0,0.0,0.0,0.0,0.0,0.0,0.0,0.0,0.0,0.0,0.0,0.0,0.0,0.0,0.0,0.0,0.0,0.0,0.0,0.0,0.0,0.0,0.0,0.0,0.0,0.0,0.0,0.0,0.0,0.0,0.0,0.0,0.0,0.0,0.0,0.0,0.0,0.0,0.0,0.0,0.0,0.0,0.0,0.0,0.0,0.0,0.0,0.0,0.0,0.0,0.0,0.0,0.0,0.0,0.0,0.0,0.0,0.0,0.0,0.0,0.0,0.0,0.0,0.0,0.0,0.0,0.0,0.0,0.0,0.0,0.0,0.0,0.0,0.0,0.0,0.0,0.0,0.0,0.0,0.0,0.0,0.0,0.0,0.0,0.0,0.0,0.0,0.0,0.0,0.0,0.0,0.0,0.0,0.0,0.0,0.0,0.0,0.0,0.0,0.0,0.0,0.0,0.0,0.0,0.0,0.0,0.0,0.0,0.0,0.0,0.0,0.0,0.0,0.0,0.0,0.0,0.0,0.0,0.0,0.0,0.0,0.0,0.0,0.0,0.0,0.0,0.0,0.0,0.0,0.0,0.0,0.0,0.0,0.0,0.0,0.0,0.0,0.0,0.0,0.0,0.0,0.0,0.0,0.0,0.0,0.0,0.0,0.0,0.0,0.0,0.0,0.0,0.0,0.0,0.0,0.0,0.0,0.0,0.0,0.0,0.0,0.0,0.0,0.0,0.0,0.0,0.0,0.0,0.0,0.0,0.0,0.0,0.0,0.0,0.0,0.0,0.0,0.0,0.0,0.0,0.0,0.0,0.0,0.0,0.0,0.0,0.0,0.0,0.0,0.0,0.0,0.0,0.0,0.0,0.0,0.0,0.0,0.0,0.0,0.0,0.0,0.0,0.0,0.0,0.0,0.0,0.0,0.0,0.0,0.0,0.0,0.0,0.0,0.0,0.0,0.0,0.0,0.0,0.0,0.0,0.0,0.0,0.0,0.0,0.0,0.0,0.0,0.0,0.0,0.0,0.0,0.0,0.0,0.0,0.0,0.0,0.0,0.0,0.0,0.0,0.0,0.0,0.0,0.0,0.0,0.0,0.0,0.0,0.0,0.0,0.0,0.0,0.0,0.0,0.0,0.0,0.0,0.0,0.0,0.0,0.0,0.0,0.0,0.0,0.0,0.0,0.0,0.0,0.0,0.0,0.0,0.0,0.0,0.0,0.0,0.0,0.0,0.0,0.0,0.0,0.0,0.0,0.0,0.0,0.0,0.0,0.0,0.0,0.0,0.0,0.0,0.0,0.0,0.0,0.0,0.0,0.0,0.0,0.0,0.0,0.0,0.0,0.0,0.0,0.0,0.0,0.0,0.0,0.0,0.0,0.0,0.0,0.0,0.0,0.0,0.0,0.0,0.0,0.0,0.0,0.0,0.0,0.0,0.0,0.0,0.0,0.0,0.0,0.0,0.0,0.0,0.0,0.0,0.0,0.0,0.0,0.0,0.0,0.0,0.0,0.0,0.0,0.0,0.0,0.0,0.0,0.0,0.0,0.0,0.0,0.0,0.0,0.0,0.0,0.0,0.0,0.0,0.0,0.0,0.0,0.0,0.0,0.0,0.0,0.0,0.0,0.0,0.0,0.0,0.0,0.0,0.0,0.0,0.0,0.0,0.0,0.0,0.0,0.0,0.0,0.0,0.0,0.0,0.0,0.0,0.0,0.0,0.0,0.0,0.0,0.0,0.0,0.0,0.0,0.0,0.0,0.0,0.0,0.0,0.0,0.0,0.0,0.0,0.0,0.0,0.0,0.0,0.0,0.0,0.0,0.0,0.0,0.0,0.0,0.0,0.0,0.0,0.0,0.0,0.0,0.0,0.0,0.0,0.0,0.0,0.0,0.0,0.0,0.0,0.0,0.0,0.0,0.0,0.0,0.0,0.0,0.0,0.0,0.0,0.0,0.0,0.0,0.0,0.0,0.0,0.0,0.0,0.0,0.0,0.0,0.0,0.0,0.0,0.0,0.0,0.0,0.0,0.0,0.0,0.0,0.0,0.0,0.0,0.0,0.0,0.0,0.0,0.0,0.0,0.0,0.0,0.0,0.0,0.0,0.0,0.0,0.0,0.0,0.0,0.0,0.0,0.0,0.0,0.0,0.0,0.0,0.0,0.0,0.0,0.0,0.0,0.0,0.0,0.0,0.0,0.0,0.0,0.0,0.0,0.0,0.0]}]]]